     2.10           OBSERVATION DATA    G (GPS)             RINEX VERSION / TYPE
teqc 2005May6 SOPAC 20050707 00:35:16UTC                    PGM / RUN BY / DATE
Linux 2.4.20-8|Pentium IV|gcc|Linux|486/DX+                 COMMENT
BIT 2 OF LLI FLAGS DATA COLLECTED UNDER A/S CONDITION       COMMENT
Hayfork Summit                                              MARKER NAME
HAFS                                                        MARKER NUMBER
Zeke Breazeale                                              OBSERVER / AGENCY
0440100989 TRIMBLE 5700 2.01                                REC # / TYPE / VERS
11909466 TRM41249.00 NONE                                   ANT # / TYPE
 -2642690.0000 -4067692.0000  4129140.0000                  APPROX POSITION XYZ
        1.8000        0.0000        0.0000                  ANTENNA: DELTA H/E/N
     1     1                                                WAVELENGTH FACT L1/2
     6    L1    L2    C1    P2    P1    D1                  # / TYPES OF OBSERV
    15.0000                                                 INTERVAL
Northern California Height Modernization 2004               COMMENT
                                                            COMMENT
SOPAC - Scripps Orbit and Permanent Array Center            COMMENT
IGPP - Institute of Geophysics and Planetary Physics        COMMENT
SIO - Scripps Institution of Oceanography                   COMMENT
UCSD - University of California, San Diego                  COMMENT
                                                            COMMENT
email: archive@gpsmail.ucsd.edu                             COMMENT
ftp://garner.ucsd.edu                                       COMMENT
http://sopac.ucsd.edu                                       COMMENT
                                                            COMMENT
                                                            COMMENT
Approximate Lat, Lon : 40.594, -123.011                     COMMENT
                                                            COMMENT
SNR is mapped to RINEX snr flag value [0-9]                 COMMENT
L1 & L2: 2-19 dBHz = 1, 20-27 dBHz = 2, 28-31 dBHz = 3      COMMENT
32-35 dBHz = 4, 36-38 dBHz = 5, 39-41 dBHz = 6              COMMENT
42-44 dBHz = 7, 45-48 dBHz = 8, >= 49 dBHz = 9              COMMENT
  2004     9    10    14    51    0.0000000     GPS         TIME OF FIRST OBS
                                                            END OF HEADER
 04  9 10 14 51  0.0000000  0  7G 1G11G14G15G19G22G25
   -148620.67658   -100180.47754  22648062.6804   22648060.5634

   -130670.24259    -88030.34854  22122485.4774   22122481.8094
     -6303.45359
     -8388.33256                  20746913.6174   20746910.1134
     55833.41458
     31691.38353                  22776813.1564   22776812.3834
     18291.24657
      7690.94153                  23079529.8834   23079526.2854
     11691.59859
      3187.93854                  22526790.4924   22526786.4454

   -152716.42258   -105173.48854  22396205.5474   22396204.5634

 04  9 10 14 51 15.0000000  0  7G 1G11G14G15G19G22G25
   -218128.78148   -154342.64144  22634835.3204   22634833.7544
      4633.8744
   -191392.79348   -135346.64144  22110930.2814   22110926.3914
      4048.1704
     -9349.95749    -10762.25046  20746334.0164   20746330.7734
       203.1004
     81715.51247     51859.18043  22781737.7114   22781737.3754
     -1725.4734
     26802.62947     14323.16044  23081149.6254   23081146.5434
      -567.4264
     16906.27348      7251.28144  22527782.5944   22527778.8754
      -347.6454
   -223698.73048   -160484.36744  22382697.8364   22382697.2034
      4732.1544
 04  9 10 14 51 30.0000000  0  7G 1G11G14G15G19G22G25
   -287529.07048   -208420.81243  22621628.8914   22621627.7624
      4626.6864
   -251977.49249   -182555.50444  22099401.2734   22099397.6884
      4038.9804
    -12267.50849    -13035.68746  20745778.6334   20745775.7234
       194.5034
    107698.89848     72105.91443  22786683.0704   22786681.8794
     -1732.2264
     35432.64147     21047.79744  23082791.6644   23082789.0704
      -575.3344
     22198.80148     11375.26244  22528789.5634   22528785.7274
      -352.8354
   -294570.40248   -215709.00444  22369211.5004   22369210.8134
      4724.7784
 04  9 10 14 51 45.0000000  0  7G 1G11G14G15G19G22G25
   -356774.74648   -262378.50843  22608452.3754   22608450.2934
      4616.3784
   -312377.31249   -229620.30544  22087907.5554   22087903.7304
      4026.6554
    -15009.72349    -15172.50846  20745256.9614   20745253.8834
       182.8144
    133830.10548     92467.84043  22791655.2584   22791655.2154
     -1742.0804
     44227.46148     27900.86344  23084465.8524   23084463.0204
      -586.3214
     27615.81648     15596.26244  22529820.5704   22529817.0824
      -361.1344
   -365284.21948   -270810.68744  22355755.1334   22355754.5044
      4714.2544
 04  9 10 14 52  0.0000000  0  7G 1G11G14G15G19G22G25
   -425851.32048   -316204.42644  22595307.5864   22595305.9024
      4605.1054
   -372577.78149   -276529.80144  22076452.0784   22076448.1134
      4013.3654
    -17562.55949    -17161.75446  20744771.2584   20744767.8754
       170.1894
    160123.10247    112955.83643  22796658.5394   22796658.7074
     -1752.8664
     53201.09848     34893.27744  23086173.1024   23086170.5904
      -598.2424
     33171.65648     19925.46144  22530878.2344   22530874.0354
      -370.3894
   -435825.62148   -325777.99244  22342331.4614   22342330.7344
      4702.7604
 04  9 10 14 52 15.0000000  0  7G 1G11G14G15G19G22G25
   -494754.44148   -369895.16844  22582195.8134   22582193.8554
      4593.5414
   -432574.28949   -323280.35244  22065035.2114   22065031.3954
      3999.7674
    -19921.89149    -19000.21146  20744322.3914   20744319.0474
       157.2894
    186581.96548    133573.04743  22801694.0164   22801693.8284
     -1763.9244
     62357.50848     42028.07044  23087915.9384   23087912.7384
      -610.4274
     38870.64548     24366.18444  22531962.0554   22531958.2734
      -379.9334
   -506189.96948   -380607.35244  22328941.5864   22328940.0824
      4690.9574
 04  9 10 14 52 30.0000000  0  7G 1G11G14G15G19G22G25
   -563486.34447   -423452.49644  22569116.4224   22569114.8444
      4582.1274
   -492368.97749   -369873.62144  22053656.4224   22053652.8714
      3986.3134
    -22090.39549    -20689.96546  20743909.6414   20743906.5394
       144.5674
    213204.01648    154317.45343  22806759.2114   22806758.9654
     -1774.8034
     71693.91848     49303.18044  23089692.4224   23089689.0594
      -622.4274
     44710.28548     28916.50444  22533074.1414   22533069.9184
      -389.3094
   -576379.34448   -435300.35544  22315585.0314   22315583.3244
      4679.2924
 04  9 10 14 52 45.0000000  0  7G 1G11G14G15G19G22G25
   -632051.84448   -476880.15244  22556068.1024   22556067.5124
      4571.0334
   -551966.46548   -416313.23844  22042315.6094   22042312.1414
      3973.1664
    -24073.16849    -22235.00847  20743532.3674   20743529.3714
       132.1854
    239984.07047    175184.96943  22811856.1564   22811855.4264
     -1785.3374
     81205.01248     56714.39544  23091502.8674   23091499.3364
      -634.0734
     50685.68048     33572.62144  22534210.8444   22534207.6214
      -398.3604
   -646398.17648   -489860.47744  22302260.8054   22302259.4884
      4667.9224
 04  9 10 14 53  0.0000000  0  7G 1G11G14G15G19G22G25
   -700452.33248   -530179.21544  22543052.5864   22543051.6214
      4560.0334
   -611368.00849   -462600.16444  22031011.5474   22031007.7854
      3960.1034
    -25872.07049    -23636.77746  20743190.1094   20743187.0944
       119.9274
    266920.34448    196174.21543  22816981.1024   22816981.0314
     -1795.7524
     90888.83248     64260.19944  23093345.7274   23093342.0514
      -645.5884
     56795.28948     38333.30544  22535373.2584   22535370.3634
      -407.3074
   -716247.82048   -544288.75444  22288969.2424   22288967.7934
      4656.6434
 04  9 10 14 53 15.0000000  0  7G 1G11G14G15G19G22G25
   -768693.19948   -583353.93444  22530066.5864   22530065.8714
      4549.3914
   -670578.99649   -508738.60244  22019743.9774   22019741.0234
      3947.3994
    -27492.93749    -24899.80946  20742881.5704   20742878.7814
       108.0584
    294007.05548    217280.66843  22822136.2814   22822136.1684
     -1805.7814
    100739.48448     71935.98844  23095220.5394   23095216.7854
      -656.7104
     63033.53548     43194.23444  22536560.5704   22536557.0904
      -415.8834
   -785933.36348   -598589.16044  22275708.1804   22275706.8014
      4645.7034
 04  9 10 14 53 30.0000000  0  7G 1G11G14G15G19G22G25
   -836778.27348   -636407.22344  22517110.5944   22517109.5824
      4539.0054
   -729603.00849   -554731.34445  22008512.4224   22008509.7424
      3934.9344
    -28939.77349    -26027.24246  20742606.2814   20742603.6024
        96.4564
    321240.02047    238501.11343  22827317.9774   22827318.0514
     -1815.5314
    110752.75848     79738.49644  23097125.5864   23097121.7304
      -667.5524
     69396.43448     48152.29344  22537771.2974   22537768.1764
      -424.1934
   -855458.49648   -652764.57844  22262478.1174   22262476.7384
      4635.0094
 04  9 10 14 53 45.0000000  0  7G 1G11G14G15G19G22G25
   -904711.64548   -689342.31243  22504182.3594   22504181.8754
      4528.8914
   -788443.96949   -600581.47744  21997315.1644   21997312.4264
      3922.7314
    -30217.04749    -27022.53546  20742363.0234   20742360.4694
        85.1524
    348614.84448    259832.10243  22832527.6884   22832527.8594
     -1824.9884
    120924.14148     87664.22743  23099061.4064   23099057.1804
      -678.0924
     75879.89148     53204.29344  22539005.2814   22539001.8954
      -432.2304
   -924826.86348   -706817.84844  22249277.8134   22249276.3284
      4624.5584
 04  9 10 14 54  0.0000000  0  7G 1G11G14G15G19G22G25
   -972498.88348   -742163.53543  22491283.5234   22491281.9654
      4519.1494
   -847107.34849   -646293.21544  21986152.2814   21986148.9264
      3910.8924
    -31330.72749    -27890.36746  20742151.5234   20742148.2664
        74.2454
    376125.54348    281268.93043  22837763.5474   22837762.4024
     -1834.0474
    131247.48848     95708.40243  23101025.6254   23101021.2544
      -688.2234
     82478.15648     58345.75444  22540260.9144   22540257.4734
      -439.8844
   -994044.10948   -760753.34444  22236106.1254   22236104.7034
      4614.4834
 04  9 10 14 54 15.0000000  0  7G 1G11G14G15G19G22G25
  -1040141.82048   -794872.33643  22478411.5084   22478409.4264
      4509.5294
   -905594.75849   -691867.83644  21975022.4614   21975018.4924
      3899.1614
    -32282.97349    -28632.39546  20741969.9224   20741967.1054
        63.4834
    403769.80148    302809.89143  22843023.8834   22843023.5434
     -1842.9514
    141720.46948    103869.18443  23103018.9064   23103012.9734
      -698.1994
     89189.21548     63575.12544  22541538.2114   22541534.0514
      -447.4044
  -1063111.74648   -814572.26244  22222963.1954   22222961.7664
      4604.5094
 04  9 10 14 54 30.0000000  0  7G 1G11G14G15G19G22G25
  -1107645.69948   -847472.77343  22465566.3134   22465564.5354
      4500.2594
   -963911.38349   -737309.37944  21963924.4384   21963921.9534
      3887.7754
    -33079.48049    -29253.06646  20741818.2194   20741815.6174
        53.1014
    431542.07848    324450.56643  22848308.0164   22848308.0904
     -1851.4854
    152337.33248    112142.05542  23105038.7274   23105034.3794
      -707.7914
     96007.69548     68888.18444  22542835.5634   22542831.8404
      -454.5654
  -1132034.91448   -868278.62544  22209848.1254   22209845.8444
      4594.8784
 04  9 10 14 54 45.0000000  0  7G 1G11G14G15G19G22G25
  -1175014.68047   -899968.09843  22452745.6724   22452744.1884
      4491.2654
  -1022061.28549   -782620.98044  21952859.2504   21952856.1804
      3876.6604
    -33724.86349    -29755.98846  20741695.6254   20741692.8324
        43.0264
    459437.72747    346187.37943  22853615.9924   22853616.8984
     -1859.7104
    163093.44548    120523.43842  23107085.6254   23107081.3094
      -717.0744
    102929.18048     74281.51244  22544152.8524   22544149.5554
      -461.4324
  -1200817.57848   -921875.47344  22196758.6954   22196757.2304
      4585.5114
 04  9 10 14 55  0.0000000  0  7G 1G11G14G15G19G22G25
  -1242250.78947   -952359.87143  22439951.3284   22439949.4924
      4482.4074
  -1080046.20349   -827804.04345  21941825.0234   21941822.2464
      3865.6614
    -34221.42249    -30142.93746  20741601.0554   20741598.0634
        33.1044
    487454.37148    368018.46943  22858948.7274   22858948.1524
     -1867.7764
    173986.32447    129011.39542  23109157.8674   23109154.6094
      -726.1924
    109951.66048     79753.53944  22545488.8914   22545485.8054
      -468.1654
  -1269461.49248   -975364.23044  22183696.1884   22183694.6174
      4576.2614
 04  9 10 14 55 15.0000000  0  7G 1G11G14G15G19G22G25
  -1309353.71148  -1004647.85543  22427181.9144   22427180.8914
      4473.5284
  -1137866.03549   -872858.47744  21930822.3834   21930819.3324
      3854.6554
    -34569.18449    -30413.94546  20741535.5084   20741532.3524
        23.1844
    515591.92648    389943.78143  22864302.9304   22864302.1414
     -1875.8374
    185015.78947    137605.74642  23111256.8524   23111252.6484
      -735.2984
    117075.30148     85304.39544  22546844.7194   22546841.6564
      -474.9094
  -1337965.99648  -1028744.35544  22170660.0004   22170658.5474
      4566.9674
 04  9 10 14 55 30.0000000  0  7G 1G11G14G15G19G22G25
  -1376327.30148  -1056835.08244  22414438.1024   22414436.5314
      4464.9064
  -1195524.16849   -917786.91045  21919850.4384   21919847.6024
      3843.8764
    -34772.47349    -30572.37546  20741496.3054   20741493.0784
        13.5534
    543846.12948    411959.98843  22869679.3444   22869678.5944
     -1883.6144
    196177.30947    146303.03542  23113380.6804   23113376.9384
      -744.1014
    124295.98848     90930.86344  22548218.8834   22548215.2624
      -481.3794
  -1406334.95748  -1082018.84844  22157650.1174   22157648.0864
      4557.9314
 04  9 10 14 55 45.0000000  0  7G 1G11G14G15G19G22G25
  -1443176.30148  -1108925.21144  22401716.4694   22401715.5744
      4456.6004
  -1253025.10249   -962592.85244  21908908.4384   21908905.4964
      3833.3964
    -34836.24249    -30622.07846  20741484.6954   20741480.9804
         4.2514
    572211.95748    434063.18043  22875076.7274   22875077.2584
     -1891.0554
    207465.89848    155099.31343  23115529.4924   23115525.6214
      -752.5734
    131609.05548     96629.32044  22549610.5314   22549606.5784
      -487.5384
  -1474572.68048  -1135191.09844  22144665.0634   22144663.4064
      4549.1824
 04  9 10 14 56  0.0000000  0  7G 1G11G14G15G19G22G25
  -1509901.29348  -1160918.72344  22389019.2344   22389018.0204
      4448.3334
  -1310369.39149  -1007276.73044  21897996.0474   21897992.9144
      3822.9534
    -34761.45749    -30563.82446  20741498.3364   20741495.3794
        -4.9864
    600688.42248    456252.57843  22880496.4844   22880494.9384
     -1898.4314
    218880.35547    163993.66043  23117701.3134   23117697.7544
      -760.9644
    139013.63748    102399.10244  22551019.5394   22551016.2234
      -493.6394
  -1542679.71948  -1188261.50444  22131704.3204   22131703.6524
      4540.4694
 04  9 10 14 56 15.0000000  0  7G 1G11G14G15G19G22G25
  -1576503.69148  -1212816.69544  22376345.5234   22376344.2894
      4440.1604
  -1367558.34849  -1051839.57044  21887113.3754   21887110.1054
      3812.5974
    -34549.92649    -30399.02046  20741539.1484   20741535.6724
       -14.1024
    629273.72348    478526.80543  22885935.6254   22885935.3984
     -1905.6874
    230418.72348    172984.55543  23119896.7664   23119893.8364
      -769.2244
    146508.28548    108239.05944  22552445.6254   22552442.0784
      -499.6434
  -1610657.27748  -1241231.00044  22118768.5004   22118767.4654
      4531.8374
 04  9 10 14 56 30.0000000  0  7G 1G11G14G15G19G22G25
  -1642985.53148  -1264620.71144  22363693.8914   22363693.1804
      4432.1234
  -1424593.85549  -1096282.82845  21876259.9924   21876256.8594
      3802.3674
    -34203.98849    -30129.46546  20741604.6174   20741601.8054
       -23.0624
    657965.53547    500883.99643  22891394.9454   22891395.8874
     -1912.7874
    242078.59447    182070.11343  23122116.0864   23122112.5704
      -777.3254
    154090.82048    114147.48044  22553888.3754   22553884.9844
      -505.5024
  -1678507.02348  -1294100.90244  22105856.8524   22105855.2464
      4523.3164
 04  9 10 14 56 45.0000000  0  7G 1G11G14G15G19G22G25
  -1709349.70748  -1316333.06644  22351065.5474   22351064.0984
      4424.2784
  -1481478.72349  -1140608.70745  21865435.6644   21865432.2234
      3792.3244
    -33726.96949    -29757.79746  20741695.7274   20741692.5124
       -31.8014
    686760.36748    523321.47742  22896875.0164   22896874.7934
     -1919.6554
    253856.43047    191247.61343  23124357.2584   23124353.9884
      -785.1894
    161758.05548    120121.93444  22555347.8674   22555344.2194
      -511.1494
  -1746231.85548  -1346873.47744  22092969.4614   22092968.2584
      4514.9894
 04  9 10 14 57  0.0000000  0  7G 1G11G14G15G19G22G25
  -1775598.00448  -1367955.14544  22338459.5554   22338457.3284
      4416.5534
  -1538214.51249  -1184818.44545  21854639.5234   21854635.6174
      3782.3864
    -33121.06649    -29285.68446  20741810.6884   20741807.5124
       -40.3934
    715656.10248    545837.56643  22902373.7814   22902373.5204
     -1926.3824
    265750.01647    200515.32843  23126620.5164   23126616.8244
      -792.9064
    169508.17248    126160.92244  22556822.4534   22556818.7344
      -516.6744
  -1813833.27748  -1399549.90244  22080105.5314   22080104.8954
      4506.7614
 04  9 10 14 57 14.9990000  0  7G 1G11G14G15G19G22G25
  -1841728.66048  -1419485.52344  22325874.7694   22325873.4174
      4408.7104
  -1594799.95349  -1228911.00445  21843871.4094   21843867.6364
      3772.3634
    -32389.31249    -28715.50446  20741949.9724   20741947.1084
       -48.7844
    744647.83648    568428.49243  22907891.4874   22907890.2844
     -1932.7824
    277755.56348    209870.28943  23128904.7694   23128902.1324
      -800.3704
    177337.99648    132262.05144  22558312.8704   22558309.1444
      -521.9884
  -1881309.06248  -1452128.41444  22067264.8154   22067263.7414
      4498.3864
 04  9 10 14 57 29.9990000  0  7G 1G11G14G15G19G22G25
  -1907751.84448  -1470932.16044  22313310.4484   22313309.2184
      4401.5464
  -1651243.83649  -1272893.25444  21833129.8474   21833126.2884
      3762.9264
    -31533.27749    -28048.48846  20742113.2924   20742110.0424
       -57.0694
    773737.65248    591095.82443  22913426.2144   22913426.7844
     -1939.3214
    289872.67647    219312.13343  23131210.5734   23131207.7144
      -807.8084
    185246.99648    138424.86344  22559817.7844   22559814.0894
      -527.2674
  -1948669.46148  -1504617.00844  22054446.3864   22054445.2184
      4490.6934
 04  9 10 14 57 44.9990000  0  7G 1G11G14G15G19G22G25
  -1973662.78148  -1522291.34443  22300768.5424   22300766.8274
      4394.0634
  -1707541.94949  -1316761.93044  21822416.7694   21822413.2964
      3753.2084
    -30553.11749    -27284.74646  20742299.4874   20742296.6634
       -65.3444
    802923.45748    613837.96143  22918980.6364   22918980.2764
     -1945.7204
    302100.35947    228840.14843  23133537.8154   23133534.2654
      -815.1794
    193234.76248    144649.05544  22561337.2454   22561334.1904
      -532.5184
  -2015909.51248  -1557011.82044  22041651.5344   22041650.3084
      4482.6704
 04  9 10 14 57 59.9990000  0  7G 1G11G14G15G19G22G25
  -2039462.60948  -1573563.94144  22288247.5264   22288246.4254
      4386.6554
  -1763695.16449  -1360517.68445  21811731.3554   21811728.1054
      3743.5484
    -29450.10249    -26425.27046  20742509.2454   20742506.5934
       -73.5344
    832203.85948    636653.81343  22924552.2304   22924552.0464
     -1952.0274
    314437.11348    238453.17244  23135885.6984   23135882.6284
      -822.4504
    201300.29348    150933.82844  22562871.7064   22562869.0584
      -537.7024
  -2083030.01248  -1609313.49244  22028878.7924   22028878.0344
      4474.7004
 04  9 10 14 58 14.9990000  0  7G 1G11G14G15G19G22G25
  -2105154.35248  -1624752.32044  22275746.5894   22275745.8394
      4379.4494
  -1819706.44149  -1404162.85944  21801072.7924   21801069.3624
      3734.0854
    -28227.74249    -25472.80146  20742741.6594   20742739.2574
       -81.4914
    861575.48448    659540.74643  22930141.3394   22930140.9724
     -1958.1084
    326879.39548    248148.44944  23138253.4014   23138249.9014
      -829.4854
    209440.23848    157276.60244  22564421.2614   22564418.5774
      -542.6634
  -2150033.82848  -1661524.23444  22016127.8704   22016126.6904
      4466.9214
 04  9 10 14 58 29.9990000  0  7G 1G11G14G15G19G22G25
  -2170739.13748  -1675857.33644  22263265.7304   22263264.6324
      4372.3194
  -1875576.66049  -1447698.10545  21790441.2304   21790437.3624
      3724.6814
    -26887.38349    -24428.38746  20742997.0734   20742994.7304
       -89.3574
    891036.93048    682497.68442  22935747.9724   22935747.8864
     -1964.0964
    339425.69948    257924.76644  23140640.6444   23140637.9524
      -836.4204
    217653.49248    163676.49244  22565984.2534   22565980.8314
      -547.5504
  -2216921.73848  -1713644.67244  22003400.1364   22003398.0934
      4459.1944
 04  9 10 14 58 44.9990000  0  7G 1G11G14G15G19G22G25
  -2236216.73448  -1726878.84444  22250806.0504   22250804.6714
      4365.1734
  -1931305.55149  -1491123.24245  21779836.3394   21779832.8004
      3715.2594
    -25429.36349    -23292.29346  20743274.4804   20743271.6754
       -97.2014
    920587.94548    705524.39543  22941370.9644   22941371.5304
     -1970.0684
    352075.65648    267781.83644  23143048.0424   23143045.1014
      -843.3304
    225940.04748    170133.51644  22567561.5424   22567558.0584
      -552.4374
  -2283693.46548  -1765674.58244  21990694.0194   21990691.7764
      4451.4484
 04  9 10 14 58 59.9990000  0  7G 1G11G14G15G19G22G25
  -2301589.22349  -1777818.44944  22238366.7694   22238364.9374
      4358.1664
  -1986894.99249  -1534439.69545  21769257.8084   21769254.8704
      3705.9634
    -23856.11349    -22066.40246  20743573.8624   20743571.3514
      -104.8834
    950226.06348    728618.96942  22947011.3704   22947011.2924
     -1975.8744
    364826.73048    277717.71144  23145474.3084   23145471.2694
      -850.0724
    234297.77349    176645.98844  22569152.1284   22569148.4174
      -557.1824
  -2350350.89848  -1817615.42244  21978009.2064   21978007.8664
      4443.8294
 04  9 10 14 59 14.9990000  0  7G 1G11G14G15G19G22G25
  -2366857.91848  -1828677.18044  22225946.2064   22225945.1204
      4351.2464
  -2042346.19949  -1577648.43745  21758706.0034   21758702.4524
      3696.7474
    -22169.16049    -20751.91046  20743894.9724   20743892.1284
      -112.4644
    979949.61747    751780.12142  22952667.3624   22952667.0464
     -1981.5704
    377677.21148    287731.02344  23147919.8554   23147916.9374
      -856.6994
    242725.21948    183212.78944  22570755.5034   22570752.6474
      -561.8304
  -2416895.02748  -1869467.95344  21965346.2844   21965344.3624
      4436.2754
 04  9 10 14 59 29.9990000  0  7G 1G11G14G15G19G22G25
  -2432022.80148  -1879455.00044  22213545.5814   22213544.2264
      4344.3264
  -2097658.96549  -1620749.30545  21748180.2374   21748176.8704
      3687.5184
    -20368.89549    -19349.12946  20744237.7374   20744234.6054
      -120.0184
   1009758.18847    775007.52742  22958339.7144   22958339.9444
     -1987.2384
    390626.57048    297821.40243  23150384.1054   23150380.7454
      -863.2914
    251222.18848    189833.75044  22572372.9094   22572369.4484
      -566.4654
  -2483325.62548  -1921232.04744  21952705.2694   21952703.4374
      4428.7074
 04  9 10 14 59 44.9990000  0  7G 1G11G14G15G19G22G25
  -2497082.42648  -1930150.82044  22201165.3474   22201163.5114
      4337.3084
  -2152831.67649  -1663741.04344  21737681.3704   21737677.7184
      3678.1814
    -18454.25049    -17857.21946  20744601.9174   20744598.8354
      -127.6434
   1039652.80947    798301.99243  22964028.4404   22964028.2964
     -1992.9754
    403675.66448    307989.48044  23152866.5894   23152863.5384
      -869.9404
    259790.10949    196510.00044  22574003.3394   22574000.1984
      -571.1954
  -2549641.10948  -1972906.43044  21940085.4334   21940083.8664
      4421.0324
 04  9 10 14 59 59.9990000  0  7G 1G11G14G15G19G22G25
  -2562040.96148  -1980767.84043  22188802.9954   22188802.1754
      4330.5694
  -2207868.28149  -1706626.69145  21727208.2064   21727204.9404
      3669.1074
    -16429.70349    -16279.66846  20744986.9334   20744984.5034
      -134.9704
   1069629.07047    821660.05942  22969733.2614   22969733.1754
     -1998.4174
    416819.86348    318231.71143  23155368.7764   23155364.8664
      -876.2804
    268424.69148    203238.20744  22575646.4014   22575643.1244
      -575.6394
  -2615845.19548  -2024494.00444  21927487.2304   21927485.3584
      4413.6064
 04  9 10 15  0 14.9990000  0  7G 1G11G14G15G19G22G25
  -2626898.84048  -2031306.42643  22176460.9404   22176460.0114
      4323.8594
  -2262769.26649  -1749406.68444  21716760.8944   21716757.0304
      3660.0664
    -14296.10249    -14617.13746  20745393.3864   20745390.3704
      -142.2404
   1099686.03547    845081.04742  22975452.7144   22975452.6244
     -2003.7984
    430058.23048    328547.29343  23157887.6594   23157883.9214
      -882.5584
    277125.30148    210017.88344  22577302.3624   22577298.7494
      -580.0414
  -2681938.35948  -2075995.14544  21914910.5504   21914908.5734
      4406.2114
 04  9 10 15  0 29.9990000  0  7G 1G11G14G15G19G22G25
  -2691655.88748  -2081766.46144  22164138.1364   22164137.0304
      4317.1364
  -2317534.21149  -1792080.69544  21706339.1124   21706335.0544
      3650.9964
    -12053.52049    -12869.69146  20745819.8944   20745817.4604
      -149.5054
   1129823.51647    868564.73442  22981188.0654   22981188.1364
     -2009.1654
    443390.50848    338936.04743  23160425.2764   23160421.4374
      -888.8184
    285892.00848    216849.02044  22578970.0344   22578967.1324
      -584.4474
  -2747920.09048  -2127409.45345  21902354.3864   21902352.7534
      4398.7824
 04  9 10 15  0 44.9990000  0  7G 1G11G14G15G19G22G25
  -2756312.87548  -2132148.56244  22151835.4254   22151832.7104
      4310.4664
  -2372163.72349  -1834649.16445  21695943.8554   21695940.3554
      3641.9674
     -9703.20349    -11038.30146  20746267.2764   20746264.2224
      -156.6884
   1160040.40248    892110.29743  22986938.1834   22986938.5114
     -2014.4594
    456815.38748    349396.96543  23162979.4014   23162976.5694
      -894.9924
    294723.89148    223730.97344  22580650.9874   22580648.0894
      -588.7924
  -2813791.10248  -2178737.49245  21889819.5894   21889817.4764
      4391.4014
 04  9 10 15  0 59.9990000  0  7G 1G11G14G15G19G22G25
  -2820871.10248  -2182453.66844  22139550.1674   22139548.8904
      4303.8824
  -2426659.00449  -1877113.03145  21685574.0734   21685570.6834
      3633.0194
     -7246.72749     -9124.18046  20746734.9334   20746731.4644
      -163.7654
   1190334.98047    915716.40243  22992702.6284   22992703.4254
     -2019.6394
    470331.19948    359928.75843  23165550.8394   23165547.5464
      -901.0544
    303619.74648    230662.78944  22582343.7374   22582340.7804
      -593.0574
  -2879552.42648  -2229980.06644  21877305.3864   21877303.6474
      4384.0884
 04  9 10 15  1 14.9990000  0  7G 1G11G14G15G19G22G25
  -2885331.77349  -2232682.74644  22127284.0194   22127282.8474
      4297.3784
  -2481021.19549  -1919473.18445  21675228.3704   21675226.3474
      3624.1464
     -4685.63349     -7128.53546  20747222.2694   20747218.9604
      -170.7404
   1220705.70347    939381.85942  22998481.8084   22998482.5264
     -2024.7154
    483936.23448    370530.03943  23168140.5974   23168137.0934
      -907.0024
    312577.98848    237643.19944  22584048.3234   22584045.8864
      -597.2164
  -2945205.04748  -2281137.93044  21864812.4014   21864810.6634
      4376.8414
 04  9 10 15  1 29.9990000  0  7G 1G11G14G15G19G22G25
  -2949693.86348  -2282835.03144  22115035.6364   22115034.8004
      4290.8064
  -2535249.05149  -1961728.63745  21664909.5654   21664907.2264
      3615.1904
     -2019.32449     -5050.91046  20747729.4954   20747726.6284
      -177.7544
   1251153.33647    963107.21942  23004275.9804   23004276.8124
     -2029.8424
    497630.96148    381201.24243  23170746.1834   23170743.4834
      -912.9824
    321599.58248    244672.96944  22585764.7374   22585762.0734
      -601.4404
  -3010747.65648  -2332210.06644  21852339.9804   21852338.6474
      4369.5074
 04  9 10 15  1 44.9990000  0  7G 1G11G14G15G19G22G25
  -3013958.80948  -2332911.60944  22102806.3864   22102805.7414
      4284.3304
  -2589343.76649  -2003880.37945  21654615.8704   21654612.9724
      3606.3144
       750.46949     -2892.65246  20748256.3784   20748253.6124
      -184.6534
   1281675.86347    986890.95742  23010084.5424   23010084.8354
     -2034.8354
    511413.43448    391940.78543  23173369.2304   23173365.8474
      -918.8324
    330682.91048    251750.83244  22587493.6904   22587490.5504
      -605.5554
  -3076181.53548  -2383197.48045  21839888.4874   21839887.0114
      4362.2594
 04  9 10 15  1 59.9990000  0  7G 1G11G14G15G19G22G25
  -3078126.29748  -2382912.24644  22090596.0504   22090595.4134
      4277.8334
  -2643304.93449  -2045928.06245  21644347.5034   21644344.3864
      3597.4114
      3623.73849      -653.74646  20748803.1674   20748800.4834
      -191.5514
   1312273.36748   1010733.11342  23015907.1674   23015907.1084
     -2039.8344
    525283.62948    402748.69543  23176008.4874   23176005.4094
      -924.6804
    339828.37948    258877.12944  22589234.1364   22589230.4334
      -609.6984
  -3141506.21548  -2434099.81645  21827457.0734   21827455.2104
      4354.9794
 04  9 10 15  2 14.9990000  0  7G 1G11G14G15G19G22G25
  -3142198.79748  -2432838.85244  22078403.1594   22078402.9374
      4271.5004
  -2697135.03549  -2087873.60945  21634103.8474   21634100.5194
      3588.6734
      6597.62949      1663.55146  20749369.2064   20749366.3554
      -198.2594
   1342942.89148   1034631.39542  23021743.7304   23021743.7534
     -2044.6354
    539238.54748    413622.64143  23178664.1054   23178660.8704
      -930.3284
    349033.28148    266049.74244  22590986.1204   22590982.2224
      -613.6604
  -3206723.90648  -2484918.77744  21815047.2144   21815044.9174
      4347.8464
 04  9 10 15  2 29.9990000  0  7G 1G11G14G15G19G22G25
  -3206175.20748  -2482690.58244  22066228.8004   22066228.3084
      4265.0944
  -2750832.64549  -2129715.91845  21623885.5814   21623882.0894
      3579.8414
      9672.94149      4059.87546  20749954.3004   20749951.9914
      -205.0214
   1373685.31647   1058586.45742  23027593.4644   23027593.2884
     -2049.4954
    553278.77748    424563.05543  23181336.2614   23181332.7454
      -936.0154
    358298.68448    273269.48444  22592749.0194   22592745.8434
      -617.6934
  -3271833.22348  -2535653.28945  21802656.8234   21802655.5774
      4340.6214
 04  9 10 15  2 44.9990000  0  7G 1G11G14G15G19G22G25
  -3270056.07048  -2532467.87144  22054072.8314   22054071.4914
      4258.7244
  -2804398.16049  -2171455.30145  21613692.0814   21613689.3744
      3571.0344
     12848.72749      6534.49646  20750558.8474   20750556.0264
      -211.7194
   1404499.60947   1082597.57442  23033457.5654   23033456.6084
     -2054.2864
    567403.22748    435569.11743  23184024.2764   23184019.9804
      -941.6304
    367623.85548    280535.80144  22594523.1594   22594519.8194
      -621.6784
  -3336834.38748  -2586303.52345  21790287.2844   21790286.0654
      4333.4114
 04  9 10 15  2 59.9990000  0  7G 1G11G14G15G19G22G25
  -3333842.52048  -2582171.58244  22041934.5344   22041933.4914
      4252.4304
  -2857832.53949  -2213092.47345  21603524.3554   21603521.4484
      3562.2924
     16123.53549      9086.27746  20751181.7764   20751179.5464
      -218.3214
   1435384.33247   1106663.52743  23039334.6674   23039334.7534
     -2058.9824
    581610.40248    446639.61743  23186727.3944   23186723.1404
      -947.1454
    377007.54748    287847.71543  22596308.8864   22596305.4334
      -625.5794
  -3401728.33248  -2636870.23045  21777938.6754   21777937.1014
      4326.2634
 04  9 10 15  3 14.9990000  0  7G 1G11G14G15G19G22G25
  -3397536.28548  -2631803.08644  22029814.0424   22029812.4564
      4246.2514
  -2911137.49249  -2254628.80545  21593380.6514   21593377.4954
      3553.6644
     19495.27349     11713.58246  20751823.5114   20751821.3824
      -224.7834
   1466337.27047   1130782.64542  23045224.0894   23045224.9174
     -2063.5294
    595898.01248    457772.79343  23189446.4484   23189442.8624
      -952.5074
    386447.95748    295203.83244  22598105.5114   22598101.9764
      -629.3614
  -3466516.80948  -2687354.74244  21765609.7064   21765608.2494
      4319.2324
 04  9 10 15  3 29.9990000  0  7G 1G11G14G15G19G22G25
  -3461136.15248  -2681361.44944  22017711.4254   22017709.8824
      4239.9914
  -2964311.69149  -2296063.25845  21583262.0344   21583259.0114
      3544.9474
     22964.75049     14417.05946  20752483.8944   20752481.3084
      -231.2984
   1497359.31647   1154955.59042  23051128.2304   23051128.1754
     -2068.1364
    610266.80547    468969.20743  23192180.4094   23192177.9564
      -957.9204
    395946.13348    302604.96944  22599913.1444   22599909.3664
      -633.2124
  -3531198.35548  -2737755.91044  21753301.2764   21753299.4684
      4312.1034
 04  9 10 15  3 44.9990000  0  7G 1G11G14G15G19G22G25
  -3524641.99248  -2730846.54344  22005626.8864   22005624.9954
      4233.7234
  -3017354.74649  -2337395.51645  21573168.1364   21573164.9804
      3536.2044
     26531.89849     17196.64146  20753162.5504   20753160.0504
      -237.8104
   1528450.10547   1179182.14842  23057044.3084   23057044.5774
     -2072.7194
    624716.34448    480228.56343  23194930.3554   23194926.8824
      -963.3034
    405502.20348    310051.20344  22601731.6834   22601727.7064
      -637.0714
  -3595772.61749  -2788073.51245  21741013.0424   21741011.4524
      4304.9514
 04  9 10 15  3 59.9990000  0  7G 1G11G14G15G19G22G25
  -3588054.78548  -2780259.11344  21993559.3944   21993558.5734
      4227.5204
  -3070267.53549  -2378626.26645  21563098.8944   21563095.5624
      3527.5194
     30195.28949     20051.19546  20753860.0264   20753857.3394
      -244.2264
   1559608.46948   1203461.30942  23062974.1054   23062974.5384
     -2077.2244
    639245.20748    491549.72343  23197695.1674   23197691.5654
      -968.5914
    415115.01248    317541.67244  22603560.5264   22603557.0854
      -640.8544
  -3660240.23448  -2838308.01245  21728745.3084   21728743.8624
      4297.8414
 04  9 10 15  4 14.9990000  0  7G 1G11G14G15G19G22G25
  -3651375.03548  -2829599.56644  21981510.4954   21981509.6164
      4221.3504
  -3123050.51249  -2419755.86744  21553054.1124   21553051.1874
      3518.8654
     33954.11749     22980.14146  20754575.1594   20754572.5584
      -250.5894
   1590833.45748   1227792.44143  23068915.2304   23068916.1204
     -2081.6664
    653852.45748    502931.98443  23200474.7454   23200471.1674
      -973.8174
    424783.82848    325075.78144  22605400.7064   22605397.0424
      -644.5884
  -3724601.60249  -2888459.70345  21716497.8554   21716496.7184
      4290.7584
 04  9 10 15  4 29.9990000  0  7G 1G11G14G15G19G22G25
  -3714601.90648  -2878867.24244  21969478.0584   21969477.4404
      4215.1254
  -3175702.69149  -2460783.55944  21543035.0344   21543031.5034
      3510.1454
     37808.82049     25983.79746  20755308.5814   20755305.9094
      -256.9804
   1622125.46148   1252175.75043  23074870.8554   23074871.6634
     -2086.1344
    668538.37547    514375.53143  23203268.8704   23203266.3554
      -979.0614
    434509.35548    332654.05144  22607251.8474   22607248.0304
      -648.3684
  -3788855.82048  -2938527.90645  21704270.6284   21704268.8664
      4283.6154
 04  9 10 15  4 44.9990000  0  7G 1G11G14G15G19G22G25
  -3777736.94548  -2928063.33244  21957463.7924   21957464.0894
      4209.0034
  -3228225.27749  -2501710.26645  21533040.9484   21533036.8474
      3501.5064
     41757.63749     29060.77746  20756059.9644   20756057.5154
      -263.2544
   1653482.62948   1276609.87142  23080837.5504   23080837.5154
     -2090.4784
    683301.03147    525878.87943  23206078.0344   23206074.7654
      -984.1774
    444290.07848    340275.34844  22609112.2064   22609110.3474
      -652.0484
  -3853003.99248  -2988513.48845  21692063.4484   21692061.8744
      4276.5454
 04  9 10 15  4 59.9990000  0  7G 1G11G14G15G19G22G25
  -3840779.23449  -2977187.19544  21945468.1204   21945467.2064
      4202.8194
  -3280617.39549  -2542535.31245  21523071.2694   21523067.6754
      3492.8084
     45800.95349     32211.39146  20756829.2764   20756826.7694
      -269.5544
   1684905.50447   1301095.16842  23086816.9804   23086817.8514
     -2094.8584
    698140.77047    537442.27043  23208902.6904   23208898.9374
      -989.3164
    454126.77048    347940.24244  22610984.8474   22610981.5154
      -655.7794
  -3917045.14849  -3038415.68445  21679876.3314   21679876.0194
      4269.4104
 04  9 10 15  5 14.9990000  0  7G 1G11G14G15G19G22G25
  -3903731.37949  -3026240.83644  21933488.8554   21933487.3784
      4196.8104
  -3332881.48849  -2583260.59445  21513124.9564   21513122.1444
      3484.2734
     49935.92249     35433.42646  20757616.4254   20757613.9804
      -275.6654
   1716391.15247   1325629.40642  23092807.9724   23092808.6984
     -2099.0434
    713054.55947    549063.36743  23211740.4804   23211737.4134
      -994.2534
    464016.65648    355646.61344  22612866.7924   22612863.1874
      -659.3264
  -3980981.69949  -3088236.34845  21667709.6514   21667708.9874
      4262.4374
 04  9 10 15  5 29.9990000  0  7G 1G11G14G15G19G22G25
  -3966591.25448  -3075222.55544  21921526.6054   21921525.5464
      4190.6584
  -3385015.39149  -2623884.42245  21503204.4404   21503200.9014
      3475.5934
     54164.28149     38728.23046  20758421.0194   20758418.3824
      -281.8914
   1747941.27047   1350213.84842  23098813.0654   23098812.9214
     -2103.3414
    728044.10548    560743.51243  23214592.7844   23214589.5624
      -999.3034
    473961.80948    363396.04344  22614759.2614   22614756.2694
      -663.0104
  -4044811.17649  -3137973.60545  21655563.6674   21655562.1834
      4255.2984
 04  9 10 15  5 44.9990000  0  7G 1G11G14G15G19G22G25
  -4029361.07048  -3124134.07844  21909582.0734   21909580.8554
      4184.6544
  -3437021.06649  -2664408.33245  21493307.9644   21493305.3744
      3467.0454
     58483.47349     42093.81646  20759243.1124   20759240.1984
      -287.9464
   1779553.25047   1374846.52042  23104827.7534   23104828.3004
     -2107.4654
    743106.59047    572480.46942  23217459.6054   23217455.5544
     -1004.1664
    483959.88348    371186.70344  22616662.1444   22616658.8824
      -666.5384
  -4108535.69949  -3187629.05144  21643437.3704   21643435.9214
      4248.3024
 04  9 10 15  5 59.9990000  0  7G 1G11G14G15G19G22G25
  -4092040.74248  -3172975.37544  21897654.3234   21897653.1674
      4178.6454
  -3488898.27349  -2704832.14845  21483436.1674   21483433.3514
      3458.4804
     62893.18449     45529.94546  20760082.4564   20760079.4564
      -293.9814
   1811226.77347   1399527.14142  23110856.0504   23110856.0304
     -2111.5684
    758241.64548    584273.98442  23220339.3154   23220335.8234
     -1009.0044
    494010.78548    379018.54744  22618574.4724   22618571.0694
      -670.0604
  -4172154.87148  -3237202.41445  21631330.9014   21631329.5464
      4241.2784
 04  9 10 15  6 14.9990000  0  7G 1G11G14G15G19G22G25
  -4154630.49648  -3221746.60244  21885743.6444   21885742.5734
      4172.6504
  -3540647.06249  -2745155.86345  21473588.7534   21473585.8314
      3449.9194
     67392.93449     49036.21946  20760938.3474   20760935.3274
      -299.9834
   1842961.25447   1424255.25042  23116894.1204   23116896.1474
     -2115.6324
    773448.62147    596123.54343  23223232.9404   23223229.8904
     -1013.7984
    504114.23849    386891.32444  22620497.0194   22620493.1054
      -673.5644
  -4235668.61748  -3286693.64545  21619244.4564   21619243.1944
      4234.2504
 04  9 10 15  6 29.9990000  0  7G 1G11G14G15G19G22G25
  -4217131.68748  -3270448.82844  21873850.3474   21873849.3354
      4166.7464
  -3592268.59049  -2785380.43745  21463765.3314   21463761.1204
      3441.4354
     71981.07449     52611.37546  20761811.5584   20761808.5654
      -305.8764
   1874755.00847   1449029.53142  23122944.3864   23122945.5384
     -2119.5844
    788725.66447    608027.70743  23226140.1594   23226136.7144
     -1018.4704
    514268.78548    394803.90244  22622429.2224   22622426.4564
      -676.9704
  -4299078.15649  -3336103.66045  21607178.1904   21607176.8194
      4227.3034
 04  9 10 15  6 44.9990000  0  7G 1G11G14G15G19G22G25
  -4279542.53148  -3319080.65244  21861973.7924   21861973.3044
      4160.7234
  -3643761.05949  -2825504.46945  21453966.8154   21453963.2264
      3432.8314
     76658.96949     56256.47746  20762701.5424   20762699.0624
      -311.8604
   1906609.41847   1473851.13342  23129005.8084   23129007.1204
     -2123.6274
    804073.96948    619987.38343  23229061.4334   23229057.2964
     -1023.2204
    524476.14548    402757.63744  22624371.9804   22624368.3704
      -680.4914
  -4362381.52049  -3385430.94145  21595132.1364   21595130.7964
      4220.2244
 04  9 10 15  6 59.9990000  0  7G 1G11G14G15G19G22G25
  -4341863.73049  -3367642.60944  21850114.5264   21850113.4014
      4154.7474
  -3695124.89149  -2865528.25045  21444192.8784   21444189.5424
      3424.2554
     81425.68849     59970.78546  20763608.8394   20763606.0224
      -317.7814
   1938523.51647   1498719.21942  23135078.6754   23135079.4524
     -2127.6074
    819492.56648    632001.84043  23231995.4174   23231991.5194
     -1027.9074
    534735.51248    410751.89544  22626324.4404   22626321.1474
      -683.9584
  -4425579.19549  -3434675.85945  21583106.0424   21583104.3784
      4213.1784
 04  9 10 15  7 14.9990000  0  7G 1G11G14G15G19G22G25
  -4404095.96949  -3416135.26244  21838272.2224   21838270.6904
      4148.8164
  -3746360.71549  -2905452.27045  21434443.0424   21434440.2924
      3415.7224
     86280.16849     63753.47746  20764532.6054   20764529.3314
      -323.6324
   1970496.28547   1523632.99642  23141163.1594   23141163.9524
     -2131.5184
    834980.07848    644070.00843  23234942.1754   23234939.0424
     -1032.5014
    545046.08248    418786.05944  22628286.5344   22628283.5074
      -687.3714
  -4488671.73849  -3483838.88745  21571099.7534   21571097.7224
      4206.1704
 04  9 10 15  7 29.9990000  0  7G 1G11G14G15G19G22G25
  -4466239.73849  -3464558.98844  21826447.0734   21826445.3904
      4142.9184
  -3797468.91449  -2945276.84445  21424717.2534   21424714.9874
      3407.2134
     91221.50849     67603.85546  20765472.8944   20765469.9174
      -329.4234
   2002526.72747   1548591.71942  23147258.8004   23147258.9254
     -2135.3634
    850535.71948    656191.24643  23237902.2694   23237899.5304
     -1037.0434
    555407.25448    426859.65244  22630258.0424   22630255.1324
      -690.7454
  -4551659.28149  -3532920.06245  21559113.8624   21559111.9094
      4199.1704
 04  9 10 15  7 44.9990000  0  7G 1G11G14G15G19G22G25
  -4528295.29748  -3512913.96144  21814637.8554   21814636.7654
      4137.0374
  -3848449.64549  -2985002.10545  21415016.1124   21415013.4644
      3398.7154
     96249.10549     71521.44146  20766429.5974   20766427.0384
      -335.1734
   2034614.22347   1573594.91842  23153365.7304   23153365.1594
     -2139.1664
    866158.69948    668364.97743  23240875.4724   23240872.4804
     -1041.5324
    565818.65248    434972.37144  22632239.3784   22632236.5854
      -694.0934
  -4614541.87549  -3581919.47745  21547148.0734   21547146.3664
      4192.1734
 04  9 10 15  7 59.9990000  0  7G 1G11G14G15G19G22G25
  -4590263.37149  -3561200.75444  21802845.2144   21802844.5154
      4131.2054
  -3899303.39149  -3024628.39845  21405338.8394   21405335.3864
      3390.2504
    101362.04749     75505.53546  20767402.5264   20767399.5734
      -340.8634
   2066757.59848   1598641.66442  23159482.0894   23159481.9724
     -2142.8924
    881847.83248    680590.23843  23243861.2304   23243858.3904
     -1045.9424
    576279.44148    443123.58644  22634229.2694   22634227.3824
      -697.3864
  -4677320.00849  -3630837.49245  21535201.1444   21535199.9914
      4185.2094
 04  9 10 15  8 14.9990000  0  7G 1G11G14G15G19G22G25
  -4652143.32848  -3609418.88344  21791069.6204   21791069.0624
      4125.3304
  -3950029.35249  -3064155.13745  21395686.1754   21395682.5224
      3381.7314
    106560.60249     79556.34446  20768391.8474   20768388.7414
      -346.5704
   2098957.21547   1623732.22342  23165608.8004   23165609.3824
     -2146.6414
    897603.29747    692867.20743  23246859.1754   23246856.1634
     -1050.3644
    586790.10248    451313.67244  22636229.7764   22636227.1904
      -700.7114
  -4739992.91449  -3679673.50445  21523274.6514   21523272.8194
      4178.1944
 04  9 10 15  8 29.9990000  0  7G 1G11G14G15G19G22G25
  -4713933.93448  -3657567.40644  21779311.9254   21779310.9374
      4119.3744
  -4000626.21149  -3103581.28545  21386058.4724   21386054.9644
      3373.1244
    111845.57849     83674.48846  20769397.3864   20769395.2024
      -352.3324
   2131213.87547   1648867.22342  23171746.4404   23171748.1554
     -2150.4444
    913425.81648    705196.41043  23249870.7224   23249867.6084
     -1054.8354
    597351.73848    459543.46544  22638240.1284   22638236.3744
      -704.1094
  -4802559.08649  -3728426.36345  21511369.0814   21511366.9684
      4171.0784
 04  9 10 15  8 44.9990000  0  7G 1G11G14G15G19G22G25
  -4775635.71549  -3705646.72344  21767570.4404   21767569.1984
      4113.4524
  -4051094.52049  -3142907.24645  21376454.3084   21376451.2264
      3364.5544
    117216.15249     87859.32046  20770419.4094   20770416.8584
      -358.0384
   2163526.67247   1674045.99642  23177896.2144   23177896.5034
     -2154.1864
    929314.35247    717577.03943  23252893.8154   23252890.6594
     -1059.2364
    607963.82048    467812.55943  22640259.0894   22640256.3474
      -707.4724
  -4865019.00049  -3777096.41445  21499482.8944   21499481.2654
      4163.9944
 04  9 10 15  8 59.9990000  0  7G 1G11G14G15G19G22G25
  -4837250.55149  -3753658.27744  21755845.8944   21755844.1474
      4107.6564
  -4101435.79349  -3182134.21545  21366874.0344   21366871.3234
      3356.0854
    122670.10949     92109.14146  20771457.3474   20771454.5464
      -363.5974
   2195893.39848   1699266.75842  23184055.5264   23184055.4254
     -2157.7824
    945266.50847    730007.27743  23255929.0194   23255925.7964
     -1063.4774
    618624.38348    476119.44144  22642287.8314   22642284.8704
      -710.7044
  -4927374.28149  -3825684.94945  21487617.5504   21487615.9134
      4157.0194
 04  9 10 15  9 14.9990000  0  7G 1G11G14G15G19G22G25
  -4898778.30549  -3801601.98444  21744137.4254   21744135.8124
      4101.8504
  -4151649.81649  -3221262.03545  21357318.7454   21357315.5584
      3347.6024
    128207.22749     96423.76646  20772511.4334   20772508.5624
      -369.1414
   2228313.81647   1724529.37542  23190224.8624   23190224.3824
     -2161.3614
    961281.99647    742486.84843  23258976.7534   23258973.5384
     -1067.6994
    629333.32848    484464.02044  22644326.3004   22644322.6124
      -713.9304
  -4989624.71949  -3874191.75845  21475771.8314   21475770.3864
      4150.0294
 04  9 10 15  9 29.9990000  0  7G 1G11G14G15G19G22G25
  -4960217.84849  -3849476.96544  21732445.9484   21732444.0814
      4095.9704
  -4201735.28149  -3260289.68045  21347787.9804   21347784.7064
      3339.0314
    133828.41049    100803.88746  20773580.5734   20773578.0584
      -374.7464
   2260788.80147   1749834.48842  23196404.5894   23196404.8904
     -2164.9994
    977361.55547    755016.33643  23262037.2454   23262034.1364
     -1071.9714
    640091.83248    492847.23444  22646373.5814   22646369.6904
      -717.2344
  -5051768.77349  -3922615.68045  21463946.0974   21463944.4524
      4142.9374
 04  9 10 15  9 44.9990000  0  7G 1G11G14G15G19G22G25
  -5021569.39849  -3897283.36744  21720771.2064   21720769.2964
      4090.1034
  -4251692.46149  -3299217.35945  21338281.3004   21338278.2144
      3330.4794
    139532.93049    105248.94546  20774666.4094   20774663.4644
      -380.3014
   2293317.62147   1775181.58242  23202595.1204   23202595.0034
     -2168.5884
    993504.40247    767595.15643  23265108.8004   23265105.7024
     -1076.1904
    650899.43048    501268.69544  22648429.7764   22648426.7494
      -720.5074
  -5113806.51649  -3970956.77045  21452140.6834   21452138.9684
      4135.8494
 04  9 10 15  9 59.9990000  0  7G 1G11G14G15G19G22G25
  -5082833.33648  -3945021.48444  21709112.7374   21709111.4444
      4084.2624
  -4301521.47749  -3338045.18745  21328799.6754   21328796.0544
      3321.9344
    145320.09449    109758.40246  20775767.6054   20775764.7804
      -385.8114
   2325899.59448   1800570.07042  23208795.4334   23208795.4914
     -2172.1324
   1009709.69147    780222.62542  23268192.3474   23268188.6474
     -1080.3534
    661755.68448    509728.05944  22650495.9014   22650492.9524
      -723.7504
  -5175738.23049  -4019215.23845  21440355.5654   21440353.3474
      4128.7814
 04  9 10 15 10 14.9990000  0  7G 1G11G14G15G19G22G25
  -5144010.58248  -3992692.05544  21697470.8084   21697469.8944
      4078.4834
  -4351223.04349  -3376773.70745  21319341.7454   21319338.4564
      3313.4384
    151188.74249    114331.36346  20776884.7764   20776881.7144
      -391.2434
   2358533.40247   1825998.96542  23215005.0504   23215005.8234
     -2175.5874
   1025975.98847    792897.66043  23271287.6984   23271285.0114
     -1084.4204
    672659.63748    518224.61344  22652571.0424   22652567.2884
      -726.9304
  -5237564.44549  -4067391.49245  21428590.3394   21428588.4374
      4121.7484
 04  9 10 15 10 29.9990000  0  7G 1G11G14G15G19G22G25
  -5205099.86348  -4040294.07444  21685846.0654   21685845.2414
      4072.6194
  -4400795.80149  -3415401.82045  21309908.0504   21309905.3904
      3304.8514
    157139.90649    118968.59846  20778016.7694   20778014.7374
      -396.7444
   2391219.96147   1851468.96942  23221224.7844   23221225.0894
     -2179.1044
   1042304.29347    805620.96542  23274395.0034   23274391.8584
     -1088.5544
    683612.46947    526759.25044  22654655.0814   22654652.3974
      -730.1894
  -5299283.80949  -4115484.49645  21416845.1204   21416843.7414
      4114.6244
 04  9 10 15 10 44.9990000  0  7G 1G11G14G15G19G22G25
  -5266102.64148  -4087828.70744  21674237.6204   21674236.9954
      4066.8524
  -4450241.08249  -3453930.61745  21300498.9954   21300495.8474
      3296.3524
    163171.70349    123668.68846  20779165.0584   20779162.1404
      -402.1204
   2423957.53547   1876978.73042  23227454.9014   23227455.5894
     -2182.5054
   1058692.65647    818391.06642  23277513.1984   23277509.8974
     -1092.5584
    694612.69548    535330.81344  22656748.7694   22656745.9334
      -733.3484
  -5360897.52349  -4163495.16045  21405120.5734   21405118.8314
      4107.5814
 04  9 10 15 10 59.9990000  0  7G 1G11G14G15G19G22G25
  -5327018.58248  -4135295.66044  21662645.9874   21662644.9994
      4061.0634
  -4499558.33249  -3492359.64545  21291114.1514   21291111.3904
      3287.8174
    169284.18049    128431.63746  20780328.0344   20780325.5224
      -407.4984
   2456746.12547   1902528.25442  23233694.5264   23233694.8664
     -2185.9064
   1075140.71147    831207.68843  23280644.3784   23280641.1794
     -1096.5374
    705660.44148    543939.40244  22658850.9484   22658848.2494
      -736.5164
  -5422404.93449  -4211423.00045  21393416.7614   21393414.9954
      4100.4944
 04  9 10 15 11 14.9990000  0  7G 1G11G14G15G19G22G25
  -5387847.37149  -4182694.69544  21651070.4724   21651069.9804
      4055.2534
  -4548747.11749  -3530688.55945  21281753.7304   21281750.3624
      3279.2524
    175477.37949    133257.48446  20781506.3624   20781503.9764
      -412.8804
   2489585.70747   1928117.48442  23239943.1284   23239943.8084
     -2189.3054
   1091648.46147    844070.86743  23283785.5194   23283782.9804
     -1100.5174
    716755.95748    552585.21944  22660962.2924   22660958.6754
      -739.7014
  -5483805.45749  -4259267.54745  21381732.0814   21381730.1834
      4093.3684
 04  9 10 15 11 29.9990000  0  7G 1G11G14G15G19G22G25
  -5448589.93448  -4230026.57444  21639511.6594   21639509.9564
      4049.5044
  -4597808.26649  -3568918.05945  21272418.0344   21272413.6834
      3270.7434
    181749.92249    138145.16446  20782700.5034   20782697.4294
      -418.1704
   2522474.85547   1953745.33642  23246202.3314   23246203.4214
     -2192.6104
   1108214.47347    856979.41042  23286938.3084   23286934.3974
     -1104.4014
    727898.11748    561267.37943  22663082.7374   22663078.7144
      -742.8114
  -5545099.98048  -4307029.49645  21370068.1834   21370066.8084
      4086.3024
 04  9 10 15 11 44.9990000  0  7G 1G11G14G15G19G22G25
  -5509246.13347  -4277291.17244  21627969.3314   21627967.6204
      4043.7474
  -4646741.48849  -3607047.86345  21263106.0654   21263103.5384
      3262.2154
    188101.69549    143094.57046  20783908.9014   20783905.7694
      -423.4524
   2555413.41447   1979411.68042  23252469.8784   23252470.8864
     -2195.9044
   1124838.33247    869933.03542  23290101.1444   23290096.6474
     -1108.2574
    739087.05148    569985.95344  22665211.9644   22665208.6794
      -745.9294
  -5606288.14848  -4354708.57445  21358424.1364   21358423.2454
      4079.2114
 04  9 10 15 11 59.9990000  0  7G 1G11G14G15G19G22G25
  -5569816.26647  -4324488.65644  21616442.9954   21616441.8624
      4038.0094
  -4695546.99249  -3645078.12145  21253819.0344   21253816.7804
      3253.7004
    194532.08649    148105.24646  20785132.6674   20785129.8944
      -428.6934
   2588400.76247   2005116.04742  23258747.6754   23258748.3944
     -2199.1574
   1141519.26246    882931.12142  23293274.8314   23293272.1554
     -1112.0624
    750322.32448    578740.65643  22667349.5034   22667346.6874
      -749.0184
  -5667370.01247  -4402304.80945  21346801.0584   21346799.5154
      4072.1244
 04  9 10 15 12 14.9990000  0  7G 1G11G14G15G19G22G25
  -5630299.73448  -4371618.63344  21604933.1754   21604932.6674
      4032.2314
  -4744224.05149  -3683008.29345  21244555.7534   21244553.2454
      3245.1374
    201041.28149    153177.33646  20786371.3154   20786368.6124
      -433.9464
   2621436.98447   2030858.53142  23265034.1754   23265035.4174
     -2202.4154
   1158257.56346    895973.90642  23296459.7844   23296457.9644
     -1115.8874
    761604.48048    587531.86744  22669496.8944   22669494.0034
      -752.1444
  -5728344.83649  -4449817.64145  21335197.8474   21335196.2964
      4064.9884
 04  9 10 15 12 29.9990000  0  7G 1G11G14G15G19G22G25
  -5690695.55548  -4418680.27344  21593439.8784   21593440.1204
      4026.3884
  -4792771.44949  -3720837.42645  21235317.3394   21235314.3944
      3236.4934
    207630.10949    158311.44946  20787625.0424   20787622.5074
      -439.2554
   2654522.85247   2056639.68042  23271330.5114   23271331.8394
     -2205.7244
   1175053.75447    909061.81342  23299656.8234   23299653.8664
     -1119.7464
    772934.44948    596360.37144  22671652.7224   22671650.4484
      -755.3314
  -5789211.22749  -4497245.98045  21323614.9804   21323613.2374
      4057.7594
 04  9 10 15 12 44.9990000  0  7G 1G11G14G15G19G22G25
  -5751006.34847  -4465675.66445  21581963.2374   21581963.0654
      4020.7204
  -4841191.59049  -3758567.43445  21226103.7614   21226100.8474
      3228.0094
    214295.54349    163505.28146  20788893.5974   20788890.2454
      -444.3624
   2687655.31347   2082457.13342  23277634.9334   23277635.8194
     -2208.8314
   1191904.76647    922192.44942  23302863.3864   23302860.2374
     -1123.4014
    784309.50848    605224.00443  22673817.4404   22673815.1164
      -758.3374
  -5849971.55147  -4544591.66845  21312052.7454   21312050.7104
      4050.6884
 04  9 10 15 12 59.9980000  0  7G 1G11G14G15G19G22G25
  -5811227.45347  -4512601.19144  21570504.0374   21570502.7364
      4014.7404
  -4889480.66449  -3796195.29745  21216914.7644   21216911.5104
      3219.2724
    221037.46949    168758.71545  20790176.2794   20790173.1664
      -449.4624
   2720832.44947   2108309.39142  23283948.8114   23283948.7324
     -2211.8094
   1208809.57446    935364.96942  23306079.9594   23306077.0144
     -1126.9874
    795729.41448    614122.59444  22675990.8974   22675987.6584
      -761.3274
  -5910621.10947  -4591851.05545  21300511.4754   21300509.7524
      4043.3044
 04  9 10 15 13 14.9980000  0  7G 1G11G14G15G19G22G25
  -5871365.27347  -4559461.82844  21559060.3974   21559058.6074
      4009.1884
  -4937643.30949  -3833724.64545  21207749.5764   21207746.0614
      3210.8434
    227858.10949    174073.48046  20791474.1544   20791471.8574
      -454.7094
   2754059.95747   2134200.90242  23290271.4674   23290272.2484
     -2215.1674
   1225771.57846    948582.07442  23309307.6474   23309304.4944
     -1130.8004
    807197.22348    623058.50844  22678173.3574   22678170.6074
      -764.5214
  -5971166.09047  -4639028.95345  21288990.2094   21288988.3114
      4036.3324
 04  9 10 15 13 29.9980000  0  7G 1G11G14G15G19G22G25
  -5931415.79747  -4606254.44144  21547633.0144   21547631.1434
      4003.3684
  -4985676.12949  -3871152.82445  21198609.1934   21198605.8144
      3202.1884
    234756.63749    179448.93046  20792787.0924   20792784.6824
      -459.9024
   2787335.30946   2160129.71542  23296603.3734   23296604.2214
     -2218.3574
   1242789.29347    961842.57442  23312546.6624   23312543.3814
     -1134.5144
    818712.12148    632031.09444  22680363.8184   22680361.9364
      -767.6604
  -6031602.26648  -4686122.05945  21277489.8424   21277488.5254
      4029.0784
 04  9 10 15 13 44.9980000  0  7G 1G11G14G15G19G22G25
  -5991380.36748  -4652980.07844  21536222.1074   21536220.1434
      3997.6384
  -5033580.41448  -3908480.82845  21189492.7324   21189489.7954
      3193.6194
    241731.36749    184883.76246  20794114.4754   20794111.7484
      -464.9824
   2820656.71947   2186094.38742  23302943.9674   23302945.7724
     -2221.4274
   1259860.75847    975145.00842  23315795.6074   23315792.1664
     -1138.0984
    830272.61347    641039.22344  22682563.8814   22682561.2754
      -770.6994
  -6091930.83247  -4733131.30945  21266009.6234   21266008.0574
      4021.9044
 04  9 10 15 13 59.9980000  0  7G 1G11G14G15G19G22G25
  -6051259.33248  -4699639.01644  21524827.4824   21524825.8894
      3991.9314
  -5081356.20749  -3945708.72345  21180401.5684   21180397.6004
      3185.0534
    248781.71149    190377.50446  20795456.3264   20795453.2364
      -470.0234
   2854023.51647   2212094.41042  23309293.7174   23309295.3424
     -2224.4534
   1276985.22347    988488.71142  23319053.7254   23319050.3814
     -1141.6314
    841878.30548    650082.56644  22684772.2254   22684770.1354
      -773.7134
  -6152151.92248  -4780056.81245  21254549.8654   21254547.9324
      4014.7394
 04  9 10 15 14 14.9980000  0  7G 1G11G14G15G19G22G25
  -6111051.46948  -4746230.28944  21513449.7644   21513447.8464
      3986.1424
  -5129002.19949  -3982835.48845  21171335.2874   21171331.7254
      3176.3994
    255908.53149    195930.85246  20796811.7014   20796809.5844
      -475.1214
   2887436.50447   2238130.43842  23315652.7874   23315654.0574
     -2227.5334
   1294163.46147   1001874.33642  23322322.3424   23322318.5924
     -1145.2164
    853530.28148    659161.98043  22686990.1474   22686987.0724
      -776.7984
  -6212264.07448  -4826897.44145  21243110.9824   21243109.5844
      4007.4774
 04  9 10 15 14 29.9980000  0  7G 1G11G14G15G19G22G25
  -6170757.30148  -4792754.30145  21502087.9044   21502086.7914
      3980.3894
  -5176518.82849  -4019861.45745  21162293.0534   21162289.2994
      3167.7754
    263110.85949    201543.03146  20798182.7644   20798180.2404
      -480.1554
   2920894.85547   2264201.83642  23322020.2484   23322020.8574
     -2230.5574
   1311394.49647   1015301.08642  23325601.7404   23325598.5334
     -1148.7364
    865227.95748    668277.01243  22689216.0684   22689213.3614
      -779.8454
  -6272267.61749  -4873653.43445  21231693.0534   21231690.9824
      4000.2364
 04  9 10 15 14 44.9980000  0  7G 1G11G14G15G19G22G25
  -6230377.10248  -4839211.27345  21490742.1784   21490741.3974
      3974.6534
  -5223906.16449  -4056786.66045  21153275.2324   21153273.0454
      3159.1564
    270388.43449    207213.84846  20799567.3974   20799564.7214
      -485.1724
   2954398.06646   2290308.16842  23328395.0144   23328395.6434
     -2233.5474
   1328677.71547   1028768.49242  23328890.3184   23328888.3464
     -1152.2154
    876971.10948    677427.46144  22691450.3504   22691448.7834
      -782.8774
  -6332162.51249  -4920324.76645  21220295.0924   21220293.2054
      3992.9934
 04  9 10 15 14 59.9980000  0  7G 1G11G14G15G19G22G25
  -6289908.52349  -4885599.38744  21479413.9044   21479413.0844
      3968.7614
  -5271161.86349  -4093609.28145  21144283.1154   21144281.2874
      3150.3804
    277743.12549    212944.75045  20800967.1784   20800964.2294
      -490.3134
   2987947.85247   2316450.83242  23334780.0224   23334779.4164
     -2236.6524
   1346014.77747   1042277.89142  23332189.9984   23332186.6004
     -1155.8044
    888761.65648    686614.84044  22693694.4124   22693692.0454
      -786.0364
  -6391946.42649  -4966909.62145  21208918.3344   21208917.0374
      3985.5944
 04  9 10 15 15 14.9980000  0  7G 1G11G14G15G19G22G25
  -6349352.64148  -4931919.45744  21468101.9594   21468100.6004
      3962.9414
  -5318286.71949  -4130329.93745  21135315.6004   21135313.6114
      3141.6574
    285173.66049    218734.75846  20802381.2724   20802378.5964
      -495.3694
   3021543.15647   2342628.91042  23341172.0844   23341172.7404
     -2239.6874
   1363404.26247   1055828.09842  23335499.0064   23335495.5534
     -1159.2994
    900598.65248    695838.42244  22695946.3974   22695943.9324
      -789.1334
  -6451620.01249  -5013408.51645  21197562.7254   21197561.1114
      3978.2394
 04  9 10 15 15 29.9980000  0  7G 1G11G14G15G19G22G25
  -6408711.23849  -4978172.91444  21456806.4434   21456805.0684
      3957.2404
  -5365282.40249  -4166949.96945  21126372.6314   21126369.0724
      3133.0464
    292677.84849    224582.14846  20803809.5924   20803806.8934
      -500.2794
   3055181.59447   2368840.63342  23347573.6394   23347573.9554
     -2242.5624
   1380843.87147   1069417.38742  23338817.6474   23338813.9514
     -1162.6414
    912480.24248    705096.75443  22698207.6934   22698205.2724
      -792.1064
  -6511184.82849  -5059822.63745  21186228.0614   21186226.8384
      3970.9884
 04  9 10 15 15 44.9980000  0  7G 1G11G14G15G19G22G25
  -6467982.64148  -5024358.43044  21445527.1234   21445526.1314
      3951.4274
  -5412147.22349  -4203468.02045  21117454.5684   21117450.7794
      3124.3214
    300256.85949    230487.85545  20805251.4364   20805248.9394
      -505.2674
   3088864.44547   2395086.97742  23353983.5294   23353983.0614
     -2245.5234
   1398334.85247   1083046.69142  23342146.8424   23342142.6074
     -1166.0654
    924407.85948    714390.91844  22700478.1154   22700474.9004
      -795.1744
  -6570639.10949  -5106150.62145  21174914.5614   21174913.0294
      3963.6194
 04  9 10 15 15 59.9980000  0  7G 1G11G14G15G19G22G25
  -6527167.19548  -5070476.23844  21434264.9284   21434263.5924
      3945.6374
  -5458881.32049  -4239884.23045  21108561.5764   21108557.8544
      3115.6074
    307910.30549    236451.55546  20806707.8734   20806705.2644
      -510.2304
   3122591.15647   2421367.50042  23360401.4824   23360400.9204
     -2248.4474
   1415876.47747   1096715.46542  23345484.4984   23345481.7254
     -1169.4424
    936381.23448    723720.77044  22702756.2644   22702753.6394
      -798.2254
  -6629982.87949  -5152392.51645  21163621.4594   21163619.4984
      3956.2514
 04  9 10 15 16 14.9980000  0  7G 1G11G14G15G19G22G25
  -6586265.15648  -5116526.60545  21423019.3114   21423017.5334
      3939.8644
  -5505484.89549  -4276198.70745  21099693.1234   21099689.7444
      3106.9054
    315637.50049    242472.72346  20808178.5764   20808175.5534
      -515.1464
   3156361.00847   2447681.63342  23366826.9754   23366827.4824
     -2251.3234
   1433468.00847   1110423.12142  23348830.7174   23348828.3544
     -1172.7694
    948399.95748    733085.94943  22705043.9904   22705040.5254
      -801.2484
  -6689216.27749  -5198548.39145  21152350.0844   21152347.9794
      3948.8934
 04  9 10 15 16 29.9980000  0  7G 1G11G14G15G19G22G25
  -6645276.82448  -5162509.72745  21411789.3344   21411788.9554
      3934.1114
  -5551958.10949  -4312411.60245  21090849.3344   21090846.2874
      3098.2144
    323437.89149    248550.93445  20809662.4824   20809660.0104
      -520.0264
   3190173.39846   2474028.88742  23373261.8734   23373261.9124
     -2254.1594
   1451108.52346   1124168.94542  23352188.6624   23352185.0614
     -1176.0344
    960463.63348    742486.15243  22707339.3184   22707336.5254
      -804.2454
  -6748339.38349  -5244618.32445  21141099.3734   21141097.3304
      3941.5404
 04  9 10 15 16 44.9980000  0  7G 1G11G14G15G19G22G25
  -6704201.38748  -5208424.95745  21400576.0614   21400575.9904
      3928.3044
  -5598299.86749  -4348522.07445  21082030.9124   21082027.4984
      3089.4514
    331311.87149    254686.47346  20811161.1154   20811158.6974
      -524.9324
   3224028.76646   2500409.66842  23379703.7324   23379703.8384
     -2257.0244
   1468798.52746   1137953.30942  23355555.0224   23355550.6234
     -1179.3344
    972573.03548    751922.00844  22709643.3034   22709641.2794
      -807.2934
  -6807351.13749  -5290601.48845  21129869.5764   21129867.5454
      3934.1174
 04  9 10 15 16 59.9980000  0  7G 1G11G14G15G19G22G25
  -6763039.02348  -5254272.45345  21389379.7404   21389379.3734
      3922.5094
  -5644510.28549  -4384530.18745  21073237.5294   21073234.1274
      3080.6954
    339259.04349    260879.04346  20812673.3814   20812671.0844
      -529.8114
   3257926.59447   2526823.55542  23386154.4824   23386155.1504
     -2259.8554
   1486537.38746   1151775.77342  23358930.3814   23358926.7174
     -1182.5914
    984727.93048    761393.28144  22711956.2094   22711954.1544
      -810.3264
  -6866251.59049  -5336497.93445  21118661.1074   21118659.6044
      3926.6974
 04  9 10 15 17 14.9980000  0  7G 1G11G14G15G19G22G25
  -6821792.42649  -5300054.32845  21378199.9674   21378198.6974
      3916.8934
  -5690591.89149  -4420437.94545  21064468.4284   21064464.9474
      3072.1074
    347276.32849    267126.25846  20814199.2014   20814196.7644
      -534.4864
   3291863.86347   2553268.07042  23392612.4984   23392614.1074
     -2262.4854
   1504321.89146   1165633.83242  23362314.7874   23362311.3504
     -1185.6344
    996925.35548    770897.71544  22714277.7404   22714275.0414
      -813.1624
  -6925043.26249  -5382309.60245  21107473.4124   21107471.9794
      3919.4454
 04  9 10 15 17 29.9980000  0  7G 1G11G14G15G19G22G25
  -6880458.49649  -5345768.16445  21367036.4284   21367034.8894
      3911.0714
  -5736541.60249  -4456242.92645  21055724.1474   21055721.5534
      3063.3144
    355366.62149    273430.36346  20815739.0144   20815736.2794
      -539.3534
   3325843.24247   2579745.44942  23399079.2484   23399079.3654
     -2265.2924
   1522154.74246   1179529.52042  23365707.3264   23365704.7724
     -1188.8574
   1009168.46148    780437.75043  22716607.2324   22716604.4124
      -816.2074
  -6983722.78549  -5428033.89145  21096306.3974   21096305.4944
      3911.9684
 04  9 10 15 17 44.9980000  0  7G 1G11G14G15G19G22G25
  -6939040.44549  -5391416.45345  21355888.4364   21355886.9514
      3905.4634
  -5782362.39849  -4491947.46945  21047005.1004   21047002.4864
      3054.7204
    363526.38349    279788.59846  20817291.3574   20817289.0334
      -543.9844
   3359861.16047   2606252.88742  23405552.5454   23405553.6044
     -2267.8614
   1540032.19146   1193459.93042  23369111.3574   23369105.8384
     -1191.8304
   1021454.01248    790010.84043  22718945.4284   22718942.2994
      -819.0374
  -7042293.27349  -5473673.22345  21085161.1704   21085159.2914
      3904.6994
 04  9 10 15 17 59.9980000  0  7G 1G11G14G15G19G22G25
  -6997536.66448  -5436997.92645  21344756.9434   21344755.4474
      3899.7484
  -5828052.50449  -4527550.14845  21038310.0764   21038307.3894
      3046.0074
    371756.93449    286201.98846  20818857.6934   20818855.2874
      -548.7034
   3393918.89846   2632791.30942  23412033.6784   23412034.8814
     -2270.5164
   1557955.41845   1207426.06642  23372522.0614   23372516.6434
     -1194.8824
   1033783.43448    799618.13343  22721291.6154   22721288.7484
      -821.9614
  -7100753.00849  -5519226.23045  21074036.5764   21074035.3544
      3897.3164
 04  9 10 15 18 14.9980000  0  7G 1G11G14G15G19G22G25
  -7055945.56648  -5482511.35945  21333641.3974   21333640.3544
      3893.9274
  -5873610.23849  -4563049.69945  21029640.8814   21029637.1504
      3037.1824
    380059.49649    292671.49646  20820437.5294   20820435.1154
      -553.5044
   3428017.66447   2659361.72742  23418522.3734   23418523.6004
     -2273.2514
   1575925.64846   1221428.80942  23375941.6864   23375937.6974
     -1198.0154
   1046158.14548    809260.72743  22723646.8184   22723643.4634
      -824.9814
  -7159099.92649  -5564691.34045  21062933.7014   21062932.0294
      3889.7954
 04  9 10 15 18 29.9980000  0  7G 1G11G14G15G19G22G25
  -7114268.11748  -5527957.50845  21322543.4594   21322542.1074
      3888.1704
  -5919036.49649  -4598446.80945  21020996.8734   21020992.8264
      3028.4174
    388432.72349    299196.07446  20822030.9434   20822028.1434
      -558.2154
   3462156.22346   2685963.14142  23425019.0294   23425020.0144
     -2275.9044
   1593941.32445   1235466.98442  23379369.2794   23379366.0414
     -1201.0454
   1058577.16848    818937.84443  22726009.9904   22726007.4794
      -827.9354
  -7217334.87949  -5610069.20345  21051851.8504   21051850.1474
      3882.3304
 04  9 10 15 18 44.9980000  0  7G 1G11G14G15G19G22G25
  -7172504.62548  -5573336.59445  21311461.2404   21311460.4324
      3882.4344
  -5964331.41449  -4633741.55145  21012377.1394   21012374.2834
      3019.6614
    396876.10249    305775.30145  20823637.6934   20823635.4674
      -562.8924
   3496333.83647   2712595.03542  23431522.3114   23431523.7724
     -2278.5084
   1612001.80145   1249540.01641  23382805.7724   23382802.9984
     -1204.0324
   1071040.14548    828649.21543  22728381.4594   22728379.6314
      -830.8654
  -7275458.00449  -5655359.94145  21040791.5764   21040789.3734
      3874.8754
 04  9 10 15 18 59.9980000  0  6G 1G11G14G19G22G25
  -7230654.87148  -5618648.46545  21300395.8114   21300394.6154
      3876.6834
  -6009494.73449  -4668933.75045  21003783.2404   21003780.6394
      3010.8884
    405389.60249    312409.17646  20825257.7014   20825255.5844
      -567.5674
   1630106.74645   1263647.68441  23386250.6004   23386248.7404
     -1206.9964
   1083547.22748    838394.94543  22730761.9284   22730759.3974
      -833.8054
  -7333468.78949  -5700563.14545  21029752.7724   21029751.2174
      3867.3864
 04  9 10 15 19 14.9980000  0  6G 1G11G14G19G22G25
  -7288718.32449  -5663892.73045  21289346.9284   21289345.8654
      3870.8974
  -6054525.79349  -4704022.88346  20995213.5684   20995211.8894
      3002.0714
    413973.28949    319097.73846  20826891.2404   20826888.9244
      -572.2464
   1648256.27745   1277790.12141  23389704.8504   23389703.2134
     -1209.9694
   1096098.76248    848175.32443  22733150.1624   22733147.2014
      -836.7694
  -7391366.53949  -5745678.25445  21018734.9754   21018733.5184
      3859.8504
 04  9 10 15 19 29.9980000  0  6G 1G11G14G19G22G25
  -7346694.05949  -5709068.63345  21278314.5684   21278313.4364
      3865.0494
  -6099423.53149  -4739008.13346  20986669.9984   20986667.5374
      2993.1834
    422627.94149    325841.60945  20828538.2794   20828535.7054
      -576.9774
   1666450.93845   1291967.77741  23393167.1394   23393164.9824
     -1212.9774
   1108695.64848    857991.03943  22735547.5924   22735544.0724
      -839.7924
  -7449150.15649  -5790704.43745  21007738.9514   21007737.1194
      3852.2414
 04  9 10 15 19 44.9980000  0  6G 1G11G14G19G22G25
  -7404582.53949  -5754176.53145  21267298.5294   21267297.5574
      3859.2324
  -6144188.13349  -4773889.65645  20978152.0144   20978148.9004
      2984.3074
    431352.77749    332640.16446  20830198.4904   20830195.9554
      -581.6564
   1684689.82045   1306179.84841  23396638.5374   23396634.7874
     -1215.9264
   1121337.47348    867841.75843  22737952.5614   22737950.1474
      -842.7884
  -7506819.85549  -5835641.85946  20996764.8114   20996762.9824
      3844.6474
 04  9 10 15 19 59.9980000  0  6G 1G11G14G19G22G25
  -7462380.87149  -5799214.19545  21256299.8114   21256298.2834
      3853.2224
  -6188816.55149  -4808665.06245  20969659.4204   20969655.8384
      2975.2284
    440150.44549    339495.47346  20831872.6074   20831870.2324
      -586.5114
   1702975.34845   1320428.28541  23400117.3814   23400114.7644
     -1219.0354
   1134026.99648    877729.65643  22740367.2324   22740365.1274
      -845.9684
  -7564372.66849  -5880488.18445  20985812.6004   20985810.8734
      3836.8544
 04  9 10 15 20 14.9980000  0  6G 1G11G14G19G22G25
  -7520091.23849  -5844183.31245  21245318.1004   21245316.4394
      3847.3584
  -6233310.80549  -4843335.91845  20961192.5064   20961189.0454
      2966.2844
    449018.46949    346405.59046  20833559.7564   20833557.7604
      -591.2024
   1721304.84045   1334711.01641  23403604.9204   23403601.6544
     -1221.9664
   1146761.98048    887652.98043  22742790.6624   22742789.0374
      -848.9994
  -7621810.48849  -5925244.91845  20974882.8894   20974880.9714
      3829.1884
 04  9 10 15 20 29.9980000  0  6G 1G11G14G19G22G25
  -7577711.98449  -5889082.58645  21234353.3814   21234352.0224
      3841.3834
  -6277669.37149  -4877901.04745  20952750.9044   20952747.8894
      2957.2384
    457958.06649    353371.49646  20835261.3574   20835258.9324
      -595.9734
   1739679.47745   1349028.85541  23407102.4754   23407097.8034
     -1224.9764
   1159543.82048    897612.81643  22745223.3424   22745221.2724
      -852.1234
  -7679131.51248  -5969910.62945  20963974.9674   20963972.8854
      3821.4024
 04  9 10 15 20 44.9980000  0  6G 1G11G14G19G22G25
  -7635245.08248  -5933913.56645  21223404.8894   21223403.6004
      3835.5404
  -6321894.04349  -4912361.84845  20944335.7724   20944333.3384
      2948.3114
    466967.04349    360391.46145  20836975.2644   20836973.0454
      -600.5984
   1758096.88745   1363380.01642  23410607.3574   23410603.5884
     -1227.8274
   1172370.62548    907607.68443  22747664.4514   22747661.1664
      -855.1204
  -7736337.41048  -6014486.64545  20953088.6074   20953087.6234
      3813.7274
 04  9 10 15 20 59.9980000  0  6G 1G11G14G19G22G25
  -7692690.70748  -5978676.37545  21212473.3114   21212471.9904
      3829.7084
  -6365984.65649  -4946718.18046  20935945.8264   20935943.1004
      2939.3744
    476044.95349    367465.13346  20838703.1004   20838700.8654
      -605.1944
   1776556.49646   1377764.09442  23414119.4754   23414116.5454
     -1230.6414
   1185242.15248    917637.40643  22750113.8574   22750110.3464
      -858.1024
  -7793428.16048  -6058972.93045  20942224.6934   20942223.3034
      3806.0504
 04  9 10 15 21 14.9980000  0  6G 1G11G14G19G22G25
  -7750050.84047  -6023372.57445  21201557.9284   21201556.6704
      3824.0094
  -6409943.24649  -4980971.64145  20927580.4514   20927577.3304
      2930.5734
    485189.45349    374590.68845  20840443.1704   20840440.9944
      -609.6334
   1795055.85545   1392179.14142  23417640.0614   23417637.4044
     -1233.2914
   1198156.10548    927700.18843  22752571.3654   22752568.8074
      -860.9304
  -7850405.77047  -6103371.05545  20931382.2404   20931380.8264
      3798.5074
 04  9 10 15 21 29.9980000  0  6G 1G11G14G19G22G25
  -7807325.00047  -6068001.78544  21190659.0144   21190657.4864
      3818.2774
  -6453769.14149  -5015121.68445  20919240.3574   20919236.9824
      2921.7264
    494400.80549    381768.34445  20842196.3894   20842194.2644
      -614.0904
   1813595.12146   1406625.24642  23421168.3114   23421165.2484
     -1235.9514
   1211113.17248    937796.57043  22755036.7404   22755034.4594
      -863.8044
  -7907269.11748  -6147680.14845  20920561.6154   20920559.6704
      3790.8904
 04  9 10 15 21 44.9980000  0  6G 1G11G14G19G22G25
  -7864513.36347  -6112564.14845  21179776.3814   21179774.6234
      3812.5584
  -6497462.52349  -5049168.49645  20910925.7014   20910922.1154
      2912.8924
    503678.49249    388997.69145  20843961.7484   20843959.9324
      -618.5124
   1832173.52746   1421101.86342  23424703.1934   23424700.7684
     -1238.5604
   1224112.98448    947926.25443  22757510.7794   22757508.5184
      -866.6544
  -7964018.28547  -6191900.26245  20909762.7324   20909761.0534
      3783.2784
 04  9 10 15 21 59.9980000  0  6G 1G11G14G19G22G25
  -7921615.14547  -6157059.04344  21168910.5764   21168908.6864
      3806.7854
  -6541022.30549  -5083111.19946  20902636.6934   20902634.0374
      2903.9854
    513023.04749    396279.14146  20845739.8814   20845737.9204
      -622.9704
   1850791.35546   1435609.21942  23428246.2404   23428244.5374
     -1241.1894
   1237156.31348    958089.85543  22759992.6934   22759990.6154
      -869.5554
  -8020652.58647  -6236030.87545  20898985.2564   20898983.9204
      3775.6204
 04  9 10 15 22 14.9980000  0  6G 1G11G14G19G22G25
  -7978629.46547  -6201485.78145  21158060.6074   21158059.2914
      3800.9554
  -6584447.52349  -5116949.03546  20894373.5924   20894371.2134
      2895.0154
    522435.09049    403613.18045  20847530.9124   20847528.7484
      -627.4704
   1869449.16046   1450147.69542  23431797.0064   23431794.6784
     -1243.8544
   1250243.84048    968287.85943  22762482.9434   22762481.0254
      -872.5024
  -8077170.89148  -6280071.10246  20888230.7014   20888228.9004
      3767.8874
 04  9 10 15 22 29.9980000  0  6G 1G11G14G19G22G25
  -8035557.60248  -6245845.34845  21147227.3894   21147227.0064
      3795.2094
  -6627739.27349  -5150682.88346  20886135.4824   20886132.3694
      2886.1174
    531913.13749    410998.63346  20849334.7484   20849332.2014
      -631.8704
   1888145.14846   1464715.98042  23435355.2874   23435351.7794
     -1246.3994
   1263374.37148    978519.40243  22764981.5684   22764979.1784
      -875.3694
  -8133574.12949  -6324021.66845  20877497.0374   20877495.4754
      3760.2164
 04  9 10 15 22 44.9980000  0  6G 1G11G14G19G22G25
  -8092398.59447  -6290137.00845  21136410.9284   21136410.1544
      3789.3994
  -6670896.53149  -5184311.91845  20877922.6864   20877920.0534
      2877.1514
    541457.74649    418435.97746  20851151.1154   20851148.2324
      -636.3074
   1906879.96145   1479314.52042  23438919.4364   23438917.5294
     -1248.9874
   1276548.85248    988785.16443  22767488.7794   22767486.3264
      -878.2994
  -8189861.10248  -6367881.62545  20866786.4984   20866784.3384
      3752.4654
 04  9 10 15 22 59.9980000  0  6G 1G11G14G19G22G25
  -8149154.23048  -6334362.15645  21125611.1784   21125610.2134
      3783.7094
  -6713921.18749  -5217837.62545  20869735.1154   20869732.8544
      2868.3104
    551066.75049    425923.50045  20852979.4434   20852977.3654
      -640.6004
   1925651.16045   1493941.41442  23442491.6704   23442488.5294
     -1251.4134
   1289765.09848    999083.49243  22770004.4514   22770002.0334
      -881.0834
  -8246033.50448  -6411652.32046  20856096.8184   20856095.1624
      3744.8274
 04  9 10 15 23 14.9980000  0  6G 1G11G14G19G22G25
  -8205823.66448  -6378520.15245  21114827.4904   21114825.8114
      3777.9624
  -6756812.03149  -5251259.08645  20861573.3114   20861571.0494
      2859.3904
    560740.75849    433461.65645  20854820.2324   20854817.7834
      -644.9344
   1944459.31644   1508597.09042  23446070.6234   23446067.3774
     -1253.8774
   1303024.02348   1009415.09043  22772527.6074   22772524.6274
      -883.9284
  -8302090.33249  -6455332.94545  20845429.6864   20845428.0374
      3737.1224
 04  9 10 15 23 29.9980000  0  6G 1G11G14G19G22G25
  -8262408.46949  -6422612.20345  21104059.3974   21104058.0534
      3772.3204
  -6799570.53149  -5284577.39845  20853436.5374   20853434.3074
      2850.5674
    570477.93449    441049.04745  20856673.1074   20856671.3544
      -649.1454
   1963302.45344   1523279.98042  23449655.9514   23449653.3224
     -1256.2094
   1316324.10548   1019778.74643  22775058.0614   22775055.9394
      -886.6724
  -8358032.93749  -6498924.57045  20834784.2724   20834782.3574
      3729.5074
 04  9 10 15 23 44.9980000  0  6G 1G11G14G19G22G25
  -8318906.09049  -6466636.30945  21093308.4204   21093307.8734
      3766.5084
  -6842194.06649  -5317790.55145  20845325.4824   20845322.6704
      2841.5694
    580280.61749    448687.48045  20858538.6154   20858536.3464
      -653.5124
   1982182.59044   1537991.74642  23453249.4904   23453246.0924
     -1258.6764
   1329667.71548   1030176.34043  22777597.5294   22777594.7644
      -889.5744
  -8413858.42249  -6542424.93746  20824161.2644   20824159.6474
      3721.6994
 04  9 10 15 23 59.9980000  0  6G 1G11G14G19G22G25
  -8375317.76249  -6510593.45345  21082573.2794   21082572.3504
      3760.7784
  -6884683.66449  -5350899.34445  20837240.3424   20837236.7134
      2832.6404
    590147.26649    456375.75445  20860416.1004   20860414.0024
      -657.7774
   2001098.08244   1552731.04742  23456848.6314   23456845.9164
     -1261.0334
   1343053.52048   1040606.77743  22780144.4364   22780142.5924
      -892.3874
  -8469567.98849  -6585834.96546  20813559.7404   20813558.4984
      3713.9714
 04  9 10 15 24 14.9980000  0  6G 1G11G14G19G22G25
  -8431642.65249  -6554482.96945  21071854.9754   21071854.1354
      3754.9934
  -6927038.38749  -5383903.04345  20829180.5064   20829177.0494
      2823.6484
    600078.50849    464114.35245  20862306.0224   20862303.6784
      -662.0834
   2020049.35244   1567498.28542  23460455.1394   23460452.6894
     -1263.4184
   1356482.35948   1051070.75443  22782699.9284   22782697.3654
      -895.2564
  -8525160.49649  -6629153.78946  20802981.1314   20802979.2054
      3706.1674
 04  9 10 15 24 29.9980000  0  6G 1G11G14G19G22G25
  -8487880.59849  -6598304.73445  21061153.3894   21061152.1544
      3749.1964
  -6969258.00849  -5416801.46545  20821146.1154   20821143.2014
      2814.6414
    610074.03549    471903.06645  20864208.3734   20864205.7874
      -666.3684
   2039036.04344   1582293.01242  23464069.1314   23464065.8184
     -1265.7794
   1369954.28148   1061568.31643  22785263.9124   22785260.7054
      -898.1284
  -8580635.62549  -6672381.14846  20792424.1394   20792422.3854
      3698.3424
 04  9 10 15 24 44.9980000  0  7G 1G20G11G14G19G22G25
  -8544032.41449  -6642059.39545  21050468.0064   21050467.4324
      3743.4544
   -224170.46914                  23234991.732

  -7011343.26649  -5449595.18745  20813137.5534   20813134.8694
      2805.6844
    620132.87549    479741.10245  20866122.1004   20866120.1544
      -670.5894
   2058056.80144   1597114.37941  23467686.0844   23467684.9394
     -1268.0514
   1383468.41048   1072098.77343  22787834.9284   22787832.5184
      -900.9424
  -8635993.96549  -6715517.50446  20781889.8184   20781888.1434
      3690.5564
 04  9 10 15 24 59.9980000  0  6G 1G20G11G14G22G25
  -8600098.53148  -6685747.26645  21039799.2564   21039798.4474
      3737.7414
   -292208.820 4                  23222043.889
      4535.890
  -7053294.32849  -5482284.32846  20805154.5924   20805151.8614
      2796.7384
    630254.28149    487627.88345  20868048.5374   20868045.6434
      -674.7604
   1397024.19948   1082661.66443  22790415.4124   22790413.1194
      -903.7194
  -8691235.94149  -6758563.18746  20771377.3574   20771376.0684
      3682.7984
 04  9 10 15 25 14.9980000  0  6G 1G20G11G14G22G25
  -8656079.28948  -6729368.60945  21029146.3034   21029144.7684
      3732.0514
   -360234.383 4                  23209100.272
      4535.038
  -7095111.50448  -5514869.15645  20797197.3814   20797194.5254
      2787.8124
    640437.69949    495563.00845  20869986.0764   20869983.4084
      -678.8954
   1410621.35548   1093256.81643  22793002.4284   22793000.4714
      -906.4774
  -8746361.53149  -6801518.18446  20760887.5534   20760885.8184
      3675.0394
 04  9 10 15 25 29.9980000  0  6G 1G20G11G14G22G25
  -8711972.34848  -6772921.62145  21018509.9204   21018508.2914
      3726.2044
   -428244.664 6                  23196158.904
      4534.019
  -7136792.23449  -5547347.65245  20789265.6784   20789263.0684
      2778.7154
    650685.04349    503547.93045  20871936.1004   20871933.6074
      -683.1564
   1424262.15648   1103885.95343  22795598.6004   22795596.2484
      -909.3874
  -8801368.21549  -6844380.52346  20750420.0224   20750418.3114
      3667.1124
 04  9 10 15 25 44.9980000  0  6G 1G20G11G14G22G25
  -8767776.76648  -6816405.57845  21007891.1004   21007889.2834
      3720.2954
   -496238.723 6                  23183220.045
      4532.937
  -7178335.54348  -5579719.07445  20781360.1074   20781357.1434
      2769.5544
    660997.07449    511583.24645  20873898.7794   20873896.5454
      -687.4694
   1437947.37148   1114549.72343  22798203.1074   22798200.2684
      -912.3484
  -8856254.77049  -6887149.24646  20739975.4824   20739974.1474
      3659.1044
 04  9 10 15 25 59.9980000  0  6G 1G20G11G14G22G25
  -8823492.75848  -6859820.64545  20997288.9984   20997287.6584
      3714.3994
   -564216.72345   -402907.03551  23170284.2644   23170281.9084
      4531.8674
  -7219741.73048  -5611983.63345  20773480.7404   20773477.9904
      2760.4134
    671373.27349    519668.57045  20875873.4204   20875871.1354
      -691.7474
   1451676.62148   1125247.78143  22800815.3894   22800813.2014
      -915.2834
  -8911021.33649  -6929824.48846  20729554.0614   20729552.2564
      3651.1044
 04  9 10 15 26 14.9980000  0  6G 1G20G11G14G22G25
  -8879121.32448  -6903167.55545  20986702.4044   20986701.3814
      3708.5714
   -632179.69944   -455865.23441  23157349.8974   23157349.0414
      4530.8654
  -7261011.40648  -5644141.84045  20765627.6704   20765624.7094
      2751.3124
    681812.40649    527802.94145  20877859.8654   20877857.8264
      -695.9424
   1465448.90648   1135979.40243  22803436.6394   22803433.2524
      -918.1524
  -8965668.62949  -6972406.78146  20719154.9594   20719153.1474
      3643.1534
 04  9 10 15 26 29.9980000  0  6G 1G20G11G14G22G25
  -8934661.65648  -6946445.71545  20976133.4514   20976132.7404
      3702.6894
   -700126.55543   -508810.85541  23144419.8424   23144418.7794
      4529.7904
  -7302143.80148  -5676193.05946  20757800.5614   20757797.1584
      2742.1604
    692314.99249    535986.73845  20879858.3574   20879856.3694
      -700.1724
   1479265.16848   1146745.27043  22806065.4594   22806062.7254
      -921.0844
  -9020195.70349  -7014895.39146  20708778.4674   20708777.2364
      3635.1384
 04  9 10 15 26 44.9980000  0  6G 1G20G11G14G22G25
  -8990114.18048  -6989655.44945  20965581.5294   20965580.6664
      3696.8354
   -768057.80144   -561744.23441  23131493.3034   23131490.9124
      4528.7504
  -7343139.06248  -5708137.43445  20749998.9434   20749996.5064
      2733.0174
    702880.24249    544219.37945  20881869.1544   20881866.6074
      -704.3504
   1493124.77048   1157544.92243  22808702.2014   22808699.3304
      -923.9734
  -9074602.79349  -7057290.52046  20698425.4754   20698423.8224
      3627.1394
 04  9 10 15 26 59.9980000  0  6G 1G20G11G14G22G25
  -9045479.91448  -7032797.55945  20955045.2874   20955045.0144
      3691.0494
   -835974.29345   -614666.16041  23118569.0224   23118566.7294
      4527.7664
  -7383998.13348  -5739975.67246  20742224.1234   20742221.2054
      2723.9384
    713506.89549    552499.87945  20883891.3114   20883888.9754
      -708.4434
   1507026.71148   1168377.54743  22811348.0534   22811345.4754
      -926.7964
  -9128890.64149  -7099592.73046  20688094.7254   20688092.5104
      3619.1904
 04  9 10 15 27 14.9980000  0  6G 1G20G11G14G22G25
  -9100760.23049  -7075873.10945  20944526.5224   20944524.8384
      3685.3544
   -903877.46145   -667577.69541  23105647.2794   23105645.2294
      4526.8784
  -7424722.39149  -5771708.87146  20734474.4904   20734472.0064
      2714.9514
    724193.29749    560826.91845  20885924.0924   20885922.4714
      -712.4274
   1520969.33648   1179241.88743  22814001.4204   22813999.1544
      -929.5084
  -9183060.56649  -7141803.05546  20677786.4364   20677784.4554
      3611.3284
 04  9 10 15 27 29.9980000  0  6G 1G20G11G14G22G25
  -9155955.21148  -7118882.17645  20934023.0924   20934022.0804
      3679.6654
   -971767.28546   -720478.91841  23092729.3114   23092726.5294
      4525.9884
  -7465311.68749  -5803336.90645  20726750.4984   20726748.2684
      2705.9534
    734939.23049    569200.34445  20887969.6314   20887967.2134
      -716.3964
   1534952.62148   1190137.91043  22816662.1784   22816660.7054
      -932.2194
  -9237112.40649  -7183921.36346  20667500.9204   20667498.5254
      3603.4564
 04  9 10 15 27 44.9980000  0  6G 1G20G11G14G22G25
  -9211062.88348  -7161823.19945  20923536.2724   20923535.2174
      3673.8454
  -1039641.69946   -773368.04341  23079812.8344   23079810.4864
      4524.9614
  -7505763.98849  -5834858.17645  20719052.4904   20719050.6154
      2696.8204
    745746.38349    577621.46545  20890026.4514   20890023.8344
      -720.4774
   1548978.62948   1201067.23043  22819331.1314   22819329.4634
      -935.0674
  -9291043.94549  -7225945.91846  20657237.7094   20657235.9434
      3595.4364
 04  9 10 15 27 59.9980000  0  6G 1G20G11G14G22G25
  -9266084.56249  -7204697.21945  20913066.2324   20913064.7524
      3668.1124
  -1107501.95345   -826246.19942  23066899.6004   23066896.6354
      4524.0174
  -7546080.46949  -5866273.61746  20711380.9284   20711377.9944
      2687.7654
    756613.10549    586089.02745  20892093.9594   20892091.3504
      -724.4484
   1563045.92648   1212028.71143  22822007.9904   22822006.5614
      -937.8204
  -9344856.32049  -7267877.64146  20646997.8344   20646996.1744
      3587.4924
 04  9 10 15 28 14.9980000  0  6G 1G20G11G14G22G25
  -9321021.06248  -7247504.85545  20902611.8424   20902610.7014
      3662.4334
  -1175348.79346   -879113.84442  23053988.8424   23053985.8814
      4523.1234
  -7586261.85949  -5897583.81645  20703734.7324   20703731.3464
      2678.7594
    767538.30949    594602.15645  20894173.0844   20894170.6234
      -728.3474
   1577153.47748   1223021.55943  22824692.7484   22824690.5224
      -940.5034
  -9398550.28149  -7309717.07446  20636780.2794   20636778.4434
      3579.5974
 04  9 10 15 28 29.9980000  0  6G 1G20G11G14G22G25
  -9375871.28548  -7290245.27045  20892174.3184   20892173.3114
      3656.6824
  -1243181.10946   -931970.20742  23041080.7564   23041078.2754
      4522.1544
  -7626306.87549  -5928787.74245  20696114.5764   20696110.5644
      2669.6684
    778522.98049    603161.61345  20896263.4204   20896261.0644
      -732.3114
   1591302.43448   1234046.64843  22827385.3574   22827383.7484
      -943.2644
  -9452124.39549  -7351463.12146  20626585.4364   20626582.9514
      3571.6084
 04  9 10 15 28 44.9980000  0  6G 1G20G11G14G22G25
  -9430637.01249  -7332919.85545  20881752.6474   20881751.3694
      3651.0484
  -1311000.62947   -984816.58642  23028176.0844   23028173.1434
      4521.3014
  -7666217.26649  -5959886.77045  20688519.7874   20688515.4364
      2660.6934
    789564.89149    611765.68045  20898364.6074   20898361.9904
      -736.1274
   1605490.87548   1245102.53543  22830085.2174   22830083.3144
      -945.8964
  -9505580.33649  -7393117.09446  20616412.6784   20616411.1504
      3563.7294
 04  9 10 15 28 59.9980000  0  6G 1G20G11G14G22G25
  -9485316.65649  -7375527.35245  20871347.0614   20871346.5294
      3645.3104
  -1378805.76247  -1037651.73842  23015272.6934   23015269.6434
      4520.3424
  -7705991.32849  -5990879.55545  20680950.6154   20680947.2484
      2651.6044
    800665.41449    620415.41445  20900477.2724   20900474.2644
      -740.0354
   1619720.36348   1256190.43443  22832793.0144   22832791.3144
      -948.6334
  -9558916.44149  -7434677.67246  20606263.2874   20606261.5144
      3555.7404
 04  9 10 15 29 14.9980000  0  6G 1G20G11G14G22G25
  -9539910.58249  -7418068.04745  20860958.5454   20860957.5844
      3639.5954
  -1446596.58647  -1090475.76242  23002372.6784   23002368.9164
      4519.3884
  -7745629.27349  -6021766.27745  20673407.9594   20673404.5534
      2642.5304
    811823.88749    629110.31645  20902600.3504   20902597.6194
      -743.8984
   1633990.52048   1267309.97743  22835508.6704   22835506.5844
      -951.3444
  -9612132.69149  -7476144.86346  20596137.0764   20596134.8654
      3547.7504
 04  9 10 15 29 29.9970000  0  6G 1G20G11G14G22G25
  -9594414.04749  -7460538.27045  20850586.8924   20850585.1854
      3633.5644
  -1514367.53946  -1143284.27042  22989475.7284   22989473.2634
      4518.0644
  -7785127.23849  -6052543.91445  20665891.6034   20665888.7474
      2633.1984
    823040.52349    637850.51245  20904735.0244   20904732.7434
      -747.7764
   1648301.31648   1278461.19943  22838231.9704   22838230.0134
      -954.0534
  -9665224.21149  -7517514.86746  20586033.4384   20586031.8414
      3539.4354
 04  9 10 15 29 44.9970000  0  6G 1G20G11G14G22G25
  -9648834.72349  -7502943.97345  20840231.1344   20840229.8534
      3628.0454
  -1582128.10247  -1196084.70342  22976581.3454   22976579.2904
      4517.3714
  -7824490.96149  -6083216.94945  20658400.6814   20658398.6734
      2624.2484
    834315.96549    646636.56345  20906880.6184   20906878.4974
      -751.6964
   1662654.18048   1289645.18442  22840963.4314   22840961.2554
      -956.8584
  -9718198.40649  -7558793.46146  20575953.0634   20575951.2164
      3531.6134
 04  9 10 15 29 59.9970000  0  6G 1G20G11G14G22G25
  -9703167.37548  -7545281.07045  20829891.6034   20829890.8564
      3622.1774
  -1649872.02046  -1248872.15242  22963689.3684   22963687.7674
      4516.2614
  -7863715.99649  -6113781.91845  20650936.7434   20650934.9424
      2615.0024
    845650.86749    655468.92645  20909037.2984   20909035.2354
      -755.6604
   1677049.74248   1300862.44143  22843703.3214   22843700.4504
      -959.7044
  -9771049.98449  -7599976.48846  20565896.4314   20565894.1224
      3523.4394
 04  9 10 15 30 14.9970000  0  6G 1G20G11G14G22G25
  -9757414.72349  -7587551.70345  20819568.5954   20819567.9584
      3616.4904
  -1717601.88346  -1301648.65642  22950801.3844   22950799.4194
      4515.3244
  -7902805.12549  -6144240.98046  20643498.6654   20643495.7714
      2605.9424
    857042.25049    664345.29345  20911205.5324   20911203.2164
      -759.4264
   1691485.23848   1312110.84443  22846449.5954   22846447.3804
      -962.3664
  -9823781.40249  -7641065.89846  20555861.0634   20555859.6344
      3515.4284
 04  9 10 15 30 29.9970000  0  6G 1G20G11G14G22G25
  -9811575.74248  -7629755.07845  20809262.4704   20809261.3644
      3610.7354
  -1785316.57047  -1354413.34043  22937915.9154   22937913.4274
      4514.3134
  -7941756.88749  -6174593.02345  20636086.5404   20636083.1224
      2596.7844
    868490.91449    673266.31345  20913383.6964   20913381.4544
      -763.2444
   1705961.62947   1323391.09043  22849204.8684   22849202.2714
      -965.0934
  -9876391.51249  -7682060.77346  20545849.8994   20545848.3964
      3507.3414
 04  9 10 15 30 44.9970000  0  6G 1G20G11G14G22G25
  -9865652.66848  -7671892.91845  20798971.4854   20798970.7824
      3605.1284
  -1853018.30546  -1407167.93442  22925032.4154   22925029.9234
      4513.4494
  -7980573.55549  -6204839.80145  20628699.7204   20628696.2984
      2587.7784
    879994.42649    682230.07045  20915572.7354   20915570.9664
      -766.9014
   1720476.64547   1334701.44143  22851966.3294   22851964.9154
      -967.6684
  -9928882.40649  -7722962.75046  20535861.0094   20535859.3064
      3499.3934
 04  9 10 15 30 59.9970000  0  6G 1G20G11G14G22G25
  -9919643.59448  -7713963.73845  20788697.4624   20788696.2944
      3599.3954
  -1920705.09046  -1459910.87543  22912151.8844   22912150.6574
      4512.4524
  -8019253.04349  -6234979.67245  20621339.0094   20621335.5134
      2578.6334
    891554.45349    691237.85245  20917772.6034   20917770.7634
      -770.6684
   1735032.26647   1346043.41043  22854735.9854   22854734.5994
      -970.3754
  -9981251.72749  -7763770.00446  20525895.6494   20525893.6494
      3491.2884
 04  9 10 15 31 14.9970000  0  6G 1G20G11G14G22G25
  -9973547.88348  -7755967.07045  20778439.9624   20778438.6694
      3593.6194
  -1988376.28947  -1512641.69542  22899274.2904   22899273.5174
      4511.4134
  -8057794.62148  -6265012.08645  20614004.6184   20614002.1144
      2569.4394
    903171.19949    700289.84045  20919983.5634   20919981.4704
      -774.4504
   1749628.87547   1357417.33243  22857514.6734   22857512.3804
      -973.1074
 -10033498.86349  -7804482.04746  20515953.0564   20515951.2284
      3483.1424
 04  9 10 15 31 29.9970000  0  6G 1G20G11G14G22G25
 -10027366.86748  -7797903.93745  20768198.6184   20768197.1424
      3587.9324
  -2056033.05546  -1565361.22743  22886399.5714   22886398.6464
      4510.4514
  -8096199.39849  -6294937.87945  20606696.9154   20606694.5634
      2560.3184
    914843.15649    709384.85545  20922204.5954   20922202.4584
      -778.1304
   1764265.11748   1368822.12142  22860300.1494   22860297.3414
      -975.7494
 -10085625.00849  -7845099.82046  20506034.0714   20506032.1614
      3475.0764
 04  9 10 15 31 44.9970000  0  6G 1G20G11G14G22G25
 -10081099.62948  -7839773.59445  20757973.4384   20757972.6734
      3582.1844
  -2123674.44946  -1618068.79342  22873528.6574   22873526.2594
      4509.4264
  -8134466.58649  -6324756.46946  20599414.6814   20599412.5284
      2551.1464
    926571.00049    718523.39145  20924436.4314   20924434.2714
      -781.8564
   1778941.93048   1380258.53943  22863091.9704   22863090.4314
      -978.4544
 -10137629.08249  -7885622.45346  20496137.8844   20496136.2124
      3466.9384
 04  9 10 15 31 59.9970000  0  6G 1G20G11G14G22G25
 -10134746.08248  -7881576.00045  20747765.2204   20747763.8064
      3576.4304
  -2191300.30146  -1670764.25043  22860660.1884   22860656.7554
      4508.3904
  -8172596.02048  -6354467.72746  20592158.8534   20592156.5914
      2541.9624
    938354.60549    727705.40645  20926678.8214   20926676.2744
      -785.5744
   1793659.21948   1391726.52343  22865892.9624   22865890.6384
      -981.1534
 -10189510.75849  -7926049.72346  20486264.9704   20486263.3964
      3458.7784
 04  9 10 15 32 14.9970000  0  6G 1G20G11G14G22G25
 -10188307.86749  -7923312.44145  20737572.4314   20737571.2714
      3570.7864
  -2258912.27046  -1723448.89543  22847793.5634   22847790.8134
      4507.4654
  -8210589.07049  -6384072.71146  20584929.1734   20584926.5214
      2532.8704
    950191.98049    736929.31645  20928931.2594   20928928.4544
      -789.1584
   1808415.31647   1403224.71143  22868700.7674   22868699.7354
      -983.7404
 -10241271.33649  -7966382.62146  20476415.5014   20476413.3964
      3450.7054
 04  9 10 15 32 29.9970000  0  6G 1G20G11G14G22G25
 -10241783.72348  -7964981.91845  20727396.2984   20727394.7674
      3565.0574
  -2326508.82046  -1776121.53943  22834930.9544   22834928.3724
      4506.4374
  -8248444.53149  -6413570.49245  20577725.2354   20577722.2554
      2523.6974
    962084.16049    746195.92645  20931194.2904   20931191.9704
      -792.8124
   1823211.42647   1414754.10242  22871516.3604   22871515.2984
      -986.4074
 -10292909.50049  -8006620.14546  20466589.0404   20466587.1064
      3442.5444
 04  9 10 15 32 44.9970000  0  6G 1G20G11G14G22G25
 -10295173.08648  -8006584.00045  20717236.6184   20717234.7164
      3559.2914
  -2394089.39846  -1828781.71542  22822070.2354   22822068.7744
      4505.3724
  -8286161.60248  -6442960.41845  20570548.1494   20570545.6494
      2514.4714
    974031.54349    755505.55145  20933467.4624   20933465.1064
      -796.4924
   1838048.13748   1426315.11342  22874339.7284   22874338.4154
      -989.1144
 -10344424.39549  -8046761.60546  20456786.1264   20456784.3024
      3434.3264
 04  9 10 15 32 59.9970000  0  6G 1G20G11G14G22G25
 -10348475.94148  -8048118.68045  20707093.4314   20707091.5794
      3553.5244
  -2461653.84847  -1881429.34442  22809212.8534   22809211.0214
      4504.2974
  -8323740.22348  -6472242.46145  20563397.1424   20563393.9784
      2505.2414
    986033.80949    764857.94145  20935751.7354   20935749.1464
      -800.1514
   1852925.42648   1437907.72343  22877171.2984   22877169.2514
      -991.8194
 -10395815.82449  -8086806.86746  20447006.7204   20447005.0524
      3426.0954
 04  9 10 15 33 14.9970000  0  6G 1G20G11G14G22G25
 -10401691.53549  -8089585.34045  20696967.1184   20696965.8174
      3547.7064
  -2529201.35947  -1934063.78542  22796359.2904   22796357.2744
      4503.1674
  -8361179.51649  -6501415.94145  20556272.6814   20556268.7434
      2495.9534
    998091.46549    774253.49645  20938046.1424   20938043.6064
      -803.8444
   1867843.89148   1449532.45342  22880010.6184   22880007.4974
      -994.5644
 -10447083.00049  -8126755.29346  20437250.7594   20437248.9624
      3417.8124
 04  9 10 15 33 29.9970000  0  6G 1G20G11G14G22G25
 -10454821.32448  -8130985.16445  20686856.8064   20686855.6144
      3541.9864
  -2596733.31247  -1986686.08243  22783508.5874   22783506.6964
      4502.1304
  -8398480.74649  -6530481.85245  20549174.6964   20549170.6384
      2486.7494
   1010202.91849    783690.96945  20940351.0174   20940348.7784
      -807.4304
   1882802.09448   1461188.13743  22882856.6184   22882854.3534
      -997.2144
 -10498227.14549  -8166607.85946  20427518.4384   20427516.0754
      3409.6104
 04  9 10 15 33 44.9970000  0  6G 1G20G11G14G22G25
 -10507865.59448  -8172318.35245  20676762.7674   20676761.4744
      3536.2854
  -2664249.94147  -2039296.42243  22770660.8604   22770659.0484
      4501.1094
  -8435644.22748  -6559440.43745  20542102.6344   20542098.5954
      2477.5654
   1022367.55949    793169.89145  20942666.0714   20942663.5284
      -810.9764
   1897799.58648   1472874.45743  22885711.1344   22885708.8294
      -999.8334
 -10549248.48849  -8206364.74246  20417809.1494   20417807.2904
      3401.4234
 04  9 10 15 33 59.9970000  0  6G 1G20G11G14G22G25
 -10560824.55549  -8213585.04345  20666684.7674   20666683.6534
      3530.5974
  -2731751.38747  -2091894.94943  22757815.3294   22757813.1464
      4500.0964
  -8472670.04749  -6588291.71945  20535056.7124   20535053.7674
      2468.3884
   1034584.89849    802689.85945  20944990.7514   20944988.2434
      -814.4894
   1912836.16848   1484591.20343  22888572.1034   22888569.8644
     -1002.4394
 -10600146.96549  -8246025.87546  20408123.8134   20408121.7354
      3393.2324
 04  9 10 15 34 14.9970000  0  6G 1G20G11G14G22G25
 -10613697.08648  -8254784.40645  20656623.1654   20656622.1464
      3524.8354
  -2799236.36346  -2144480.61743  22744973.1264   22744971.4114
      4498.9984
  -8509557.01649  -6617034.80945  20528037.5324   20528035.4154
      2459.1314
   1046855.82449    812251.59845  20947325.8844   20947323.7714
      -818.0624
   1927912.95348   1496339.26643  22891441.8924   22891439.3494
     -1005.1194
 -10650921.14149  -8285590.14846  20398461.5404   20398459.6694
      3384.9454
 04  9 10 15 34 29.9970000  0  6G 1G20G11G14G22G25
 -10666483.83649  -8295916.93045  20646578.3534   20646577.3174
      3519.1174
  -2866705.46147  -2197053.92643  22732134.1734   22732132.4354
      4497.9404
  -8546305.57849  -6645670.06245  20521044.4784   20521041.5994
      2449.9044
   1059179.51249    821854.45345  20949671.1574   20949668.6694
      -821.5794
   1943029.18848   1508118.10543  22894317.7124   22894316.4744
     -1007.7494
 -10701571.45349  -8325057.89846  20388823.1734   20388821.3494
      3376.6884
 04  9 10 15 34 44.9970000  0  6G 1G20G11G14G22G25
 -10719184.79748  -8336982.59845  20636549.8994   20636548.3604
      3513.3974
  -2934158.59047  -2249614.81243  22719298.4074   22719297.0174
      4496.8754
  -8582915.77749  -6674197.51245  20514077.5244   20514074.2354
      2440.6804
   1071555.70349    831498.21945  20952026.2904   20952023.6534
      -825.0794
   1958184.90248   1519927.69143  22897201.4384   22897200.0674
     -1010.3814
 -10752097.86749  -8364429.12546  20379208.2904   20379205.9314
      3368.4284
 04  9 10 15 34 59.9970000  0  6G 1G20G11G14G22G25
 -10771800.19949  -8377981.59845  20626537.6734   20626536.1814
      3507.6934
  -3001595.88347  -2302163.34043  22706465.3534   22706463.4664
      4495.8204
  -8619387.63349  -6702617.13346  20507137.5484   20507135.0604
      2431.4574
   1083983.90249    841182.50445  20954391.2044   20954389.0174
      -828.5474
   1973379.78148   1531767.80943  22900093.6814   22900091.6814
     -1012.9924
 -10802500.40249  -8403703.80946  20369617.1494   20369615.4384
      3360.1694
 04  9 10 15 35 14.9970000  0  6G 1G20G11G14G22G25
 -10824328.57849  -8418912.78945  20616541.7514   20616539.8804
      3501.8924
  -3069015.73447  -2354698.30543  22693635.9074   22693633.3334
      4494.6574
  -8655719.61749  -6730927.77046  20500223.5714   20500221.0794
      2422.1324
   1096465.30949    850908.24245  20956766.1034   20956764.2354
      -832.0944
   1988615.13348   1543639.44143  22902993.2594   22902990.4154
     -1015.6904
 -10852777.50849  -8442880.77046  20360049.6494   20360047.7354
      3351.8074
 04  9 10 15 35 29.9970000  0  6G 1G20G11G14G22G25
 -10876772.95749  -8459778.52745  20606561.6424   20606559.8294
      3496.2924
  -3136421.12147  -2407221.98442  22680809.0404   22680806.5954
      4493.6924
  -8691914.69949  -6759131.73846  20493336.0564   20493332.8414
      2413.0054
   1108996.68849    860672.94145  20959150.8844   20959148.4354
      -835.4254
   2003887.94148   1555540.27043  22905899.1184   22905897.4974
     -1018.1874
 -10902931.93049  -8481962.12546  20350505.3374   20350503.7004
      3343.6284
 04  9 10 15 35 44.9970000  0  6G 1G20G11G14G22G25
 -10929130.61349  -8500576.69145  20596598.2744   20596597.1224
      3490.5104
  -3203809.39547  -2459732.31242  22667984.8994   22667982.2594
      4492.5524
  -8727970.06649  -6787226.84446  20486475.1964   20486471.9934
      2403.6914
   1121580.47749    870478.46145  20961545.6264   20961543.3454
      -838.9194
   2019200.94948   1567472.40243  22908813.3844   22908811.0134
     -1020.8674
 -10952960.79749  -8520945.64546  20340985.4384   20340983.3454
      3335.2584
 04  9 10 15 35 59.9970000  0  6G 1G20G11G14G22G25
 -10981402.20749  -8541307.77745  20586651.4784   20586650.5674
      3484.7734
  -3271180.86346  -2512229.55942  22655164.3454   22655162.3374
      4491.4314
  -8763886.03149  -6815213.32045  20479640.1574   20479637.2164
      2394.3984
   1134215.91049    880324.22345  20963950.2594   20963947.8804
      -842.3624
   2034553.39848   1579435.31642  22911734.8294   22911731.9154
     -1023.4974
 -11002864.66049  -8559831.76246  20331488.8064   20331486.7634
      3326.9244
 04  9 10 15 36 14.9970000  0  6G 1G20G11G14G22G25
 -11033589.00849  -8581972.80945  20576720.6264   20576719.3644
      3479.1204
  -3338536.81247  -2564714.71142  22642347.7984   22642345.4894
      4490.3974
  -8799664.09449  -6843092.34445  20472831.9624   20472828.3644
      2385.2044
   1146901.27749    890208.91445  20966364.1654   20966361.8964
      -845.6914
   2049943.89148   1591427.86743  22914662.9384   22914661.2554
     -1026.0334
 -11052644.60949  -8598621.32446  20322016.0564   20322014.3454
      3318.6634
 04  9 10 15 36 29.9970000  0  6G 1G20G11G14G22G25
 -11085690.75049  -8622571.55945  20566805.9154   20566804.4974
      3473.4494
  -3405876.85947  -2617187.46543  22629533.3994   22629531.7044
      4489.3364
  -8835303.68449  -6870863.46946  20466050.1574   20466047.3844
      2375.9734
   1159636.78549    900132.66045  20968787.2124   20968785.4854
      -849.0344
   2065372.82448   1603450.35542  22917599.4544   22917597.4854
     -1028.5964
 -11102300.06649  -8637313.86746  20312566.9464   20312565.5134
      3310.3644
 04  9 10 15 36 44.9970000  0  6G 1G20G11G14G22G25
 -11137706.80549  -8663103.53945  20556907.4384   20556906.7514
      3467.7374
  -3473200.26647  -2669647.27043  22616722.1424   22616720.5174
      4488.2274
  -8870804.20749  -6898526.21546  20459294.7434   20459292.1884
      2366.7024
   1172422.77349    910095.73445  20971220.8374   20971218.7904
      -852.3994
   2080840.55948   1615503.05542  22920542.6734   22920540.4624
     -1031.1824
 -11151830.33249  -8675908.87146  20303141.8764   20303140.1064
      3302.0184
 04  9 10 15 36 59.9970000  0  6G 1G20G11G14G22G25
 -11189635.82849  -8703567.67645  20547025.7904   20547024.7634
      3461.9354
  -3540505.57047  -2722092.93443  22603914.2824   22603912.2744
      4487.0204
  -8906164.18049  -6926079.44946  20452565.6184   20452562.6534
      2357.3324
   1185260.34449    920099.00845  20973663.4854   20973661.7474
      -855.8384
   2096348.57448   1627587.16443  22923494.2984   22923491.6304
     -1033.8684
 -11201233.83249  -8714405.09446  20293740.9314   20293738.8174
      3293.5674
 04  9 10 15 37 14.9970000  0  6G 1G20G11G14G22G25
 -11241478.53149  -8743964.58645  20537160.6574   20537159.1854
      3456.1804
  -3607793.48846  -2774525.04742  22591109.8454   22591107.1184
      4485.8614
  -8941384.32849  -6953523.72345  20445863.2514   20445860.5674
      2348.0104
   1198148.50049    930141.69545  20976116.2674   20976113.9704
      -859.2104
   2111896.08648   1639702.04742  22926452.5094   22926450.6304
     -1036.5014
 -11250511.11349  -8752802.96946  20284363.1184   20284361.2944
      3285.1524
 04  9 10 15 37 29.9970000  0  6G 1G20G11G14G22G25
 -11293235.37949  -8784294.59045  20527311.5714   20527309.9384
      3450.4574
  -3675064.40647  -2826943.94542  22578308.4074   22578305.8804
      4484.7284
  -8976464.94149  -6980859.27046  20439188.3454   20439184.4974
      2338.7084
   1211086.53149    940223.25844  20978578.1734   20978575.8454
      -862.5354
   2127482.50047   1651847.24242  22929418.7434   22929417.9114
     -1039.0944
 -11299662.68449  -8791102.88346  20275010.0094   20275008.3684
      3276.7714
 04  9 10 15 37 44.9970000  0  6G 1G20G11G14G22G25
 -11344906.52349  -8824557.80145  20517478.9384   20517477.0244
      3444.7434
  -3742318.32447  -2879349.59842  22565510.5094   22565508.2084
      4483.5954
  -9011406.13349  -7008086.18046  20432538.9464   20432535.6184
      2329.4134
   1224074.11349    950343.42244  20981049.4854   20981047.2824
      -865.8394
   2143107.45747   1664022.48043  22932392.0404   22932391.0634
     -1041.6644
 -11348688.37149  -8829304.69546  20265680.7434   20265678.7864
      3268.3794
 04  9 10 15 37 59.9970000  0  6G 1G20G11G14G22G25
 -11396491.48449  -8864753.86345  20507662.2044   20507660.9234
      3438.9974
  -3809554.68747  -2931741.55542  22552715.7284   22552714.0324
      4482.4244
  -9046207.22349  -7035203.91846  20425916.7124   20425913.8724
      2320.0734
   1237111.37549    960502.30144  20983530.6184   20983528.0324
      -869.1514
   2158771.54347   1676228.20743  22935372.0634   22935372.0324
     -1044.2724
 -11397587.44549  -8867407.86746  20256375.2204   20256373.4384
      3259.9384
 04  9 10 15 38 14.9970000  0  6G 1G20G11G14G22G25
 -11447989.09049  -8904881.86745  20497862.6814   20497861.3254
      3433.1744
  -3876772.18447  -2984118.82442  22539924.7284   22539922.8494
      4481.1664
  -9080867.04349  -7062211.56646  20419320.8214   20419317.7354
      2310.6554
   1250199.33249    970700.68444  20986021.0244   20986018.5324
      -872.5304
   2174475.82847   1688465.28142  22938361.8064   22938359.2864
     -1046.9524
 -11446358.69549  -8905411.44146  20247094.5404   20247092.6734
      3251.4174
 04  9 10 15 38 29.9970000  0  6G 1G20G11G14G22G25
 -11499401.72749  -8944943.64845  20488079.5174   20488077.5054
      3427.5094
  -3943973.03947  -3036483.10942  22527136.5564   22527134.8844
      4480.0574
  -9115387.94149  -7089110.97746  20412751.9934   20412748.4194
      2301.3934
   1263335.35549    980936.52744  20988520.8684   20988517.9854
      -875.7354
   2190218.00048   1700731.84842  22941357.5244   22941354.4464
     -1049.4784
 -11495004.28949  -8943317.08646  20237837.7204   20237835.9624
      3243.0404
 04  9 10 15 38 44.9970000  0  6G 1G20G11G14G22G25
 -11550728.78549  -8984938.76645  20478312.1814   20478310.4354
      3421.8044
  -4011156.62947  -3088833.93743  22514351.6654   22514350.1034
      4478.9064
  -9149769.18449  -7115901.56646  20406209.2984   20406206.1574
      2292.0834
   1276519.92649    991210.18444  20991029.6424   20991026.8924
      -878.9714
   2205998.52048   1713028.29342  22944360.0404   22944357.8174
     -1052.0354
 -11543523.39849  -8981124.18046  20228605.0174   20228602.9814
      3234.6074
 04  9 10 15 38 59.9970000  0  6G 1G20G11G14G22G25
 -11601969.16049  -9024866.32445  20468561.2674   20468559.6304
      3416.0254
  -4078321.62547  -3141170.28943  22501571.6264   22501569.3024
      4477.6664
  -9184009.50449  -7142582.35946  20399693.5874   20399690.2744
      2282.6884
   1289753.90649   1001522.36744  20993548.1264   20993545.6774
      -882.2654
   2221818.63747   1725355.59442  22947369.9384   22947368.4154
     -1054.6744
 -11591914.66049  -9018831.63746  20219396.2904   20219394.5404
      3226.0844
 04  9 10 15 39 14.9970000  0  6G 1G20G11G14G22G25
 -11653125.44949  -9064728.35545  20458826.4854   20458825.1574
      3410.4194
  -4145470.62947  -3193494.17242  22488793.1264   22488791.6774
      4476.6004
  -9218111.50448  -7169155.34446  20393204.3294   20393201.4664
      2273.4674
   1303034.44549   1011870.81645  20996075.7674   20996073.2474
      -885.3694
   2237675.53947   1737711.56342  22950387.4934   22950386.6614
     -1057.1274
 -11640180.64848  -9056441.50046  20210211.8134   20210209.6774
      3217.7334
 04  9 10 15 39 29.9970000  0  6G 1G20G11G14G22G25
 -11704195.07049  -9104522.84045  20449108.5404   20449107.5364
      3404.6414
  -4212601.02347  -3245803.55542  22476018.0714   22476016.2204
      4475.3604
  -9252072.42249  -7195618.39846  20386741.8294   20386738.9704
      2264.0614
   1316363.78949   1022257.28145  20998611.9074   20998609.7204
      -888.6234
   2253571.76247   1750098.18443  22953413.2594   22953412.0134
     -1059.7484
 -11688318.62549  -9093951.59846  20201051.1184   20201049.0444
      3209.1984
 04  9 10 15 39 44.9970000  0  6G 1G20G11G14G22G25
 -11755178.53949  -9144250.21945  20439406.8684   20439404.7824
      3398.8984
  -4279713.03547  -3298098.62142  22463248.1964   22463245.1144
      4474.1344
  -9285892.53949  -7221971.75846  20380305.8924   20380303.1654
      2254.6744
   1329741.25049   1032681.25845  21001157.7204   21001155.7244
      -891.8314
   2269506.66447   1762514.93442  22956445.8214   22956444.1574
     -1062.3274
 -11736328.83649  -9131362.13746  20191915.1184   20191913.4234
      3200.6814
 04  9 10 15 39 59.9970000  0  6G 1G20G11G14G22G25
 -11806077.28149  -9183911.56245  20429721.0174   20429718.6614
      3393.2494
  -4346807.97747  -3350380.38743  22450480.3534   22450477.9424
      4472.9964
  -9319573.52748  -7248216.71145  20373896.5794   20373893.1304
      2245.3994
   1343165.25049   1043141.49245  21003712.1884   21003710.0794
      -894.9334
   2285478.87947   1774960.77342  22959484.6424   22959483.6034
     -1064.8144
 -11784212.45748  -9168674.04746  20182803.5634   20182801.1734
      3192.2414
 04  9 10 15 40 14.9970000  0  6G 1G20G11G14G22G25
 -11856890.53949  -9223506.29745  20420051.3924   20420050.2394
      3387.5514
  -4413885.02048  -3402648.19543  22437715.6964   22437713.5874
      4471.8034
  -9353114.50048  -7274352.52746  20367513.7904   20367511.2944
      2236.0654
   1356636.35549   1053638.42645  21006275.0174   21006273.3294
      -898.0744
   2301489.19148   1787436.31642  22962531.5794   22962529.9464
     -1067.3544
 -11831968.73048  -9205886.71946  20173715.4464   20173713.4464
      3183.7524
 04  9 10 15 40 29.9970000  0  6G 1G20G11G14G22G25
 -11907618.95749  -9263034.93445  20410398.2824   20410396.6104
      3381.8954
  -4480944.72748  -3454902.51243  22424954.2434   22424952.3994
      4470.6474
  -9386515.91048  -7300379.60246  20361157.5794   20361155.3604
      2226.7614
   1370153.70748   1064171.40645  21008848.0794   21008846.1344
      -901.1574
   2317536.82447   1799940.89542  22965585.0714   22965584.0674
     -1069.8424
 -11879598.21948  -9243000.60246  20164652.3684   20164650.1884
      3175.2994
 04  9 10 15 40 44.9970000  0  6G 1G20G11G14G22G25
 -11958261.21949  -9302496.40645  20400761.1424   20400760.1464
      3376.1514
  -4547985.63348  -3507142.16843  22412197.1424   22412194.3564
      4469.3944
  -9419776.34448  -7326296.83246  20354828.6034   20354825.5914
      2217.3624
   1383718.36749   1074741.23845  21011429.4384   21011427.3684
      -904.3114
   2333623.04747   1812475.57042  22968646.0244   22968644.5674
     -1072.4154
 -11927099.35949  -9280014.46946  20155612.7434   20155610.6574
      3166.7434
 04  9 10 15 40 59.9970000  0  6G 1G20G11G14G22G25
 -12008817.96149  -9341891.26646  20391140.8684   20391139.5994
      3370.4494
  -4615008.32848  -3559367.63342  22399442.8454   22399440.7824
      4468.1804
  -9452896.43048  -7352104.70346  20348525.9154   20348523.1064
      2208.0064
   1397329.37148   1085347.18844  21014019.4784   21014017.0994
      -907.4004
   2349747.18848   1825039.80542  22971714.4544   22971712.2714
     -1074.9434
 -11974472.64148  -9316928.69946  20146597.5014   20146595.7204
      3158.2194
 04  9 10 15 41 14.9970000  0  6G 1G20G11G14G22G25
 -12059286.07049  -9381217.05545  20381536.6424   20381535.7434
      3364.5414
  -4682009.62548  -3611576.44942  22386693.6964   22386690.0954
      4466.7534
  -9485872.98449  -7377800.73445  20342250.8214   20342247.6144
      2198.4374
   1410989.62548   1095991.51644  21016618.3604   21016616.5794
      -910.6844
   2365912.33648   1837635.97742  22974790.6654   22974789.1104
     -1077.6774
 -12021714.82049  -9353740.78146  20137608.0324   20137605.9154
      3149.4794
 04  9 10 15 41 29.9970000  0  6G 1G20G11G14G22G25
 -12109668.16049  -9420475.81245  20371949.2824   20371947.7744
      3358.8064
  -4748991.93048  -3663770.46542  22373947.1734   22373943.3764
      4465.4874
  -9518708.55149  -7403386.89146  20336002.2284   20336000.0674
      2189.0384
   1424696.28548   1106671.99645  21019227.1814   21019225.5834
      -913.7774
   2382115.77048   1850261.97743  22977874.4624   22977873.0174
     -1080.2294
 -12068828.30548  -9390452.58646  20128642.6884   20128641.0094
      3140.8994
 04  9 10 15 41 44.9970000  0  6G 1G20G11G14G22G25
 -12159965.09049  -9459668.22345  20362377.8604   20362376.5634
      3353.1294
  -4815955.93448  -3715950.19542  22361203.7124   22361201.1774
      4464.2674
  -9551403.75849  -7428863.67246  20329780.8604   20329778.7314
      2179.6804
   1438448.44148   1117387.94144  21021844.5324   21021841.9854
      -916.8104
   2398356.66048   1862917.15643  22980964.9074   22980963.8374
     -1082.7264
 -12115813.75848  -9427064.62146  20119701.3684   20119699.4664
      3132.3644
 04  9 10 15 41 59.9970000  0  6G 1G20G11G14G22G25
 -12210175.87949  -9498793.50045  20352823.5324   20352821.6264
      3347.3864
  -4882900.67247  -3768114.93042  22348464.8294   22348462.7514
      4462.9834
  -9583957.73048  -7454230.41846  20323585.8994   20323583.4194
      2170.2654
   1452246.74248   1128139.84445  21024469.9074   21024467.7674
      -919.8874
   2414635.87948   1875602.21942  22984062.8604   22984061.1224
     -1085.2814
 -12162669.99648  -9463575.96946  20110784.8294   20110782.9274
      3123.7494
 04  9 10 15 42 14.9970000  0  6G 1G20G11G14G22G25
 -12260300.84849  -9537851.90245  20343284.8844   20343283.4664
      3341.6654
  -4949826.35548  -3820264.82042  22335729.0794   22335726.9544
      4461.7124
  -9616370.59449  -7479487.19146  20317417.9784   20317415.5714
      2160.8584
   1466090.71548   1138927.32444  21027104.4624   21027102.1064
      -922.9324
   2430953.23448   1888316.95743  22987167.6034   22987166.6494
     -1087.8244
 -12209397.12949  -9499986.71546  20101893.1964   20101891.0834
      3115.1424
 04  9 10 15 42 29.9970000  0  6G 1G20G11G14G22G25
 -12310340.36749  -9576843.73045  20333762.3064   20333761.5134
      3335.9684
  -5016733.06648  -3872399.94142  22322997.6494   22322994.4544
      4460.4474
  -9648642.49649  -7504634.14146  20311276.5404   20311274.0324
      2151.4604
   1479979.75048   1149749.93444  21029747.2354   21029744.4934
      -925.9364
   2447308.07847   1901060.95342  22990280.1184   22990278.6814
     -1090.3234
 -12255995.54349  -9536297.17246  20093026.2284   20093023.9934
      3106.5614
 04  9 10 15 42 44.9970000  0  6G 1G20G11G14G22G25
 -12360294.76649  -9615769.21946  20324256.7124   20324255.4544
      3330.2934
  -5083621.00848  -3924520.43042  22310269.0094   22310266.6694
      4459.1964
  -9680773.92249  -7529671.62946  20305162.6964   20305159.5364
      2142.0954
   1493913.27048   1160607.19145  21032398.5014   21032396.2124
      -928.9014
   2463700.18847   1913833.97342  22993399.4784   22993397.5054
     -1092.8074
 -12302465.45748  -9572507.48446  20084182.9624   20084181.1344
      3097.9944
 04  9 10 15 42 59.9970000  0  6G 1G20G11G14G22G25
 -12410163.68749  -9654628.10546  20314767.0014   20314765.6854
      3324.5954
  -5150489.85548  -3976626.03543  22297544.6494   22297542.4384
      4457.9234
  -9712764.61348  -7554599.44546  20299074.9074   20299072.2004
      2132.7134
   1507891.35548   1171499.19545  21035058.9074   21035056.2714
      -931.8724
   2480129.82448   1926636.24242  22996526.2594   22996524.2824
     -1095.3094
 -12348806.23448  -9608617.17646  20075364.2514   20075362.5244
      3089.3854
 04  9 10 15 43 14.9970000  0  6G 1G20G11G14G22G25
 -12459947.73449  -9693420.84846  20305293.1184   20305291.9664
      3318.9364
  -5217340.09848  -4028717.13743  22284823.2824   22284820.9784
      4456.6834
  -9744614.88349  -7579417.84046  20293014.0794   20293011.1814
      2123.3514
   1521913.27348   1182425.33644  21037726.8294   21037724.9114
      -934.7954
   2496596.32848   1939467.21143  22999659.3454   22999658.2824
     -1097.7674
 -12395018.17648  -9644626.48846  20066570.7434   20066568.8374
      3080.7964
 04  9 10 15 43 29.9970000  0  6G 1G20G11G14G22G25
 -12509646.45349  -9732147.10545  20295836.0094   20295834.1654
      3313.2484
  -5284171.00848  -4080793.16443  22272106.6184   22272103.1304
      4455.3944
  -9776324.18048  -7604126.38746  20286980.0094   20286977.0634
      2113.9534
   1535979.30948   1193385.85944  21040404.0404   21040401.9464
      -937.7364
   2513100.10547   1952327.26642  23002800.3844   23002799.0914
     -1100.2524
 -12441100.92249  -9680535.11746  20057801.6964   20057799.5364
      3072.1834
 04  9 10 15 43 44.9970000  0  6G 1G20G11G14G22G25
 -12559258.96149  -9770806.18045  20286394.6264   20286393.3804
      3307.5014
  -5350981.64148  -4132853.37543  22259392.0874   22259389.6464
      4454.0424
  -9807891.58648  -7628724.38346  20280973.2204   20280969.8174
      2104.4944
   1550090.07048   1204381.22344  21043088.7124   21043086.8414
      -940.7174
   2529642.05548   1965217.04342  23005948.2044   23005946.2354
     -1102.7974
 -12487053.29348  -9716342.16046  20049057.0244   20049054.8964
      3063.4914
 04  9 10 15 43 59.9970000  0  6G 1G20G11G14G22G25
 -12608786.48449  -9809399.04746  20276970.2594   20276968.5094
      3301.8354
  -5417773.12148  -4184898.67243  22246682.1264   22246680.0714
      4452.7654
  -9839318.33249  -7653212.77045  20274992.5094   20274989.5754
      2095.1164
   1564244.13748   1215410.33644  21045782.1184   21045780.0994
      -943.6044
   2546220.80947   1978135.52042  23009102.9234   23009101.5244
     -1105.2504
 -12532876.47749  -9752048.53146  20040337.1734   20040335.1494
      3054.8794
 04  9 10 15 44 14.9970000  0  6G 1G20G11G14G22G25
 -12658228.13349  -9847925.00846  20267561.5564   20267560.0714
      3296.1104
  -5484544.50448  -4236928.31243  22233975.2824   22233973.9034
      4451.4264
  -9870603.50448  -7677590.84445  20269039.2354   20269036.7634
      2085.6784
   1578442.26648   1226473.79344  21048483.8604   21048482.2824
      -946.5424
   2562837.30147   1991083.36742  23012264.7594   23012263.4074
     -1107.7664
 -12578569.44149  -9787653.43746  20031642.3844   20031640.5714
      3046.1984
 04  9 10 15 44 29.9970000  0  6G 1G20G11G14G22G25
 -12707584.48049  -9886384.47746  20258169.8604   20258168.4424
      3290.4234
  -5551296.14148  -4288942.55943  22221273.3764   22221272.0954
      4450.1094
  -9901747.37548  -7701858.78946  20263112.3134   20263110.1734
      2076.2584
   1592683.59048   1237570.89544  21051193.9934   21051192.3024
      -949.4224
   2579490.92647   2004060.17242  23015433.8994   23015433.1104
     -1110.2424
 -12624132.53149  -9823157.13746  20022971.6344   20022970.1384
      3037.5394
 04  9 10 15 44 44.9970000  0  6G 1G20G11G14G22G25
 -12756855.84049  -9924777.73846  20248793.5714   20248792.4504
      3284.7574
  -5618028.15248  -4340941.52343  22208574.5794   22208573.1304
      4448.8014
  -9932750.24649  -7726016.86746  20257213.0954   20257210.4814
      2066.8584
   1606967.57848   1248701.24644  21053912.3534   21053910.3254
      -952.2664
   2596181.41047   2017065.68042  23018609.8924   23018609.1814
     -1112.6994
 -12669565.95749  -9858559.80546  20014326.0014   20014324.1144
      3028.8954
 04  9 10 15 44 59.9970000  0  6G 1G20G11G14G22G25
 -12806041.42649  -9963104.13346  20239433.4934   20239432.6964
      3279.0394
  -5684739.70348  -4392924.57043  22195880.0794   22195878.0244
      4447.4374
  -9963611.27748  -7750064.43446  20251340.5174   20251337.2554
      2057.4024
   1621294.92248   1259865.37144  21056639.2674   21056636.2634
      -955.1564
   2612909.42247   2030100.44142  23021793.3294   23021792.8564
     -1115.2014
 -12714868.73448  -9893860.67646  20005705.1884   20005702.9704
      3020.1854
 04  9 10 15 45 14.9970000  0  6G 1G20G11G14G22G25
 -12855140.77349 -10001363.33246  20230090.4384   20230089.2044
      3273.2904
  -5751430.24248  -4444891.21943  22183189.4234   22183187.0954
      4446.0364
  -9994330.08648  -7774001.18046  20245494.6344   20245491.5714
      2047.9214
   1635665.77348   1271063.42244  21059373.7674   21059370.8564
      -958.0574
   2629675.28147   2043164.69142  23024983.7904   23024983.3414
     -1117.7244
 -12760040.21148  -9929059.21946  19997109.1734   19997107.4854
      3011.4324
 04  9 10 15 45 29.9970000  0  6G 1G20G11G14G22G25
 -12904155.62949 -10039556.73046  20220763.4624   20220761.8134
      3267.6574
  -5818101.32048  -4496842.71143  22170501.8604   22170500.2394
      4444.7394
 -10024908.32848  -7797828.39546  20239675.5094   20239673.2084
      2038.5494
   1650078.11348   1282293.79344  21062116.1494   21062114.1774
      -960.8234
   2646477.22747   2056257.07042  23028181.2514   23028180.1734
     -1120.1304
 -12805081.91848  -9964156.64546  19988538.2984   19988536.4544
      3002.7804
 04  9 10 15 45 44.9970000  0  6G 1G20G11G14G22G25
 -12953086.04349 -10077684.30945  20211452.1104   20211450.6064
      3262.0284
  -5884752.95347  -4548779.03143  22157818.7284   22157816.9704
      4443.4424
 -10055345.83248  -7821545.93446  20233883.8134   20233881.4464
      2029.1674
   1664531.77048   1293556.35944  21064866.2984   21064864.2514
      -963.5774
   2663315.26647   2069377.54742  23031386.2514   23031384.5364
     -1122.5364
 -12849993.93048  -9999153.00846  19979991.7434   19979989.3604
      2994.1344
 04  9 10 15 45 59.9960000  0  6G 1G20G11G14G22G25
 -13001927.40649 -10115742.49645  20202157.8714   20202156.2974
      3256.0914
  -5951379.08248  -4600695.46943  22145140.0824   22145138.5554
      4441.7424
 -10085639.14149  -7845151.12146  20228119.2704   20228116.0354
      2019.5544
   1679027.02348   1304851.32844  21067624.6134   21067622.8284
      -966.3504
   2680189.54347   2082526.30142  23034596.6844   23034595.2234
     -1124.9524
 -12894771.68449 -10034044.77046  19971470.6214   19971468.5984
      2985.1844
 04  9 10 15 46 14.9960000  0  6G 1G20G11G14G22G25
 -13050686.44549 -10153736.54345  20192879.4814   20192877.6764
      3250.6034
  -6017988.70348  -4652599.06243  22132464.5514   22132462.7974
      4440.6414
 -10115792.53948  -7868647.27746  20222381.5904   20222377.9144
      2010.2274
   1693565.36747   1316179.86344  21070391.3714   21070389.4844
      -969.2234
   2697102.17646   2095704.93042  23037814.5044   23037813.4654
     -1127.5094
 -12939421.10248 -10068836.52746  19962974.0824   19962972.3014
      2976.6284
 04  9 10 15 46 29.9960000  0  6G 1G20G11G14G22G25
 -13099358.91849 -10191663.13746  20183617.3404   20183616.0864
      3244.8324
  -6084576.32448  -4704485.50843  22119793.1844   22119791.3244
      4439.1754
 -10145803.05148  -7892032.10546  20216670.7854   20216667.4024
      2000.7014
   1708146.55947   1327541.80944  21073165.7544   21073163.9344
      -972.0794
   2714052.76246   2108913.10942  23041039.8244   23041038.9694
     -1130.0394
 -12983938.22748 -10103525.18046  19954502.6374   19954500.9694
      2967.8084
 04  9 10 15 46 44.9960000  0  6G 1G20G11G14G22G25
 -13147946.03949 -10229523.20346  20174371.4414   20174370.3874
      3239.1414
  -6151142.93447  -4756355.57442  22107126.1604   22107123.8984
      4437.7744
 -10175671.70348  -7915306.38746  20210986.9494   20210983.8284
      1991.2434
   1722769.14147   1338935.98844  21075948.5824   21075946.7854
      -974.8394
   2731040.23446   2122150.04742  23044273.3954   23044271.9694
     -1132.4984
 -13028324.05949 -10138111.54746  19946056.3244   19946054.7734
      2959.0554
 04  9 10 15 46 59.9960000  0  6G 1G20G11G14G22G25
 -13196448.21949 -10267317.09846  20165141.7544   20165140.2464
      3233.4794
  -6217688.78147  -4808209.44943  22094462.9814   22094460.6294
      4436.3904
 -10205399.02748  -7938470.54346  20205329.9964   20205327.4024
      1981.8224
   1737432.54748   1350361.99244  21078739.5354   21078736.8484
      -977.5604
   2748063.99247   2135415.24242  23047512.7854   23047512.0204
     -1134.9174
 -13072578.81248 -10172595.76646  19937635.1994   19937633.1764
      2950.3174
 04  9 10 15 47 14.9960000  0  6G 1G20G11G14G22G25
 -13244864.79749 -10305044.29346  20155928.3404   20155927.2074
      3227.7724
  -6284213.11748  -4860046.58643  22081803.8164   22081801.6994
      4434.9564
 -10234984.15249  -7961523.90246  20199700.2544   20199696.8754
      1972.3424
   1752137.36748   1361820.25844  21081537.3874   21081535.1684
      -980.3214
   2765124.78547   2148709.32442  23050758.5664   23050759.1454
     -1137.3864
 -13116701.84849 -10206977.34446  19929238.9104   19929236.4574
      2941.5364
 04  9 10 15 47 29.9960000  0  6G 1G20G11G14G22G25
 -13293195.04349 -10342704.21545  20146731.4654   20146729.9774
      3222.0164
  -6350715.03148  -4911866.25843  22069149.1214   22069147.2114
      4433.4614
 -10264426.30548  -7984465.85246  20194097.5984   20194094.4024
      1962.8104
   1766883.98848   1373311.10544  21084343.6524   21084341.7624
      -983.1084
   2782223.30547   2162032.79742  23054013.0824   23054012.4304
     -1139.9014
 -13160692.24648 -10241255.57446  19920867.6764   19920865.5904
      2932.6934
 04  9 10 15 47 44.9960000  0  6G 1G20G11G14G22G25
 -13341439.52749 -10380297.31246  20137550.6454   20137549.5864
      3216.2994
  -6417194.97748  -4963668.80143  22056498.1064   22056496.3524
      4431.9964
 -10293725.93448  -8007296.73445  20188521.7154   20188519.3594
      1953.3094
   1781671.66848   1384833.93844  21087158.0824   21087155.7974
      -985.8454
   2799358.94547   2175385.21542  23057273.6844   23057273.1844
     -1142.3764
 -13204550.35948 -10275430.71946  19912521.3794   19912520.2234
      2923.8744
 04  9 10 15 47 59.9960000  0  6G 1G20G11G14G22G25
 -13389599.78549 -10417824.75846  20128386.2384   20128385.3204
      3210.6844
  -6483654.36748  -5015455.33243  22043850.9814   22043849.2034
      4430.6264
 -10322884.49249  -8030017.70746  20182973.4104   20182970.1914
      1943.9044
   1796498.66848   1396387.42644  21089979.3874   21089977.2114
      -988.4674
   2816530.11347   2188765.25042  23060541.5904   23060540.1684
     -1144.7454
 -13248277.55149 -10309503.84446  19904200.6134   19904198.8204
      2915.1464
 04  9 10 15 48 14.9960000  0  6G 1G20G11G14G22G25
 -13437674.85949 -10455285.84046  20119238.0744   20119236.7894
      3205.0054
  -6550092.17248  -5067225.03943  22031208.4264   22031206.5434
      4429.1874
 -10351901.03548  -8052628.00046  20177451.3954   20177448.4264
      1934.4364
   1811365.84448   1407972.20744  21092808.5354   21092806.5594
      -991.1454
   2833737.64547   2202173.66842  23063816.2074   23063814.0234
     -1147.1694
 -13291872.77349 -10343474.14846  19895904.6914   19895902.6064
      2906.3484
 04  9 10 15 48 29.9960000  0  6G 1G20G11G14G22G25
 -13485665.77049 -10492681.34846  20110105.2464   20110104.4534
      3199.3944
  -6616509.16848  -5118978.53543  22018570.1374   22018568.0744
      4427.8004
 -10380776.55549  -8075128.42245  20171956.4654   20171953.5474
      1925.0354
   1826271.87548   1419587.27744  21095645.1294   21095643.3014
      -993.7354
   2850980.50046   2215609.59842  23067097.5204   23067095.9064
     -1149.5244
 -13335336.91049 -10377342.29346  19887633.7384   19887631.6564
      2897.6094
 04  9 10 15 48 44.9960000  0  6G 1G20G11G14G22G25
 -13533570.59849 -10530009.77346  20100989.5124   20100988.2274
      3193.6554
  -6682903.26648  -5170714.18443  22005935.6914   22005933.7344
      4426.2734
 -10409509.07449  -8097517.40245  20166488.8794   20166486.1604
      1915.5014
   1841218.52048   1431233.97344  21098489.1994   21098488.0634
      -996.4434
   2868260.54347   2229074.54342  23070386.0044   23070384.9494
     -1152.0034
 -13378667.89149 -10411106.68746  19879388.2544   19879386.0084
      2888.7324
 04  9 10 15 48 59.9960000  0  6G 1G20G11G14G22G25
 -13581391.24249 -10567272.60946  20091889.6454   20091887.9304
      3188.0434
  -6749276.25448  -5222433.41443  21993305.7704   21993303.4614
      4424.8664
 -10438100.43448  -8119796.39145  20161048.0354   20161045.4104
      1906.0914
   1856203.82048   1442910.80944  21101340.7774   21101339.1484
      -999.0204
   2885576.00446   2242567.06342  23073680.5664   23073680.2344
     -1154.3644
 -13421867.41049 -10444768.64846  19871167.8244   19871165.5554
      2879.9684
 04  9 10 15 49 14.9960000  0  6G 1G20G11G14G22G25
 -13629127.06249 -10604469.32846  20082805.1134   20082804.0664
      3182.3884
  -6815627.39848  -5274135.63743  21980679.3404   21980676.8054
      4423.4104
 -10466550.00449  -8141964.89545  20155634.3484   20155631.7074
      1896.6384
   1871228.09448   1454617.99644  21104199.9024   21104198.0514
     -1001.6184
   2902927.42646   2256087.59442  23076982.7704   23076981.6644
     -1156.7614
 -13464934.79349 -10478327.63746  19862972.1454   19862970.4814
      2871.1594
 04  9 10 15 49 29.9960000  0  6G 1G20G11G14G22G25
 -13676777.16849 -10641599.27346  20073738.1844   20073736.8204
      3176.6744
  -6881955.61748  -5325819.95743  21968056.8714   21968054.4964
      4421.8814
 -10494856.85548  -8164022.18446  20150247.4964   20150245.0514
      1887.1234
   1886292.03148   1466356.10944  21107066.5204   21107064.2194
     -1004.2624
   2920315.60546   2269636.77042  23080291.9734   23080290.1374
     -1159.2124
 -13507868.91848 -10511782.80146  19854801.8794   19854800.4534
      2862.2754
 04  9 10 15 49 44.9960000  0  6G 1G20G11G14G22G25
 -13724344.88749 -10678665.02046  20064686.1374   20064684.2344
      3171.1814
  -6948264.12948  -5377488.92643  21955438.9414   21955437.1334
      4420.5674
 -10523024.12149  -8185970.71946  20144887.8714   20144885.0274
      1877.8184
   1901392.09448   1478122.35544  21109939.8634   21109938.2074
     -1006.6714
   2937737.15646   2283211.95342  23083606.9264   23083605.7934
     -1161.4374
 -13550673.08648 -10545136.69146  19846656.6454   19846654.7074
      2853.6114
 04  9 10 15 49 59.9960000  0  6G 1G20G11G14G22G25
 -13771827.26649 -10715664.27746  20055650.4734   20055649.1844
      3165.4924
  -7014549.76648  -5429140.05543  21942825.2234   21942824.1254
      4419.0424
 -10551048.93748  -8207808.24246  20139554.7074   20139552.9614
      1868.3214
   1916531.18448   1489919.02044  21112820.6294   21112818.5594
     -1009.2734
   2955195.08246   2296815.49242  23086929.6454   23086927.5434
     -1163.8624
 -13593344.18049 -10578386.89146  19838536.5514   19838534.7504
      2844.7404
 04  9 10 15 50 14.9960000  0  6G 1G20G11G14G22G25
 -13819223.55149 -10752596.44946  20046631.4024   20046630.0744
      3159.7524
  -7080811.65648  -5480772.68443  21930216.0904   21930214.1884
      4417.4594
 -10578930.39549  -8229534.07046  20134249.1764   20134247.2504
      1858.7644
   1931709.77348   1501746.46144  21115709.0904   21115706.9344
     -1011.9064
   2972690.01246   2310447.87142  23090258.7774   23090255.7584
     -1166.3294
 -13635881.28548 -10611532.67646  19830442.0984   19830439.8874
      2835.8074
 04  9 10 15 50 29.9960000  0  5G 1G20G11G14G25
 -13866534.07449 -10789461.78546  20037628.6374   20037627.1684
      3154.0354
  -7147049.91048  -5532386.87143  21917610.9104   21917609.3714
      4415.8844
 -10606668.71548  -8251148.34046  20128970.6214   20128968.9884
      1849.2214
   1946927.37148   1513604.30544  21118605.2624   21118603.0514
     -1014.5074
 -13678284.55948 -10644574.18446  19822373.0204   19822371.0354
      2826.8854
 04  9 10 15 50 44.9960000  0  5G 1G20G11G14G25
 -13913760.14149 -10826261.30946  20028641.9184   20028640.0704
      3148.4044
  -7213265.65248  -5583983.53943  21905010.5744   21905008.6804
      4414.3834
 -10634265.33248  -8272652.19945  20123719.0124   20123716.7704
      1839.7744
   1962182.48048   1525491.37544  21121507.9184   21121506.0744
     -1017.0074
 -13720555.26649 -10677512.38746  19814329.2154   19814327.4774
      2818.0474
 04  9 10 15 50 59.9960000  0  5G 1G20G11G14G25
 -13960901.57049 -10862994.89846  20019671.1684   20019669.3134
      3142.7624
  -7279458.68448  -5635562.52743  21892414.7384   21892412.4844
      4412.8694
 -10661719.96549  -8294045.41046  20118494.7854   20118492.4924
      1830.3094
   1977475.16049   1537407.71944  21124417.9494   21124416.3674
     -1019.5124
 -13762692.89549 -10710346.89546  19806310.7464   19806308.9224
      2809.1754
 04  9 10 15 51 14.9960000  0  5G 1G20G11G14G25
 -14007958.42649 -10899662.57446  20010716.1294   20010714.8794
      3137.1244
  -7345628.87948  -5687123.72343  21879823.0824   21879821.1954
      4411.3464
 -10689032.57048  -8315327.97346  20113297.5824   20113294.7664
      1820.8404
   1992805.09448   1549353.09044  21127335.4184   21127333.5634
     -1021.9964
 -13804697.44549 -10743077.71146  19798317.5824   19798315.4304
      2800.3034
 04  9 10 15 51 29.9960000  0  5G 1G20G11G14G25
 -14054928.01649 -10936262.23846  20001778.1524   20001776.9024
      3131.3064
  -7411773.23048  -5738664.76243  21867236.2074   21867234.3914
      4409.6234
 -10716200.34048  -8336497.66445  20108127.2704   20108124.1524
      1811.1854
   2008174.87548   1561329.51644  21130259.9414   21130258.0944
     -1024.6524
 -13846566.14149 -10775702.65646  19790350.3634   19790348.4184
      2791.2464
 04  9 10 15 51 44.9960000  0  5G 1G20G11G14G25
 -14101810.68449 -10972794.18746  19992856.8164   19992855.8444
      3125.5114
  -7477892.07048  -5790185.92643  21854654.1064   21854651.9224
      4407.9234
 -10743223.66848  -8357554.81645  20102985.1764   20102981.6564
      1801.5554
   2023583.92249   1573336.53944  21133192.3324   21133190.0394
     -1027.2704
 -13888299.14849 -10808221.87946  19782408.5824   19782406.8594
      2782.2014
 04  9 10 15 51 59.9960000  0  5G 1G20G11G14G25
 -14148605.27749 -11009257.49246  19983951.9734   19983951.1294
      3119.6404
  -7543984.07848  -5841686.16842  21842077.3094   21842074.2424
      4406.1344
 -10770101.37548  -8378498.50445  20097870.5744   20097867.3284
      1791.8474
   2039033.23449   1585374.94544  21136132.6134   21136130.2704
     -1029.9544
 -13929895.27048 -10840634.43746  19774493.1844   19774491.1374
      2773.0754
 04  9 10 15 52 14.9960000  0  5G 1G20G11G14G25
 -14195313.62949 -11045653.59446  19975063.8324   19975062.3954
      3113.8904
  -7610051.02748  -5893166.90643  21829504.9734   21829502.3014
      4404.4634
 -10796835.30548  -8399330.14145  20092783.4264   20092780.2424
      1782.2624
   2054520.75449   1597443.11744  21139079.4024   21139077.2894
     -1032.5014
 -13971356.24649 -10872941.67246  19766603.3714   19766601.3054
      2764.0654
 04  9 10 15 52 29.9960000  0  5G 1G20G11G14G25
 -14241934.68749 -11081981.69546  19966191.9964   19966190.8014
      3108.0714
  -7676091.65648  -5944627.13343  21816938.0274   21816935.6954
      4402.7094
 -10823424.27049  -8420048.82846  20087723.3954   20087720.5164
      1772.5984
   2070047.46948   1609541.82844  21142034.0904   21142032.2974
     -1035.1144
 -14012680.88349 -10905142.68746  19758739.7154   19758737.4734
      2754.9764
 04  9 10 15 52 44.9960000  0  5G 1G20G11G14G25
 -14288471.31249 -11118243.98046  19957336.4104   19957334.7464
      3102.4424
  -7742108.60248  -5996068.89843  21804375.3014   21804373.5704
      4401.1304
 -10849871.17249  -8440656.80545  20082690.9494   20082688.1644
      1763.1274
   2085610.19148   1621668.60544  21144995.7544   21144994.2114
     -1037.5154
 -14053871.86749 -10937239.55546  19750901.0984   19750899.1414
      2746.0664
 04  9 10 15 52 59.9960000  0  5G 1G20G11G14G25
 -14334924.23449 -11154441.06246  19948496.6524   19948495.3524
      3096.8614
  -7808102.42648  -6047492.63743  21791816.9414   21791815.1914
      4399.5884
 -10876176.62549  -8461154.59045  20077685.1764   20077682.4924
      1753.6974
   2101208.05548   1633822.76244  21147963.7544   21147962.4494
     -1039.8584
 -14094929.86749 -10969232.80146  19743088.3014   19743085.9384
      2737.2004
 04  9 10 15 53 14.9960000  0  5G 1G20G11G14G25
 -14381292.02049 -11190571.79746  19939673.4734   19939672.0594
      3091.1864
  -7874071.52348  -6098897.11743  21779263.4184   21779261.2034
      4397.9404
 -10902339.27349  -8481541.06646  20072706.5124   20072703.9774
      1744.1774
   2116842.40248   1646005.33244  21150938.6604   21150937.6064
     -1042.2904
 -14135853.36349 -11001121.23446  19735300.2774   19735298.4924
      2728.2334
 04  9 10 15 53 29.9960000  0  5G 1G20G11G14G25
 -14427575.04749 -11226636.48046  19930866.0204   19930864.2664
      3085.5354
  -7940016.22748  -6150282.56643  21766714.7774   21766712.4304
      4396.3144
 -10928359.38349  -8501816.49646  20067755.2234   20067752.6844
      1734.6744
   2132512.58248   1658215.84044  21153920.9264   21153919.6724
     -1044.6794
 -14176642.46549 -11032904.94546  19727538.7854   19727536.7194
      2719.2734
 04  9 10 15 53 44.9960000  0  5G 1G20G11G14G25
 -14473773.63749 -11262635.36746  19922074.5664   19922073.2344
      3079.9064
  -8005936.60248  -6201649.09843  21754170.5594   21754168.1764
      4394.6924
 -10954237.25449  -8521981.07446  20062830.4964   20062827.8914
      1725.1914
   2148218.11748   1670453.87944  21156909.4884   21156908.1724
     -1047.0364
 -14217297.31649 -11064584.03946  19719802.2074   19719800.1064
      2710.3234
 04  9 10 15 53 59.9960000  0  5G 1G20G11G14G25
 -14519889.21149 -11298569.58246  19913298.9414   19913297.8444
      3074.3724
  -8071833.88348  -6252997.63343  21741630.6064   21741628.1094
      4393.1524
 -10979974.07048  -8542035.75046  20057933.0274   20057930.0354
      1715.7884
   2163957.45348   1682718.28144  21159904.8634   21159903.3134
     -1049.2894
 -14257819.21949 -11096159.54346  19712091.3794   19712089.3954
      2701.4604
 04  9 10 15 54 14.9960000  0  5G 1G20G11G14G25
 -14565919.77049 -11334437.53946  19904539.6454   19904538.3404
      3068.7044
  -8137705.89148  -6304326.46943  21729095.4884   21729092.9144
      4391.4674
 -11005567.84449  -8561978.96545  20053062.7074   20053059.5044
      1706.2524
   2179732.46948   1695010.45744  21162906.3164   21162905.0554
     -1051.6684
 -14298206.00849 -11127629.76646  19704405.5824   19704404.0944
      2692.4534
 04  9 10 15 54 29.9960000  0  5G 1G20G11G14G25
 -14611864.91849 -11370238.92646  19895796.9414   19895794.9264
      3063.0104
  -8203552.12548  -6355635.23443  21716565.5204   21716563.0984
      4389.7494
 -11031018.30949  -8581810.48846  20048219.8404   20048216.8524
      1696.6984
   2195543.37148   1707330.60544  21165915.1454   21165913.9104
     -1054.0604
 -14338457.34449 -11158994.43046  19696746.0744   19696744.7814
      2683.4224
 04  9 10 15 54 44.9960000  0  5G 1G20G11G14G25
 -14657727.50849 -11405976.01646  19887069.2154   19887067.5394
      3057.5064
  -8269375.18748  -6406925.94543  21704039.9884   21704037.8404
      4388.2044
 -11056328.26649  -8601532.53546  20043403.2384   20043400.7974
      1687.3304
   2211387.10948   1719676.34444  21168930.1994   21168928.8634
     -1056.2494
 -14378575.89849 -11190255.64546  19689111.9414   19689110.1604
      2674.5704
 04  9 10 15 54 59.9960000  0  5G 1G20G11G14G25
 -14703506.66449 -11441648.07446  19878357.8714   19878356.3594
      3051.9444
  -8335174.05547  -6458197.75843  21691518.3164   21691516.6524
      4386.5914
 -11081496.85549  -8621144.43746  20038613.8014   20038611.8014
      1677.9064
   2227264.50048   1732048.28944  21171951.6764   21171950.0704
     -1058.4934
 -14418560.77049 -11221412.68446  19681502.9494   19681501.1294
      2665.6584
 04  9 10 15 55 14.9960000  0  5G 1G20G11G14G25
 -14749200.77349 -11477253.87146  19869662.3794   19869661.1644
      3046.2744
  -8400947.02348  -6509449.41443  21679002.1134   21679000.6954
      4384.8654
 -11106522.48449  -8640644.93046  20033851.6764   20033848.9184
      1668.3754
   2243176.71548   1744447.38744  21174979.9964   21174978.9144
     -1060.8144
 -14458410.30549 -11252464.26246  19673919.8094   19673918.3244
      2656.6364
 04  9 10 15 55 29.9960000  0  5G 1G20G11G14G25
 -14794809.86749 -11512793.41846  19860983.2154   19860982.1214
      3040.6064
  -8466693.95348  -6560680.79743  21666491.3164   21666489.1214
      4383.1294
 -11131404.97349  -8660033.89146  20029116.9264   20029114.0044
      1658.8334
   2259123.75848   1756873.60544  21178014.5984   21178012.9304
     -1063.1364
 -14498124.18449 -11283410.13346  19666362.7154   19666360.8134
      2647.5924
 04  9 10 15 55 44.9960000  0  5G 1G20G11G14G25
 -14840335.61349 -11548268.02346  19852320.0434   19852318.8444
      3035.0504
  -8532416.35548  -6611893.05543  21653984.4574   21653982.7854
      4381.4934
 -11156146.03149  -8679312.64546  20024408.8404   20024405.9304
      1649.4044
   2275103.71948   1769325.49244  21181055.1994   21181053.0394
     -1065.3314
 -14537704.05549 -11314251.58646  19658830.9104   19658829.0904
      2638.6584
 04  9 10 15 55 59.9960000  0  5G 1G20G11G14G25
 -14885779.52049 -11583678.84446  19843672.3634   19843671.2234
      3029.5944
  -8598115.47748  -6663087.16843  21641482.6064   21641481.1454
      4379.9414
 -11180747.05949  -8698482.26646  20019727.2774   20019724.7194
      1640.0684
   2291115.00448   1781801.79344  21184102.2934   21184099.9024
     -1067.4194
 -14577151.34049 -11344989.71146  19651324.3954   19651322.6764
      2629.8194
 04  9 10 15 56 14.9960000  0  5G 1G20G11G14G25
 -14931140.93749 -11619025.38746  19835040.0984   19835039.4844
      3024.0954
  -8663790.41448  -6714262.44544  21628985.3094   21628983.6094
      4378.3294
 -11205207.39549  -8717542.28546  20015072.6064   20015070.2544
      1630.6894
   2307158.14848   1794302.91044  21187155.4344   21187152.9814
     -1069.5434
 -14616465.00849 -11375623.75446  19643843.1454   19643841.2034
      2620.9114
 04  9 10 15 56 29.9960000  0  6G 1G20G11G14G23G25
 -14976419.12149 -11654307.07846  19826424.2854   19826423.0474
      3018.5464
  -8729440.35948  -6765418.25044  21616492.8244   21616490.6684
      4376.6634
 -11229526.31249  -8736492.09045  20010444.9264   20010441.6334
      1621.2614
   2323233.68848   1806829.28144  21190213.7774   21190212.1064
     -1071.7034
   -199712.78954   -143146.29752  22899555.6764   22899553.0554

 -14655644.46949 -11406153.19146  19636387.5744   19636385.4224
      2611.9644
 04  9 10 15 56 44.9960000  0  6G 1G20G11G14G23G25
 -15021615.15249 -11689524.76246  19817823.4024   19817822.7424
      3013.0694
  -8795066.25048  -6816555.28943  21604004.4104   21604002.2934
      4375.0594
 -11253705.02349  -8755332.64546  20005844.0664   20005840.5234
      1611.9144
   2339340.27748   1819379.83244  21193279.0044   21193276.9964
     -1073.7734
   -268191.84844   -196506.57042  22886524.2234   22886521.4454
      4565.2714
 -14694690.70749 -11436578.82446  19628957.4414   19628955.1134
      2603.0834
 04  9 10 15 56 59.9960000  0  6G 1G20G11G14G23G25
 -15066729.10249 -11724678.49246  19809238.6524   19809237.4844
      3007.5974
  -8860667.91848  -6867673.46543  21591520.3244   21591518.2584
      4373.4454
 -11277743.37549  -8774063.84446  20001269.6064   20001266.3164
      1602.5574
   2355477.77048   1831954.48044  21196349.7704   21196348.0864
     -1075.8334
   -336634.76644   -249838.65642  22873500.5044   22873496.7314
      4562.8614
 -14733603.53949 -11466900.50846  19621552.2624   19621550.4574
      2594.1894
 04  9 10 15 57 14.9960000  0  6G 1G20G11G14G23G25
 -15111761.03949 -11759768.29746  19800669.6294   19800668.2464
      3002.1294
  -8926245.28148  -6918772.72343  21579041.3874   21579038.9614
      4371.8244
 -11301641.45349  -8792685.71946  19996721.9024   19996719.1094
      1593.2054
   2371646.01648   1844553.07044  21199426.6294   21199425.1254
     -1077.8834
   -405041.39543   -303142.58641  22860482.2464   22860478.7814
      4560.4424
 -14772382.94949 -11497118.22746  19614172.8714   19614171.1724
      2585.2944
 04  9 10 15 57 29.9960000  0  6G 1G20G11G14G23G25
 -15156710.00449 -11794793.45746  19792116.2704   19792114.7854
      2996.5984
  -8991797.23448  -6969852.15243  21566567.1294   21566564.5704
      4370.1304
 -11325398.36349  -8811197.61346  19992201.1604   19992198.2154
      1583.7944
   2387845.68448   1857176.15244  21202509.6214   21202507.9884
     -1079.9784
   -473410.98043   -356417.55941  22847471.9654   22847468.8134
      4557.9724
 -14811027.98049 -11527231.23046  19606819.2934   19606817.1024
      2576.3354
 04  9 10 15 57 44.9960000  0  6G 1G20G11G14G23G25
 -15201576.91449 -11829754.67646  19783578.4024   19783576.4064
      2991.1274
  -9057324.44948  -7020912.31643  21554098.4654   21554095.4104
      4368.4814
 -11349014.94549  -8829600.15246  19987707.2384   19987704.1334
      1574.4394
   2404075.73448   1869822.91444  21205598.2314   21205596.1764
     -1082.0034
   -541744.08243   -409664.10241  22834469.2854   22834465.8874
      4555.5404
 -14849539.37549 -11557240.10247  19599490.4964   19599488.6844
      2567.4264
 04  9 10 15 57 59.9960000  0  6G 1G20G11G14G23G25
 -15246361.90649 -11864652.07446  19775055.8874   19775054.4384
      2985.6664
  -9122826.81248  -7071953.12943  21541633.5744   21541631.3054
      4366.8244
 -11372491.32849  -8847893.44546  19983239.5124   19983236.8564
      1565.0924
   2420335.83648   1882493.10244  21208692.6914   21208690.7774
     -1084.0074
   -610040.69554   -462882.24651  22821474.8714   22821469.9264
      4553.1084
 -14887917.03949 -11587144.77746  19592187.3794   19592185.5354
      2558.5114
 04  9 10 15 58 14.9960000  0  5G 1G20G11G14G25
 -15291064.83649 -11899485.52346  19766548.9264   19766548.0824
      2980.1954
  -9188304.05148  -7122974.34443  21529173.4964   21529171.5594
      4365.1494
 -11395827.14849  -8866077.21146  19978799.0354   19978796.3634
      1555.7214
   2436626.12948   1895186.80544  21211791.8404   21211790.7544
     -1086.0204
 -14926160.83249 -11616945.12546  19584910.0594   19584907.9964
      2549.5864
 04  9 10 15 58 29.9960000  0  5G 1G20G11G14G25
 -15335683.93049 -11934253.62946  19758058.2074   19758057.4844
      2974.6064
  -9253754.32848  -7173974.55943  21516718.9184   21516716.9064
      4363.3524
 -11419020.93749  -8884150.31246  19974385.2384   19974382.6064
      1546.2534
   2452948.09047   1907905.17643  21214897.7154   21214897.0004
     -1088.1314
 -14964268.89849 -11646639.71546  19577658.3484   19577656.7194
      2540.5384
 04  9 10 15 58 44.9960000  0  5G 1G20G11G14G25
 -15380218.86749 -11968956.17646  19749583.5984   19749582.3874
      2968.9964
  -9319177.07848  -7224953.31644  21504269.7624   21504267.0824
      4361.5174
 -11442072.18049  -8902112.34046  19969998.9024   19969996.1954
      1536.7494
   2469301.89848   1920648.35944  21218010.4104   21218009.1684
     -1090.2544
 -15002240.80549 -11676228.20746  19570432.4414   19570430.4454
      2531.4604
 04  9 10 15 58 59.9960000  0  5G 1G20G11G14G25
 -15424673.02349 -12003595.78546  19741124.4414   19741122.7194
      2963.6104
  -9384575.57048  -7275913.16044  21491823.8634   21491822.4454
      4359.8994
 -11464984.29349  -8919965.94946  19965638.8164   19965636.2154
      1527.4744
   2485684.01248   1933413.61343  21221128.1294   21221126.7854
     -1092.1414
 -15040079.80949 -11705713.12946  19563232.0274   19563229.7854
      2522.6004
 04  9 10 15 59 14.9960000  0  6G 1G20G11G14G23G25
 -15469043.41049 -12038170.09846  19732680.8714   19732679.5904
      2958.0264
  -9449946.55148  -7326851.57443  21479384.7934   21479382.3094
      4358.0654
 -11487754.13749  -8937708.69946  19961305.8874   19961302.7274
      1517.9904
   2502097.40248   1946203.23043  21224251.2384   21224249.7854
     -1094.2264
   -950968.80914                  22756597.754

 -15077782.74649 -11735092.03946  19556057.2854   19556055.5204
      2513.5294
 04  9 10 15 59 29.9960000  0  6G 1G20G11G14G23G25
 -15513329.48449 -12072678.73046  19724253.4734   19724251.9774
      2952.4054
  -9515289.20348  -7377767.93043  21466950.6374   21466947.9814
      4356.1774
 -11510381.41849  -8955340.35946  19957000.1844   19956997.6174
      1508.4854
   2518542.28548   1959017.40244  21227380.5044   21227378.9264
     -1096.3264
  -1019037.73444   -781583.09051  22743645.7774   22743639.7584
      4537.9284
 -15115349.09449 -11764364.51246  19548908.8244   19548906.3244
      2504.4234
 04  9 10 15 59 44.9960000  0  6G 1G20G11G14G23G25
 -15557532.05149 -12107122.27746  19715841.8954   19715840.3134
      2946.8384
  -9580604.32048  -7428662.82443  21454521.3244   21454519.0944
      4354.3414
 -11532866.85249  -8972861.48446  19952721.0904   19952719.1174
      1499.0294
   2535017.80148   1971855.43044  21230515.6064   21230513.7504
     -1098.3684
  -1087067.86344   -834593.67641  22730700.4024   22730693.9964
      4535.3424
 -15152779.58249 -11793531.11746  19541785.7544   19541783.8164
      2495.3664
 04  9 10 15 59 59.9960000  0  6G 1G20G11G14G23G25
 -15601651.71549 -12141501.22746  19707446.2234   19707444.7034
      2941.3114
  -9645892.14148  -7479536.44943  21442097.4184   21442095.2734
      4352.5214
 -11555210.82449  -8990272.38346  19948469.5044   19948466.7154
      1489.5984
   2551523.25048   1984716.79344  21233656.5984   21233654.5434
     -1100.3634
  -1155059.91044   -887574.43741  22717762.3014   22717756.0514
      4532.8034
 -15190074.53549 -11822592.11346  19534688.9104   19534686.9494
      2486.3304
 04  9 10 16  0 14.9960000  0  6G 1G20G11G14G23G25
 -15645687.32449 -12175814.69146  19699066.6844   19699064.9884
      2935.7074
  -9711151.38348  -7530387.80543  21429678.9184   21429676.9654
      4350.6164
 -11577412.20349  -9007572.18446  19944244.7774   19944241.7464
      1480.0924
   2568059.60547   1997602.21944  21236803.6294   21236802.0944
     -1102.4244
  -1223012.43744   -940524.44541  22704830.1454   22704825.4494
      4530.1684
 -15227232.73049 -11851546.53946  19527617.6684   19527615.9654
      2477.2134
 04  9 10 16  0 29.9960000  0  6G 1G20G11G14G23G25
 -15689639.43749 -12210063.09046  19690703.0044   19690700.9774
      2930.1414
  -9776382.38748  -7581217.15643  21417266.2934   21417263.9414
      4348.7344
 -11599471.57449  -9024761.30146  19940046.6524   19940043.9144
      1470.6254
   2584626.14548   2010511.19143  21239955.9344   21239954.4024
     -1104.4364
  -1290926.04344   -993444.09841  22691905.6914   22691901.6914
      4527.5744
 -15264254.62549 -11880394.77346  19520572.5744   19520570.8364
      2468.1264
 04  9 10 16  0 44.9960000  0  6G 1G20G11G14G23G25
 -15733507.62549 -12244246.07446  19682354.9264   19682353.8874
      2924.5464
  -9841584.44948  -7632023.96943  21404858.4104   21404856.0704
      4346.8044
 -11621388.67649  -9041839.58646  19935876.1684   19935873.3914
      1461.1404
   2601223.19148   2023443.92243  21243114.4814   21243112.4924
     -1106.4704
  -1358800.00845  -1046332.86741  22678989.9344   22678985.7734
      4524.9314
 -15301139.75849 -11909136.41446  19513553.8484   19513551.6254
      2459.0094
 04  9 10 16  0 59.9960000  0  6G 1G20G11G14G23G25
 -15777292.14549 -12278363.87946  19674023.1294   19674022.1064
      2918.9684
  -9906757.87548  -7682808.45743  21392456.3014   21392453.4144
      4344.8954
 -11643163.69549  -9058807.13746  19931732.1524   19931730.2774
      1451.6684
   2617850.28148   2036400.07043  21246278.2074   21246275.9224
     -1108.4734
  -1426634.73045  -1099191.03541  22666081.3564   22666077.7274
      4522.3154
 -15337888.32449 -11937771.65646  19506560.8014   19506558.4534
      2449.9044
 04  9 10 16  1 14.9960000  0  6G 1G20G11G14G23G25
 -15820994.38349 -12312417.57446  19665706.9494   19665705.4224
      2913.4834
  -9971903.77748  -7733571.48443  21380059.0744   21380056.8054
      4343.0604
 -11664797.94149  -9075665.02046  19927615.8324   19927612.7504
      1442.2834
   2634505.89848   2049378.43444  21249448.3484   21249446.2464
     -1110.3744
  -1494431.37546  -1152019.60541  22653180.6844   22653177.6914
      4519.7764
 -15374501.51649 -11966301.41446  19499593.3794   19499591.4964
      2440.8794
 04  9 10 16  1 29.9960000  0  6G 1G20G11G14G23G25
 -15864615.22349 -12346407.82446  19657406.0984   19657404.7194
      2908.0564
 -10037022.77348  -7784313.55543  21367666.8244   21367665.8364
      4341.2664
 -11686292.44549  -9092414.00046  19923525.4344   19923522.5394
      1432.9674
   2651189.04348   2062378.25444  21252622.5204   21252620.9734
     -1112.2104
  -1562190.74646  -1204819.10942  22640287.0044   22640282.8484
      4517.2914
 -15410980.11349 -11994726.28146  19492651.9104   19492649.8364
      2431.9074
 04  9 10 16  1 44.9960000  0  6G 1G20G11G14G23G25
 -15908153.29749 -12380333.59446  19649121.0354   19649119.7974
      2902.5384
 -10102113.32048  -7835033.45344  21355281.7704   21355279.3874
      4339.3704
 -11707645.69949  -9109052.92646  19919462.2854   19919459.3324
      1423.5504
   2667900.90248   2075400.43443  21255802.7934   21255801.2344
     -1114.1244
  -1629911.43046  -1257588.46541  22627399.7154   22627394.5864
      4514.7124
 -15447322.79349 -12023045.23447  19485736.0274   19485734.1064
      2422.8454
 04  9 10 16  1 59.9960000  0  6G 1G20G11G14G23G25
 -15951608.79349 -12414195.01646  19640852.0744   19640850.3594
      2897.0334
 -10167175.47348  -7885731.23844  21342900.6604   21342897.7704
      4337.4774
 -11728857.76649  -9125581.81646  19915425.7464   19915422.9574
      1414.1384
   2684641.18048   2088444.77043  21258988.2314   21258986.6064
     -1116.0184
  -1697593.50046  -1310327.77341  22614520.3794   22614515.3364
      4512.1384
 -15483529.69149 -12051258.39547  19478845.9104   19478844.1684
      2413.7934
 04  9 10 16  2 14.9960000  0  6G 1G20G11G14G23G25
 -15994981.16049 -12447991.67246  19632598.4104   19632596.1724
      2891.4914
 -10232208.50848  -7936406.32843  21330525.4264   21330522.5314
      4335.5364
 -11749928.13349  -9142000.30146  19911416.0354   19911413.3054
      1404.6914
   2701410.15648   2101511.46943  21262178.7384   21262178.0394
     -1117.9324
  -1765236.30547  -1363036.40241  22601648.1844   22601643.6484
      4509.5204
 -15519600.09449 -12079365.19546  19471982.0204   19471980.2234
      2404.6934
 04  9 10 16  2 29.9960000  0  6G 1G20G11G14G23G25
 -16038270.42249 -12481723.55946  19624360.5274   19624358.8284
      2885.9514
 -10297212.15647  -7987058.52343  21318155.1994   21318153.1174
      4333.5774
 -11770856.92649  -9158308.46945  19907433.4964   19907430.7894
      1395.2534
   2718207.79348   2114600.51243  21265375.5434   21265374.4964
     -1119.8424
  -1832839.68746  -1415714.31242  22588783.6764   22588780.0394
      4506.8924
 -15555533.73449 -12107365.43046  19465144.0904   19465142.5084
      2395.5764
 04  9 10 16  2 44.9950000  0  6G 1G20G11G14G23G25
 -16081472.98849 -12515387.89146  19616139.2964   19616137.4174
      2880.1714
 -10362181.20347  -8037683.73843  21305792.0854   21305790.6124
      4331.2704
 -11791642.05949  -9174504.69946  19903478.0624   19903475.3354
      1385.6764
   2735033.66448   2127711.52743  21268577.4764   21268576.2264
     -1121.7254
  -1900398.14146  -1468357.28541  22575928.7024   22575923.1324
      4503.8974
 -15591327.46149 -12135256.64846  19458332.7104   19458330.8354
      2386.2484
 04  9 10 16  2 59.9950000  0  6G 1G20G11G14G23G25
 -16124594.94549 -12548989.40646  19607933.2964   19607931.9374
      2874.7974
 -10427124.35947  -8088288.79343  21293434.2884   21293431.4684
      4329.5444
 -11812286.47349  -9190591.28545  19899549.8514   19899546.9404
      1376.2944
   2751889.47748   2140845.90643  21271785.3194   21271783.8394
     -1123.7214
  -1967921.17246  -1520972.64141  22563078.8744   22563074.4524
      4501.5354
 -15626986.43049 -12163042.84447  19451546.9684   19451545.2414
      2377.2654
 04  9 10 16  3 14.9950000  0  6G 1G20G11G14G23G25
 -16167633.56249 -12582525.98046  19599743.5854   19599741.9094
      2869.2414
 -10492037.37546  -8138870.37143  21281081.4604   21281078.7884
      4327.5344
 -11832789.13349  -9206567.39845  19895648.1244   19895645.2654
      1366.8444
   2768773.73048   2154002.42243  21274998.7964   21274996.5154
     -1125.6174
  -2035404.35546  -1573556.93041  22550237.4444   22550233.9094
      4498.8794
 -15662508.28549 -12190722.19547  19444787.5464   19444785.6244
      2368.1244
 04  9 10 16  3 29.9950000  0  6G 1G20G11G14G23G25
 -16210588.94149 -12615997.70346  19591569.5074   19591567.5694
      2863.6924
 -10556920.07848  -8189428.31243  21268734.3744   21268732.7574
      4325.5144
 -11853150.03549  -9222433.05546  19891773.5304   19891771.0734
      1357.3934
   2785686.19948   2167180.94543  21278216.8584   21278215.0194
     -1127.4984
  -2102847.58246  -1626110.07442  22537402.5384   22537399.5194
      4496.2154
 -15697892.93049 -12218294.64546  19438054.3984   19438052.0734
      2358.9764
 04  9 10 16  3 44.9950000  0  6G 1G20G11G14G23G25
 -16253462.22749 -12649405.46546  19583410.8354   19583409.1324
      2858.2194
 -10621773.37547  -8239963.32044  21256393.2734   21256391.9404
      4323.5534
 -11873370.30949  -9238189.12546  19887925.6714   19887923.1754
      1348.0184
   2802625.64148   2180380.48043  21281439.8354   21281438.5234
     -1129.2964
  -2170251.89546  -1678632.89842  22524576.4834   22524572.5624
      4493.6214
 -15733141.44549 -12245761.01647  19431346.6714   19431344.5424
      2349.9014
 04  9 10 16  3 59.9950000  0  6G 1G20G11G14G23G25
 -16296252.90249 -12682748.83646  19575268.0154   19575266.8904
      2852.7124
 -10686596.51648  -8290474.85243  21244058.0774   21244055.6444
      4321.5434
 -11893449.48849  -9253835.25846  19884105.2334   19884102.4684
      1338.6124
   2819592.47748   2193601.35543  21284669.1164   21284667.4214
     -1131.1224
  -2237616.62546  -1731124.89142  22511757.3584   22511753.3784
      4490.9824
 -15768253.25049 -12273120.85946  19424664.8354   19424662.9564
      2340.7874
 04  9 10 16  4 14.9950000  0  6G 1G20G11G14G23G25
 -16338961.71549 -12716028.42646  19567140.6794   19567138.9564
      2847.2544
 -10751390.17648  -8340963.42643  21231728.3824   21231725.1514
      4319.5774
 -11913388.21949  -9269371.95746  19880310.5934   19880307.9404
      1329.2494
   2836585.85548   2206842.89843  21287902.8514   21287901.6904
     -1132.8924
  -2304942.46545  -1783586.60941  22498945.5694   22498941.9054
      4488.3894
 -15803229.14849 -12300374.78947  19418009.5544   19418007.2804
      2331.7274
 04  9 10 16  4 29.9950000  0  6G 1G20G11G14G23G25
 -16381587.73449 -12749243.51246  19559029.7734   19559027.9254
      2841.7354
 -10816153.18448  -8391428.10544  21219403.9764   21219401.4174
      4317.5344
 -11933185.67649  -9284798.54745  19876543.3824   19876540.0584
      1319.8304
   2853606.42248   2220105.64543  21291142.1554   21291140.0304
     -1134.7044
  -2372228.43746  -1836017.20341  22486141.7654   22486137.1204
      4485.7324
 -15838067.93749 -12327521.88747  19411379.8824   19411377.8124
      2322.5864
 04  9 10 16  4 44.9950000  0  6G 1G20G11G14G23G25
 -16424130.62949 -12782393.81246  19550933.7804   19550932.5384
      2836.1934
 -10880885.04747  -8441868.50444  21207085.9294   21207084.3124
      4315.4584
 -11952841.52049  -9300114.82046  19872803.1484   19872799.8004
      1310.3904
   2870654.50048   2233389.84443  21294386.3194   21294384.3904
     -1136.5394
  -2439474.04345  -1888416.41041  22473344.7574   22473341.1084
      4483.0404
 -15872769.30549 -12354561.91046  19404776.2654   19404774.1404
      2313.4244
 04  9 10 16  4 59.9950000  0  6G 1G20G11G14G23G25
 -16466591.05149 -12815479.84846  19542853.6084   19542852.3824
      2830.6954
 -10945586.01647  -8492284.83244  21194773.8274   21194771.5894
      4313.3984
 -11972356.38749  -9315321.21146  19869089.3274   19869086.9994
      1300.9914
   2887729.24648   2246694.81644  21297635.4684   21297633.6714
     -1138.3164
  -2506679.87945  -1940784.56241  22460556.7024   22460552.1014
      4480.3894
 -15907333.70749 -12381495.19946  19398198.9764   19398196.8004
      2304.2934
 04  9 10 16  5 14.9950000  0  6G 1G20G11G14G23G25
 -16508969.42249 -12848501.96146  19534789.3124   19534788.0464
      2825.2254
 -11010256.41048  -8542677.33644  21182467.7264   21182465.5624
      4311.3604
 -11991730.64549  -9330418.04346  19865402.7964   19865400.2334
      1291.6174
   2904830.29348   2260020.29343  21300889.3124   21300888.2494
     -1140.0704
  -2573846.12945  -1993121.89841  22447774.5694   22447770.4564
      4477.7504
 -15941761.58249 -12408322.11346  19391647.5544   19391645.3984
      2295.1924
 04  9 10 16  5 29.9950000  0  6G 1G20G11G14G23G25
 -16551264.80549 -12881459.40646  19526740.8584   19526739.7764
      2819.6924
 -11074895.14147  -8593045.17244  21170166.9294   21170165.4444
      4309.2494
 -12010963.53949  -9345404.73046  19861742.9764   19861740.2614
      1282.1934
   2921958.30548   2273366.76244  21304148.4524   21304147.4834
     -1141.8674
  -2640972.09844  -2045427.76641  22434999.9374   22434997.1364
      4475.0654
 -15976051.97749 -12435041.89846  19385122.3354   19385120.5814
      2286.0264
 04  9 10 16  5 44.9950000  0  6G 1G20G11G14G23G25
 -16593479.72349 -12914354.14146  19518707.7734   19518706.0584
      2814.3284
 -11139504.52348  -8643390.14144  21157872.6014   21157869.9724
      4307.2924
 -12030057.58249  -9360283.20746  19858109.3434   19858106.5894
      1272.9364
   2939110.52348   2286732.10244  21307412.9524   21307411.4254
     -1143.4814
  -2708059.83246  -2097703.93741  22422234.1634   22422231.0464
      4472.5164
 -16010207.40649 -12461656.50846  19378622.6324   19378620.4294
      2277.0294
 04  9 10 16  5 59.9950000  0  6G 1G20G11G14G23G25
 -16635613.23449 -12947185.44946  19510689.9834   19510688.2574
      2808.9014
 -11204083.36748  -8693711.33244  21145583.7024   21145581.3944
      4305.2564
 -12049011.66049  -9375052.64146  19854502.4214   19854499.5934
      1263.6054
   2956287.87948   2300117.03144  21310682.0074   21310679.9174
     -1145.1574
  -2775108.38746  -2149949.56242  22409476.5694   22409471.2964
      4469.9044
 -16044226.64149 -12488165.00046  19372148.8434   19372146.9174
      2267.9494
 04  9 10 16  6 14.9950000  0  6G 1G20G11G14G23G25
 -16677665.44949 -12979953.40646  19502687.6634   19502686.1084
      2803.4814
 -11268631.59848  -8744008.66444  21133300.6874   21133297.6244
      4303.2154
 -12067825.91049  -9389713.09846  19850922.4134   19850919.8434
      1254.2834
   2973490.18048   2313521.40244  21313955.3434   21313953.1714
     -1146.8204
  -2842117.80946  -2202164.70342  22396724.3904   22396720.4134
      4467.2954
 -16078109.76249 -12514567.41847  19365701.0694   19365699.2734
      2258.8754
 04  9 10 16  6 29.9950000  0  6G 1G20G11G14G23G25
 -16719634.74249 -13012656.75046  19494701.5234   19494699.5264
      2797.9534
 -11333147.39547  -8794280.72744  21121023.4294   21121020.6484
      4301.0534
 -12086498.98049  -9404263.54746  19847368.8904   19847366.2304
      1244.8714
   2990718.82448   2326946.30944  21317233.5234   21317231.4874
     -1148.5764
  -2909086.37546  -2254347.96542  22383980.2734   22383978.1244
      4464.5714
 -16111855.11349 -12540862.50446  19359279.8354   19359277.7924
      2249.6904
 04  9 10 16  6 44.9950000  0  6G 1G20G11G14G23G25
 -16761522.83249 -13045296.81646  19486730.1404   19486728.7534
      2792.5394
 -11397632.26247  -8844528.69144  21108752.3664   21108749.9804
      4298.9914
 -12105032.54349  -9418705.30146  19843842.2334   19843839.3904
      1235.5714
   3007971.97748   2340390.28143  21320516.5544   21320515.5544
     -1150.2104
  -2976015.58646  -2306500.60242  22371245.8354   22371241.3784
      4461.9474
 -16145464.22349 -12567051.40246  19352883.8514   19352882.0464
      2240.6074
 04  9 10 16  6 59.9950000  0  6G 1G20G11G14G23G25
 -16803330.14549 -13077873.93446  19478774.6084   19478773.1364
      2787.1544
 -11462086.44947  -8894752.69944  21096486.7104   21096485.0934
      4296.9464
 -12123426.87149  -9433038.54745  19840341.5304   19840338.9764
      1226.2894
   3025249.13748   2353852.96943  21323804.2184   21323803.3154
     -1151.8114
  -3042905.88747  -2358622.88742  22358515.6014   22358512.3784
      4459.3534
 -16178937.48449 -12593134.46946  19346514.0694   19346512.3584
      2231.5514
 04  9 10 16  7 14.9950000  0  6G 1G20G11G14G23G25
 -16845055.93749 -13110387.54346  19470834.2494   19470832.8004
      2781.7204
 -11526508.89148  -8944951.98444  21084227.4134   21084225.8194
      4294.8294
 -12141681.27349  -9447262.78145  19836868.1944   19836865.8124
      1216.9604
   3042550.87548   2367334.81643  21327097.1084   21327095.4804
     -1153.4494
  -3109756.44147  -2410714.22342  22345794.3354   22345791.3784
      4456.7044
 -16212274.21549 -12619111.12946  19340170.4294   19340168.7734
      2222.4494
 04  9 10 16  7 29.9950000  0  6G 1G20G11G14G23G25
 -16886699.79349 -13142837.29746  19462910.0234   19462908.2334
      2776.2574
 -11590898.97348  -8995126.07444  21071975.0234   21071972.6444
      4292.6724
 -12159795.40249  -9461377.69546  19833421.2884   19833419.0464
      1207.6094
   3059877.46948   2380836.02743  21330394.5384   21330393.2304
     -1155.1064
  -3176566.68047  -2462774.16842  22333081.0854   22333076.2414
      4454.0164
 -16245473.85549 -12644980.98046  19333852.9444   19333850.8554
      2213.3094
 04  9 10 16  7 44.9950000  0  6G 1G20G11G14G23G25
 -16928261.58249 -13175223.10546  19455000.6794   19454999.1084
      2770.7864
 -11655256.44548  -9045274.75044  21059728.0464   21059726.1244
      4290.4984
 -12177769.14149  -9475383.21946  19830000.6944   19829998.1324
      1198.2494
   3077229.03548   2394356.70743  21333695.5694   21333694.5384
     -1156.7714
  -3243336.44947  -2514802.54742  22320374.9374   22320371.4954
      4451.3184
 -16278536.18049 -12670743.82446  19327561.0774   19327559.2534
      2204.1554
 04  9 10 16  7 59.9950000  0  6G 1G20G11G14G23G25
 -16969742.64849 -13207546.00846  19447106.9214   19447105.0854
      2765.4044
 -11719582.28948  -9095398.79744  21047487.8354   21047485.1834
      4288.3904
 -12195603.85249  -9489280.43046  19826607.1794   19826604.7574
      1188.9814
   3094604.07048   2407895.65643  21337002.0154   21337000.2924
     -1158.3364
  -3310066.83647  -2566800.28142  22307676.7104   22307674.2844
      4448.6924
 -16311462.38349 -12696400.60946  19321295.8904   19321293.6944
      2195.0804
 04  9 10 16  8 14.9950000  0  6G 1G20G11G14G23G25
 -17011141.50049 -13239804.84846  19439229.2654   19439227.2574
      2759.9234
 -11783874.88348  -9145496.92243  21035252.3124   21035250.2264
      4286.1734
 -12213298.14849  -9503068.22746  19823240.2334   19823237.6904
      1179.6204
   3112003.91048   2421453.95343  21340313.1944   21340311.1984
     -1159.9894
  -3376756.35247  -2618766.13742  22294986.7494   22294983.1204
      4445.9684
 -16344250.96549 -12721950.14847  19315055.8664   19315054.0734
      2185.9054
 04  9 10 16  8 29.9950000  0  6G 1G20G11G14G23G25
 -17052458.98049 -13272000.29346  19431367.0934   19431365.3474
      2754.4994
 -11848134.86347  -9195569.62143  21023023.9994   21023021.8554
      4283.9994
 -12230852.79749  -9516747.20346  19819899.8194   19819897.2534
      1170.3104
   3129427.64548   2435030.84843  21343629.5384   21343627.1324
     -1161.5824
  -3443405.75846  -2670700.74242  22282302.9134   22282299.5694
      4443.2944
 -16376902.65249 -12747393.02346  19308843.0694   19308840.5894
      2176.7794
 04  9 10 16  8 44.9950000  0  6G 1G20G11G14G23G25
 -17093694.15249 -13304131.59846  19423520.1014   19423518.8944
      2749.0114
 -11912361.05548  -9245616.01244  21010802.9134   21010800.9724
      4281.7464
 -12248266.99649  -9530316.75446  19816585.8744   19816583.0814
      1160.9474
   3146876.03148   2448626.95743  21346949.0774   21346947.7844
     -1163.2264
  -3510013.97347  -2722603.23442  22269627.9684   22269623.8704
      4440.5484
 -16409416.52349 -12772728.50847  19302655.5694   19302653.1054
      2167.5914
 04  9 10 16  8 59.9950000  0  6G 1G20G11G14G23G25
 -17134848.84449 -13336200.16846  19415688.3984   19415687.4914
      2743.6464
 -11976554.96948  -9295637.24644  20998587.0154   20998585.5694
      4279.5944
 -12265542.48049  -9543778.19546  19813298.4524   19813295.7734
      1151.6994
   3164347.25048   2462240.85543  21350274.0544   21350272.4804
     -1164.7484
  -3576582.52347  -2774474.78942  22256960.1634   22256956.5464
      4437.9034
 -16441794.34849 -12797957.98046  19296494.2334   19296492.1714
      2158.5224
 04  9 10 16  9 14.9950000  0  6G 1G20G11G14G23G25
 -17175921.77349 -13368205.05546  19407872.9444   19407871.4764
      2738.1954
 -12040715.24648  -9345632.23044  20986377.8744   20986375.7764
      4277.3524
 -12282677.97749  -9557130.56646  19810037.3194   19810035.1054
      1142.3664
   3181842.27348   2475873.31643  21353603.0464   21353601.3194
     -1166.3354
  -3643110.09847  -2826314.48842  22244300.5694   22244297.1014
      4435.1724
 -16474034.80149 -12823080.41046  19290359.1324   19290356.7024
      2149.3644
 04  9 10 16  9 29.9950000  0  6G 1G20G11G14G23G25
 -17216913.89549 -13400146.95746  19400072.1244   19400070.8194
      2732.8084
 -12104842.57448  -9395601.58644  20974175.0624   20974172.3434
      4275.1554
 -12299674.48849  -9570374.62946  19806803.2184   19806801.1284
      1133.1014
   3199360.14848   2489523.58243  21356937.1324   21356935.3664
     -1167.8584
  -3709597.78147  -2878123.07842  22231648.4834   22231644.8084
      4432.5124
 -16506138.59049 -12848096.35246  19284250.2494   19284247.8354
      2140.2534
 04  9 10 16  9 44.9950000  0  6G 1G20G11G14G23G25
 -17257823.41049 -13432024.50846  19392287.3984   19392285.7024
      2727.3014
 -12168934.83248  -9445543.62544  20961978.2654   20961975.4604
      4272.8174
 -12316530.21549  -9583508.98046  19803595.6554   19803593.2804
      1123.7154
   3216902.62148   2503192.99643  21360275.6944   21360273.9094
     -1169.4984
  -3776043.48847  -2929898.94142  22219004.2964   22219001.1124
      4429.7144
 -16538103.98049 -12873004.44546  19278167.2804   19278165.0894
      2131.0264
 04  9 10 16  9 59.9950000  0  6G 1G20G11G14G23G25
 -17298652.75449 -13463839.58246  19384517.7104   19384516.0854
      2721.9564
 -12232994.32448  -9495460.11743  20949788.2334   20949785.4834
      4270.6334
 -12333247.54349  -9596535.48846  19800414.7574   19800412.0034
      1114.4894
   3234467.19148   2516879.63743  21363617.8434   21363616.0584
     -1170.9714
  -3842449.53947  -2981643.91042  22206367.6944   22206364.1514
      4427.0704
 -16569933.37549 -12897806.56246  19272110.0234   19272108.2374
      2121.9604
 04  9 10 16 10 14.9950000  0  6G 1G20G11G14G23G25
 -17339398.44549 -13495589.47746  19376764.1554   19376762.5234
      2716.3794
 -12297017.40648  -9545348.23844  20937604.8274   20937602.7334
      4268.2054
 -12349823.18049  -9609451.59046  19797260.2734   19797257.6514
      1105.0424
   3252057.04748   2530585.98443  21366965.0694   21366963.3554
     -1172.6574
  -3908812.47347  -3033355.27042  22193739.1244   22193735.7884
      4424.1964
 -16601623.19149 -12922499.92246  19266080.1084   19266077.7334
      2112.6544
 04  9 10 16 10 29.9950000  0  6G 1G20G11G14G23G25
 -17380060.93049 -13527274.52046  19369026.4444   19369024.6944
      2710.8324
 -12361004.23048  -9595208.09443  20925428.1324   20925426.4094
      4265.7884
 -12366257.61349  -9622257.66446  19794133.1324   19794130.5934
      1095.6294
   3269671.60948   2544311.57443  21370316.6164   21370315.6634
     -1174.3044
  -3975132.59047  -3085033.26242  22181118.7574   22181115.5504
      4421.3414
 -16633173.88749 -12947084.88746  19260076.1794   19260073.8704
      2103.3804
 04  9 10 16 10 44.9950000  0  6G 1G20G11G14G23G25
 -17420642.05949 -13558896.17646  19361303.6794   19361302.1834
      2705.4094
 -12424956.48848  -9645041.02044  20913258.7024   20913256.1324
      4263.4844
 -12382552.70349  -9634955.14546  19791032.1634   19791029.5894
      1086.3394
   3287308.96948   2558054.93043  21373673.5934   21373671.8434
     -1175.8244
  -4041411.65647  -3136679.23842  22168506.3904   22168503.1834
      4418.6044
 -16664587.20349 -12971562.79746  19254098.1014   19254095.8354
      2094.2214
 04  9 10 16 10 59.9950000  0  6G 1G20G11G14G23G25
 -17461141.80549 -13590454.43446  19353597.0384   19353595.9524
      2699.9834
 -12488873.89148  -9694846.80944  20901096.0694   20901093.7694
      4261.1604
 -12398708.55949  -9647544.13746  19787957.8904   19787955.7024
      1077.0574
   3304969.05148   2571816.00444  21377034.0544   21377032.0154
     -1177.3394
  -4107649.46947  -3188293.13342  22155901.4994   22155898.5624
      4415.8544
 -16695862.98849 -12995933.53546  19248146.7264   19248144.7264
      2085.0524
 04  9 10 16 11 14.9950000  0  6G 1G20G11G14G23G25
 -17501559.52049 -13621948.75446  19345905.6634   19345904.1984
      2694.5144
 -12552755.55948  -9744624.71944  20888939.4294   20888937.7064
      4258.7784
 -12414724.60949  -9660024.18746  19784910.0934   19784907.2734
      1067.7374
   3322652.36748   2585595.18044  21380398.9214   21380397.5974
     -1178.8884
  -4173845.26248  -3239874.29742  22143305.3434   22143300.9954
      4413.0534
 -16727000.55149 -13020196.57446  19242221.5464   19242219.6634
      2075.8384
 04  9 10 16 11 29.9950000  0  6G 1G20G11G14G23G25
 -17541896.80149 -13653380.40246  19338230.1084   19338228.2574
      2689.1524
 -12616602.83248  -9794375.82444  20876789.5234   20876787.8084
      4256.4854
 -12430602.15649  -9672396.31246  19781888.9604   19781886.3004
      1058.5034
   3340357.32848   2599391.21143  21383767.8274   21383766.7264
     -1180.3314
  -4240000.51248  -3291423.84442  22130716.5774   22130711.0384
      4410.3504
 -16758001.38749 -13044353.07047  19236322.2964   19236320.0774
      2066.7224
 04  9 10 16 11 44.9950000  0  6G 1G20G11G14G23G25
 -17582151.66049 -13684747.81646  19330569.7884   19330567.9994
      2683.6574
 -12680413.43048  -9844098.37944  20864647.0694   20864644.7184
      4254.0404
 -12446339.33249  -9684659.05946  19778893.9294   19778891.8044
      1049.1454
   3358085.72348   2613205.50843  21387141.5694   21387140.2414
     -1181.8934
  -4306113.14148  -3342940.15643  22118135.6634   22118131.9804
      4407.5094
 -16788863.50849 -13068401.46946  19230449.1554   19230446.9954
      2057.4754
 04  9 10 16 11 59.9950000  0  6G 1G20G11G14G23G25
 -17622325.52749 -13716052.14146  19322925.0384   19322923.5974
      2678.2584
 -12744188.66448  -9893793.37944  20852511.4994   20852508.5504
      4251.6824
 -12461937.62549  -9696813.57446  19775925.6164   19775922.7654
      1039.8864
   3375836.03548   2627036.87143  21390519.4134   21390517.7924
     -1183.3544
  -4372184.45748  -3394424.29343  22105562.2104   22105559.3944
      4404.7544
 -16819588.30949 -13092342.87546  19224602.4914   19224600.7184
      2048.3204
 04  9 10 16 12 14.9950000  0  6G 1G20G11G14G23G25
 -17662418.18749 -13747293.17246  19315295.4914   19315294.1984
      2672.8444
 -12807928.03148  -9943460.43044  20840381.6714   20840379.4134
      4249.2914
 -12477396.83249  -9708859.72346  19772983.9214   19772980.6084
      1030.6144
   3393608.47348   2640885.50043  21393901.3434   21393899.9054
     -1184.8294
  -4438214.21148  -3445876.04343  22092997.6554   22092993.9254
      4401.9844
 -16850175.41449 -13116176.96946  19218782.0544   19218779.9954
      2039.1404
 04  9 10 16 12 29.9950000  0  6G 1G20G11G14G23G25
 -17702429.50449 -13778470.81646  19307681.3434   19307680.0264
      2667.4214
 -12871631.10248  -9993099.18444  20828259.2804   20828256.9684
      4246.8714
 -12492717.04349  -9720797.55546  19770068.2654   19770065.9804
      1021.3474
   3411403.06348   2654751.37143  21397288.0154   21397286.1904
     -1186.3064
  -4504202.09448  -3497295.15643  22080440.6404   22080436.7804
      4399.1924
 -16880624.68749 -13139903.68046  19212987.7734   19212985.4764
      2029.9524
 04  9 10 16 12 44.9950000  0  6G 1G20G11G14G23G25
 -17742359.48049 -13809585.09046  19300083.2494   19300081.5234
      2661.9984
 -12935297.75048 -10042709.55544  20816143.8584   20816142.2964
      4244.4434
 -12507898.30949  -9732627.13346  19767179.4524   19767177.5264
      1012.0844
   3429219.59048   2668634.35243  21400678.0154   21400677.0814
     -1187.7684
  -4570148.00048  -3548681.55943  22067891.3194   22067887.9174
      4396.3944
 -16910936.17649 -13163523.02046  19207219.7334   19207217.2694
      2020.7664
 04  9 10 16 12 59.9950000  0  6G 1G20G11G14G23G25
 -17782207.95749 -13840635.84846  19292500.1944   19292498.7264
      2656.5654
 -12998927.44548 -10092291.12544  20804035.5074   20804034.8864
      4241.9804
 -12522940.20349  -9744348.10946  19764317.2264   19764314.9644
      1002.7934
   3447058.28148   2682534.58243  21404072.3514   21404071.7144
     -1189.2464
  -4636051.62147  -3600035.04343  22055350.6944   22055347.1404
      4393.5754
 -16941109.50449 -13187034.69946  19201477.7884   19201475.1284
      2011.5554
 04  9 10 16 13 14.9950000  0  6G 1G20G11G14G23G25
 -17821975.08649 -13871623.22346  19284933.0304   19284931.5504
      2651.1424
 -13062520.23048 -10141843.93744  20791934.5694   20791932.9524
      4239.5194
 -12537842.99249  -9755960.67246  19761481.5304   19761478.9214
       993.5194
   3464918.79347   2696451.82443  21407470.7804   21407470.6324
     -1190.7014
  -4701913.12947  -3651355.64143  22042816.4994   22042813.7414
      4390.7674
 -16971144.78949 -13210438.82047  19195762.3664   19195759.8824
      2002.3524
 04  9 10 16 13 29.9950000  0  6G 1G20G11G14G23G25
 -17861661.94549 -13902548.03546  19277380.7964   19277379.2804
      2645.7914
 -13126076.92649 -10191368.64844  20779840.5854   20779838.1014
      4237.1134
 -12552607.97749  -9767465.86345  19758671.2804   19758669.3984
       984.3324
   3482799.86347   2710385.08243  21410874.3194   21410873.0544
     -1192.0714
  -4767733.42647  -3702644.16043  22030291.7964   22030288.7454
      4388.0204
 -17001043.21949 -13233736.29346  19190072.8044   19190070.6874
      1993.2294
 04  9 10 16 13 44.9950000  0  6G 1G20G11G14G23G25
 -17901268.28149 -13933410.11747  19269844.0384   19269842.5424
      2640.4224
 -13189597.04748 -10240864.85944  20767753.0624   20767750.7184
      4234.6754
 -12567234.88349  -9778863.46945  19755888.1634   19755885.4724
       975.1274
   3500701.62148   2724334.46543  21414280.6244   21414279.2764
     -1193.4514
  -4833512.16847  -3753900.32043  22017774.0854   22017771.5654
      4385.2494
 -17030804.42249 -13256926.85246  19184409.5384   19184407.3474
      1984.0804
 04  9 10 16 13 59.9950000  0  6G 1G20G11G14G23G25
 -17940793.51649 -13964209.00046  19262322.3514   19262321.3664
      2635.0164
 -13253079.85548 -10290331.96144  20755672.5304   20755670.1834
      4232.1874
 -12581723.15649  -9790153.05945  19753130.9444   19753128.1514
       965.8854
   3518624.63748   2738300.42243  21417690.6944   21417689.6984
     -1194.8684
  -4899248.74247  -3805123.58642  22005264.9914   22005261.7804
      4382.4384
 -17060427.84449 -13280010.02346  19178772.4294   19178770.0974
      1974.8954
 04  9 10 16 14 14.9950000  0  6G 1G20G11G14G23G25
 -17980237.15649 -13994944.30146  19254816.5154   19254815.4014
      2629.5764
 -13316524.51248 -10339769.34844  20743598.8904   20743597.2104
      4229.6444
 -12596072.42249  -9801334.34445  19750400.5234   19750397.9214
       956.6184
   3536569.38747   2752283.28543  21421105.5624   21421104.9804
     -1196.3174
  -4964942.41047  -3856313.42242  21992763.6554   21992760.3704
      4379.5784
 -17089912.79749 -13302985.31246  19173161.5384   19173158.9174
      1965.6644
 04  9 10 16 14 29.9950000  0  6G 1G20G11G14G23G25
 -18019600.08249 -14025616.70746  19247326.2414   19247324.6674
      2624.1954
 -13379931.66448 -10389177.50444  20731532.6874   20731531.5114
      4227.1434
 -12610283.48049  -9812407.91846  19747696.4444   19747694.0814
       947.4044
   3554534.78147   2766282.27743  21424525.0774   21424523.8474
     -1197.6934
  -5030593.88748  -3907470.41442  21980271.2334   21980267.1514
      4376.7654
 -17119260.10249 -13325853.34047  19167576.9444   19167574.4374
      1956.4874
 04  9 10 16 14 44.9950000  0  6G 1G20G11G14G23G25
 -18058884.10949 -14056227.63746  19239850.1944   19239848.9804
      2618.9354
 -13443302.85549 -10438557.63744  20719473.9834   20719471.8784
      4224.7464
 -12624358.34049  -9823375.38746  19745018.3124   19745015.4444
       938.3244
   3572518.87947   2780295.81642  21427946.9914   21427945.9994
     -1198.9404
  -5096204.95748  -3958595.94542  21967785.5624   21967781.5074
      4374.0714
 -17148471.73049 -13348615.65647  19162018.2414   19162015.8904
      1947.4424
 04  9 10 16 14 59.9950000  0  6G 1G20G11G14G23G25
 -18098087.34049 -14086775.61346  19232390.2884   19232388.9334
      2613.5494
 -13506635.96148 -10487908.11744  20707422.0234   20707420.0074
      4222.2074
 -12638295.07449  -9834235.20346  19742366.2104   19742363.4374
       929.1164
   3590523.63747   2794325.45742  21431372.6164   21431372.0814
     -1200.3174
  -5161773.62548  -4009688.40642  21955308.1404   21955304.5814
      4371.2454
 -17177545.59849 -13371270.61347  19156485.6084   19156483.7844
      1938.2584
 04  9 10 16 15 14.9950000  0  6G 1G20G11G14G23G25
 -18137209.76249 -14117260.61746  19224945.5154   19224944.2734
      2608.1614
 -13569930.80548 -10537228.77744  20695377.7654   20695375.9294
      4219.6564
 -12652093.82449  -9844987.52046  19739740.4524   19739737.8744
       919.9174
   3608548.89147   2808371.07442  21434803.2574   21434802.2654
     -1201.6844
  -5227299.82048  -4060747.73442  21942838.8514   21942835.9644
      4368.4134
 -17206481.60949 -13393818.15247  19150979.0544   19150976.9724
      1929.0674
 04  9 10 16 15 29.9950000  0  6G 1G20G11G14G23G25
 -18176250.28149 -14147681.80146  19217516.7104   19217515.3154
      2602.7014
 -13633186.03148 -10586518.54744  20683340.3824   20683338.6124
      4217.0154
 -12665753.34849  -9855631.33646  19737141.1714   19737138.6904
       910.6354
   3626595.51647   2822433.34442  21438237.4994   21438235.7734
     -1203.1084
  -5292782.25048  -4111773.01242  21930378.1794   21930374.9294
      4365.4954
 -17235278.65649 -13416257.41046  19145499.3354   19145497.6404
      1919.8034
 04  9 10 16 15 44.9950000  0  6G 1G20G11G14G23G25
 -18215209.23849 -14178039.43046  19210102.6874   19210101.8434
      2597.2644
 -13696401.74648 -10635777.54744  20671310.8274   20671307.9834
      4214.3814
 -12679274.10949  -9866167.01646  19734567.9834   19734565.9914
       901.3844
   3644663.16048   2836511.98842  21441675.6244   21441674.3624
     -1204.5104
  -5358221.27748  -4162764.46943  21917925.7804   21917921.4484
      4362.6024
 -17263937.14149 -13438588.69146  19140045.7574   19140043.8704
      1910.5664
 04  9 10 16 15 59.9950000  0  6G 1G20G11G14G23G25
 -18254086.29349 -14208333.22347  19202704.8044   19202703.5154
      2591.8044
 -13759577.26649 -10685005.22744  20659288.7804   20659286.5974
      4211.7014
 -12692655.86349  -9876594.36346  19732021.8354   19732019.2614
       892.1174
   3662752.16047   2850607.27342  21445118.0774   21445116.7964
     -1205.9334
  -5423616.39548  -4213721.69943  21905481.2804   21905478.2144
      4359.6744
 -17292456.59449 -13460811.64146  19134618.6874   19134616.5814
      1901.2974
 04  9 10 16 16 14.9950000  0  6G 1G20G11G14G23G25
 -18292883.66049 -14238564.94546  19195322.0234   19195320.8904
      2586.4914
 -13822714.71149 -10734203.22344  20647274.3984   20647273.0194
      4209.1634
 -12705900.90249  -9886915.19545  19729500.8194   19729498.6874
       883.0034
   3680860.12947   2864717.34042  21448563.4914   21448562.3314
     -1207.1984
  -5488969.69548  -4264646.32843  21893044.9764   21893041.6204
      4356.8874
 -17320839.19549 -13482927.95746  19129217.5464   19129215.2454
      1892.1734
 04  9 10 16 16 29.9950000  0  6G 1G20G11G14G23G25
 -18331600.98049 -14268734.28947  19187954.1014   19187952.3314
      2581.1554
 -13885813.36748 -10783370.99644  20635266.7334   20635265.0894
      4206.5774
 -12719008.82449  -9897129.19546  19727007.1484   19727004.8904
       873.8614
   3698987.33648   2878842.41042  21452013.2654   21452011.9214
     -1208.4804
  -5554280.64548  -4315537.96543  21880616.9054   21880612.7884
      4354.0634
 -17349084.60549 -13504937.36746  19123842.6944   19123840.5544
      1883.0274
 04  9 10 16 16 44.9950000  0  6G 1G20G11G14G23G25
 -18370236.17649 -14298839.63746  19180602.2104   19180600.7764
      2575.6804
 -13948870.98448 -10832506.79344  20623267.2964   20623264.5974
      4203.8414
 -12731977.70749  -9907234.84045  19724539.2494   19724536.7104
       864.5924
   3717135.75447   2892984.03142  21455467.4214   21455465.4684
     -1209.8954
  -5619547.14148  -4366394.96943  21868196.9834   21868193.2694
      4351.1004
 -17377190.72349 -13526838.23446  19118494.1554   19118491.9684
      1873.7414
 04  9 10 16 16 59.9950000  0  6G 1G20G11G14G23G25
 -18408791.38749 -14328882.66446  19173265.5154   19173263.9174
      2570.3474
 -14011889.42248 -10881612.07444  20611275.7804   20611272.7844
      4201.2294
 -12744809.75049  -9917233.85945  19722097.4834   19722094.4914
       855.4704
   3735303.15247   2907140.38743  21458924.6794   21458923.0894
     -1211.1604
  -5684771.23448  -4417218.93043  21855784.9684   21855781.9644
      4348.2734
 -17405159.72749 -13548632.26246  19113171.9994   19113169.3784
      1864.6004
 04  9 10 16 17 14.9950000  0  6G 1G20G11G14G23G25
 -18447265.80149 -14358862.72746  19165944.1324   19165942.3984
      2564.9614
 -14074867.64149 -10930686.02044  20599291.6084   20599289.1284
      4198.5484
 -12757504.14549  -9927125.62146  19719682.1484   19719679.3784
       846.2934
   3753490.27747   2921312.14543  21462385.5934   21462383.8394
     -1212.4754
  -5749951.91048  -4468009.05143  21843382.3744   21843378.5894
      4345.3784
 -17432990.68749 -13570318.72347  19107875.8744   19107873.2574
      1855.3974
 04  9 10 16 17 29.9950000  0  6G 1G20G11G14G23G25
 -18485659.87549 -14388780.17646  19158637.7494   19158636.4054
      2559.6054
 -14137805.78148 -10979728.73844  20587314.5074   20587312.7734
      4195.8764
 -12770061.39849  -9936910.51246  19717292.1084   19717289.4724
       837.1504
   3771696.48047   2935498.76643  21465850.0074   21465848.4374
     -1213.7474
  -5815089.56248  -4518765.64543  21830986.9914   21830983.7654
      4342.5104
 -17460683.92649 -13591897.87546  19102606.0854   19102604.1674
      1846.2164
 04  9 10 16 17 44.9950000  0  6G 1G20G11G14G23G25
 -18523974.09049 -14418635.41046  19151346.8664   19151345.5624
      2554.2814
 -14200704.11348 -11028740.40244  20575345.0624   20575343.1834
      4193.2224
 -12782482.11749  -9946589.02746  19714928.5934   19714926.1794
       828.0484
   3789921.30547   2949699.91843  21469318.3904   21469316.3394
     -1214.9884
  -5880184.57048  -4569489.02043  21818599.6164   21818596.4174
      4339.6674
 -17488239.93449 -13613370.09047  19097362.3044   19097360.4294
      1837.0674
 04  9 10 16 17 59.9950000  0  6G 1G20G11G14G23G25
 -18562206.98449 -14448427.27346  19144071.5074   19144069.6874
      2548.8604
 -14263560.93748 -11077719.73844  20563384.0624   20563382.1944
      4190.4554
 -12794764.71149  -9956159.89146  19712591.4444   19712589.1084
       818.8404
   3808166.21947   2963916.67643  21472790.1554   21472788.1364
     -1216.3284
  -5945235.41448  -4620177.97743  21806220.3984   21806217.3824
      4336.7234
 -17515657.13349 -13634734.14546  19092145.0934   19092143.3274
      1827.8134
 04  9 10 16 18 14.9950000  0  6G 1G20G11G14G23G25
 -18600358.73049 -14478155.90646  19136811.0774   19136809.4564
      2543.4504
 -14326376.24248 -11126666.70344  20551430.6794   20551428.6244
      4187.6874
 -12806909.71549  -9965623.52746  19710280.0854   19710277.7804
       809.6674
   3826430.87147   2978148.84443  21476266.0154   21476263.8394
     -1217.6434
  -6010241.99648  -4670832.43043  21793850.3124   21793846.8864
      4333.7724
 -17542935.96949 -13655990.37946  19086953.8824   19086951.8434
      1818.5894
 04  9 10 16 18 29.9950000  0  6G 1G20G11G14G23G25
 -18638430.81249 -14507822.46546  19129566.5544   19129564.4054
      2538.1394
 -14389151.18449 -11175582.24644  20539485.2104   20539482.2264
      4184.9964
 -12818918.43749  -9974981.00046  19707995.2414   19707992.6514
       800.5824
   3844713.68047   2992395.15643  21479745.0694   21479743.5114
     -1218.8544
  -6075205.80948  -4721453.56243  21781488.0934   21781483.9644
      4330.9214
 -17570077.61749 -13677139.71547  19081789.3584   19081787.1164
      1809.4434
 04  9 10 16 18 44.9950000  0  6G 1G20G11G14G23G25
 -18676421.63349 -14537425.70746  19122337.0074   19122334.9764
      2532.7214
 -14451883.93048 -11224464.91444  20527547.4834   20527544.6054
      4182.1834
 -12830789.49249  -9984231.19146  19705736.1014   19705733.5814
       791.4044
   3863016.21547   3006656.85243  21483227.7184   21483226.5384
     -1220.1694
  -6140125.14148  -4772040.02343  21769134.2734   21769130.7924
      4327.9554
 -17597080.49649 -13698180.91847  19076650.7264   19076648.5234
      1800.1924
 04  9 10 16 18 59.9950000  0  6G 1G20G11G14G23G25
 -18714333.32849 -14566967.28946  19115122.6404   19115121.0584
      2527.4464
 -14514576.28148 -11273316.08644  20515617.6794   20515615.5934
      4179.4904
 -12842525.01649  -9993375.77046  19703502.9374   19703500.3514
       782.3684
   3881336.22347   3020932.14843  21486713.5774   21486712.0814
     -1221.3344
  -6205001.85948  -4822593.30143  21756788.2494   21756784.4834
      4325.1154
 -17623946.63749 -13719115.56647  19071538.4134   19071536.1834
      1791.0764
 04  9 10 16 19 14.9950000  0  6G 1G20G11G14G23G25
 -18752164.16849 -14596445.85946  19107923.7654   19107922.3624
      2522.0564
 -14577226.33248 -11322134.29744  20503695.7964   20503693.4914
      4176.6704
 -12854123.37949 -10002413.46546  19701295.6634   19701293.4054
       773.2244
   3899675.35247   3035222.34843  21490203.3664   21490202.1794
     -1222.6094
  -6269834.23047  -4873112.03143  21744451.8044   21744446.9374
      4322.1584
 -17650674.36349 -13739942.37146  19066452.1874   19066449.4214
      1781.8484
 04  9 10 16 19 29.9950000  0  6G 1G20G11G14G23G25
 -18789916.26249 -14625863.08246  19100739.8514   19100738.0114
      2516.8064
 -14639835.87148 -11370920.96144  20491781.2574   20491778.7964
      4173.9694
 -12865586.81649 -10011346.03546  19699114.2804   19699111.8514
       764.2294
   3918031.48447   3049525.79343  21493696.7414   21493695.3514
     -1223.7424
  -6334624.36348  -4923597.83243  21732122.3194   21732119.0734
      4319.3424
 -17677265.81649 -13760662.99246  19061392.2104   19061389.3664
      1772.7644
 04  9 10 16 19 44.9940000  0  6G 1G20G11G14G23G25
 -18827586.99249 -14655216.89146  19093571.0494   19093569.8694
      2511.3824
 -14702400.45348 -11419672.55944  20479875.4864   20479873.7564
      4170.9724
 -12876914.35249 -10020172.71146  19696958.4474   19696956.2524
       755.1694
   3936403.40247   3063841.52743  21497192.6194   21497192.0414
     -1224.7954
  -6399367.66447  -4974047.14143  21719802.0804   21719799.5104
      4316.2204
 -17703719.12549 -13781275.94147  19056357.9794   19056355.7364
      1763.5544
 04  9 10 16 19 59.9940000  0  6G 1G20G11G14G23G25
 -18865180.26649 -14684510.36346  19086417.5884   19086415.7484
      2506.2184
 -14764927.07449 -11468394.57844  20467976.9404   20467975.4474
      4168.4414
 -12888106.52349 -10028893.90246  19694828.8464   19694827.3614
       746.1454
   3954794.44947   3078172.16443  21500692.2294   21500691.8384
     -1226.0704
  -6464071.53948  -5024465.74643  21707489.8614   21707486.6784
      4313.5924
 -17730036.52749 -13801783.02346  19051349.9634   19051347.8544
      1754.4934
 04  9 10 16 20 14.9940000  0  6G 1G20G11G14G23G25
 -18902693.94149 -14713741.79746  19079278.7684   19079277.5374
      2500.9124
 -14827411.66049 -11517083.86344  20456086.8464   20456084.8424
      4165.6394
 -12899163.09448 -10037509.43746  19692725.2364   19692723.3694
       737.1054
   3973203.05946   3092516.50443  21504195.8544   21504194.5494
     -1227.2414
  -6528731.91848  -5074850.40643  21695184.8934   21695181.4244
      4310.6924
 -17756216.85549 -13822183.26646  19046367.8774   19046365.9044
      1745.3554
 04  9 10 16 20 29.9940000  0  6G 1G20G11G14G23G25
 -18940128.98049 -14742911.93746  19072155.3154   19072153.7604
      2495.6694
 -14889854.87949 -11565740.91444  20444204.4864   20444200.9434
      4162.8814
 -12910085.05549 -10046020.08246  19690646.7294   19690643.9004
       728.1314
   3991628.26247   3106873.75843  21507701.4714   21507700.9554
     -1228.3474
  -6593349.64547  -5125201.85542  21682888.1664   21682884.3424
      4307.8484
 -17782260.89149 -13842477.33247  19041412.0724   19041409.9904
      1736.2694
 04  9 10 16 20 44.9940000  0  6G 1G20G11G14G23G25
 -18977483.35949 -14772019.25046  19065047.1664   19065045.3424
      2490.2924
 -14952254.41449 -11614363.93744  20432330.7444   20432327.0684
      4159.9694
 -12920870.55149 -10054424.38746  19688594.2994   19688591.8934
       719.0334
   4010071.87547   3121245.36743  21511211.7834   21511210.4474
     -1229.5744
  -6657922.50847  -5175518.34843  21670600.2054   21670597.1044
      4304.8584
 -17808166.57849 -13862663.57446  19036482.1504   19036480.0184
      1727.0464
 04  9 10 16 20 59.9940000  0  6G 1G20G11G14G23G25
 -19014757.43049 -14801063.97746  19057954.1044   19057952.0104
      2484.9384
 -15014610.44149 -11662953.05144  20420464.0884   20420461.3614
      4157.0684
 -12931519.85949 -10062722.55546  19686567.9084   19686565.3934
       709.9544
   4028533.43447   3135630.96543  21514724.9084   21514723.6154
     -1230.7714
  -6722450.91048  -5225800.20343  21658320.4324   21658317.9404
      4301.8934
 -17833934.22749 -13882742.26246  19031579.0654   19031576.7874
      1717.8434
 04  9 10 16 21 14.9940000  0  6G 1G20G11G14G23G25
 -19051951.15249 -14830046.09846  19050876.3224   19050874.7054
      2479.5824
 -15076922.63348 -11711508.00844  20408606.8154   20408604.1934
      4154.1464
 -12942033.05949 -10070914.67645  19684567.2214   19684564.5574
       700.8804
   4047012.93048   3150030.52043  21518241.2604   21518240.0804
     -1231.9664
  -6786934.67647  -5276047.27343  21646050.1114   21646047.4364
      4298.9184
 -17859563.80949 -13902713.35946  19026701.6114   19026699.3424
      1708.6394
 04  9 10 16 21 29.9940000  0  6G 1G20G11G14G23G25
 -19089066.92249 -14858967.47347  19043813.1274   19043811.5104
      2474.3854
 -15139193.16448 -11760030.49644  20396756.7994   20396754.7324
      4151.3694
 -12952412.39549 -10079002.48445  19682591.8224   19682589.3574
       691.9564
   4065508.02047   3164442.23843  21521761.0724   21521759.9594
     -1233.0064
  -6851376.02048  -5326261.28143  21633787.7294   21633784.7994
      4296.0904
 -17885057.76649 -13922578.79346  19021850.4634   19021848.5454
      1699.5974
 04  9 10 16 21 44.9940000  0  6G 1G20G11G14G23G25
 -19126104.03149 -14887827.56246  19036765.5184   19036763.6314
      2469.1414
 -15201420.99248 -11808519.69144  20384914.8304   20384913.1504
      4148.5224
 -12962657.53949 -10086985.72745  19680642.2834   19680639.5964
       683.0104
   4084019.34448   3178866.59843  21525283.4084   21525283.1314
     -1234.0884
  -6915774.13348  -5376441.61743  21621532.7524   21621529.5334
      4293.2084
 -17910415.25049 -13942337.87146  19017025.0964   19017022.9554
      1690.4994
 04  9 10 16 21 59.9940000  0  6G 1G20G11G14G23G25
 -19163062.37549 -14916626.27046  19029732.2444   19029730.5334
      2463.8904
 -15263605.63749 -11856975.25444  20373081.9404   20373078.9364
      4145.6434
 -12972768.39149 -10094864.34846  19678718.2754   19678715.6044
       674.0574
   4102546.92248   3193303.62943  21528808.9794   21528808.7134
     -1235.1724
  -6980128.85247  -5426588.12543  21609286.3074   21609283.4514
      4290.3154
 -17935636.16849 -13961990.53147  19012225.4084   19012223.5374
      1681.3954
 04  9 10 16 22 14.9940000  0  6G 1G20G11G14G23G25
 -19199942.77349 -14945364.24246  19022714.1274   19022712.3504
      2458.6934
 -15325747.82049 -11905397.74644  20361256.6044   20361254.2254
      4142.8124
 -12982745.91849 -10102639.07446  19676819.5964   19676817.9004
       665.1684
   4121089.78548   3207752.59043  21532337.6194   21532336.5764
     -1236.1914
  -7044440.81647  -5476701.32843  21597048.3154   21597045.3184
      4287.4644
 -17960721.42649 -13981537.48047  19007452.1044   19007449.8734
      1672.3514
 04  9 10 16 22 29.9940000  0  6G 1G20G11G14G23G25
 -19236743.92249 -14974040.46146  19015711.2914   19015709.5254
      2453.4104
 -15387846.00048 -11953785.93044  20349439.6744   20349437.6704
      4139.8794
 -12992588.65249 -10110308.75846  19674947.0024   19674945.7874
       656.1824
   4139649.16848   3222214.39543  21535869.5414   21535868.9324
     -1237.2924
  -7108708.59848  -5526780.09443  21584818.5104   21584815.3184
      4284.5194
 -17985669.61349 -14000977.62947  19002704.8074   19002702.5454
      1663.2134
 04  9 10 16 22 44.9940000  0  6G 1G20G11G14G23G25
 -19273466.21949 -15002655.23846  19008723.1504   19008721.6354
      2448.1534
 -15449900.21149 -12002139.83644  20337631.4404   20337628.8424
      4136.9474
 -13002297.35949 -10117874.00846  19673099.7684   19673097.4674
       647.2474
   4158224.62948   3236688.73842  21539404.6904   21539404.0104
     -1238.3644
  -7172932.53947  -5576824.69942  21572597.1114   21572592.9324
      4281.5964
 -18010481.25449 -14020311.38347  18997983.2684   18997981.0534
      1654.1094
 04  9 10 16 22 59.9940000  0  6G 1G20G11G14G23G25
 -19310108.95349 -15031208.01246  19001750.2994   19001748.8974
      2442.8494
 -15511909.54749 -12050458.80144  20325831.2914   20325828.5024
      4133.9564
 -13011871.25449 -10125334.20346  19671277.0884   19671275.5654
       638.2604
   4176816.78147   3251176.09042  21542942.5184   21542941.6474
     -1239.4774
  -7237111.75047  -5626834.48842  21560384.0414   21560379.8384
      4278.6144
 -18035155.46949 -14039538.03947  18993287.6664   18993285.8614
      1644.9484
 04  9 10 16 23 14.9940000  0  6G 1G20G11G14G23G25
 -19346672.78149 -15059699.30946  18994792.4404   18994790.7914
      2437.5894
 -15573874.37949 -12098743.08244  20314039.4474   20314037.1974
      4130.9894
 -13021311.15649 -10132689.99246  19669481.1664   19669479.3734
       629.3274
   4195424.93447   3265675.89842  21546482.8464   21546482.3114
     -1240.5434
  -7301246.77047  -5676809.82442  21548180.0024   21548175.9794
      4275.6684
 -18059692.98849 -14058658.18447  18988618.2994   18988616.2914
      1635.8354
 04  9 10 16 23 29.9940000  0  6G 1G20G11G14G23G25
 -19383158.49649 -15088129.73446  18987849.5494   18987848.2214
      2432.3814
 -15635795.22749 -12146993.07844  20302256.3544   20302254.3974
      4128.0574
 -13030618.00849 -10139942.10245  19667710.2364   19667707.4044
       620.4574
   4214048.24246   3280187.51642  21550027.1744   21550025.5144
     -1241.5544
  -7365338.40647  -5726751.35242  21535983.5654   21535979.5224
      4272.7764
 -18084094.61349 -14077672.44146  18983975.0884   18983972.7174
      1626.7754
 04  9 10 16 23 44.9940000  0  6G 1G20G11G14G23G25
 -19419566.26649 -15116499.42246  18980921.3614   18980919.9244
      2427.1854
 -15697672.02349 -12195208.75844  20290481.9084   20290479.3154
      4125.1204
 -13039792.02749 -10147090.70345  19665964.1904   19665961.8154
       611.6014
   4232686.41447   3294710.72342  21553574.0804   21553573.0494
     -1242.5454
  -7429386.64547  -5776659.04342  21523794.9864   21523791.6474
      4269.8834
 -18108360.44549 -14096580.87547  18979357.2684   18979355.0574
      1617.7224
 04  9 10 16 23 59.9940000  0  6G 1G20G11G14G23G25
 -19455894.78949 -15144807.35546  18974008.1744   18974006.5144
      2421.9024
 -15759503.26649 -12243388.94544  20278715.6434   20278713.6394
      4122.0834
 -13048831.83649 -10154134.72345  19664244.0804   19664241.8504
       602.6544
   4251340.62147   3309246.43843  21557123.9794   21557123.3574
     -1243.6144
  -7493390.04348  -5826531.80143  21511616.1824   21511612.1154
      4266.8934
 -18132489.17649 -14115382.49247  18974766.0494   18974763.7444
      1608.5824
 04  9 10 16 24 14.9940000  0  6G 1G20G11G14G23G25
 -19492144.28149 -15173053.71946  18967110.1974   18967108.5374
      2416.6334
 -15821288.77348 -12291533.48444  20266958.2834   20266955.8894
      4119.0344
 -13057737.90249 -10161074.53546  19662548.9714   19662547.2174
       593.7384
   4270010.56347   3323794.44142  21560676.2054   21560675.8154
     -1244.6634
  -7557348.80948  -5876369.78944  21499445.6744   21499441.6974
      4263.9184
 -18156481.04349 -14134077.44546  18970200.0334   18970198.3464
      1599.4584
 04  9 10 16 24 29.9940000  0  6G 1G20G11G14G23G25
 -19528314.04349 -15201237.93446  18960227.0654   18960225.2094
      2411.3174
 -15883027.65649 -12339641.69144  20255209.5804   20255207.4674
      4115.9264
 -13066509.70749 -10167909.72345  19660880.1114   19660878.2644
       584.7874
   4288697.00847   3338355.26242  21564231.7524   21564231.7834
     -1245.7634
  -7621262.09048  -5926172.31244  21487282.9474   21487279.4824
      4260.8854
 -18180335.33649 -14152665.21547  18965660.9324   18965658.8894
      1590.2864
 04  9 10 16 24 44.9940000  0  6G 1G20G11G14G23G25
 -19564404.13749 -15229360.09846  18953359.4794   18953357.9514
      2406.0064
 -15944719.71148 -12387713.41845  20243470.3464   20243468.2564
      4112.8044
 -13075147.32449 -10174640.34846  19659236.3154   19659234.5294
       575.8414
   4307399.68047   3352928.74642  21567791.5334   21567790.4434
     -1246.8454
  -7685129.91048  -5975939.44944  21475129.7994   21475126.4004
      4257.8554
 -18204052.28149 -14171145.95347  18961147.6584   18961145.5724
      1581.1304
 04  9 10 16 24 59.9940000  0  6G 1G20G11G14G23G25
 -19600415.66849 -15257421.03546  18946506.9004   18946505.3734
      2400.7694
 -16006365.70349 -12435749.25044  20231739.4554   20231737.2564
      4109.7334
 -13083651.87149 -10181267.27746  19657618.6504   19657616.2294
       566.9704
   4326117.53147   3367514.05543  21571353.2754   21571352.2014
     -1247.8574
  -7748953.05948  -6025671.76244  21462984.4084   21462981.5184
      4254.8774
 -18227632.68449 -14189520.30147  18956660.3934   18956658.1354
      1572.0274
 04  9 10 16 25 14.9940000  0  6G 1G20G11G14G23G25
 -19636349.26649 -15285421.24246  18939669.1824   18939667.6114
      2395.5734
 -16067966.10949 -12483749.56645  20220017.2054   20220015.3694
      4106.6944
 -13092024.16049 -10187791.13745  19656025.0254   19656023.2214
       558.1534
   4344849.83648   3382110.62143  21574918.0654   21574917.1934
     -1248.8204
  -7812732.18748  -6075369.77744  21450847.6194   21450844.3894
      4251.9424
 -18251077.45349 -14207788.94547  18952198.9794   18952196.8464
      1562.9854
 04  9 10 16 25 29.9940000  0  6G 1G20G11G14G23G25
 -19672204.27349 -15313360.19946  18932845.5494   18932844.1234
      2390.3344
 -16129519.86749 -12531713.53144  20208304.1194   20208302.3934
      4103.5844
 -13100263.22349 -10194211.19946  19654457.1584   19654454.6784
       549.2714
   4363597.37148   3396719.03943  21578485.6904   21578485.0184
     -1249.8364
  -7876466.48448  -6125032.85244  21438719.3074   21438715.8304
      4248.9534
 -18274385.80549 -14225951.30947  18947763.6744   18947761.3974
      1553.8904
 04  9 10 16 25 44.9940000  0  6G 1G20G11G14G23G25
 -19707981.60949 -15341238.64546  18926037.6044   18926036.0844
      2385.1564
 -16191027.68448 -12579641.69544  20196599.1584   20196596.9674
      4100.5214
 -13108370.48049 -10200528.56245  19652914.4084   19652912.5414
       540.4844
   4382358.99248   3411338.46143  21582056.4474   21582055.7014
     -1250.7754
  -7940156.79748  -6174661.66044  21426599.5184   21426596.2094
      4246.0214
 -18297558.67649 -14244008.08247  18943354.1584   18943351.8814
      1544.8584
 04  9 10 16 25 59.9940000  0  6G 1G20G11G14G23G25
 -19743682.22749 -15369057.32046  18919244.1434   18919242.0224
      2380.0414
 -16252490.25849 -12627534.59444  20184902.9474   20184900.8464
      4097.5054
 -13116346.85249 -10206743.93745  19651396.3544   19651393.8304
       531.7584
   4401133.59048   3425967.99643  21585628.4404   21585628.2684
     -1251.6404
  -8003803.93448  -6224256.81644  21414487.9084   21414485.0254
      4243.1424
 -18320596.96549 -14261960.00047  18938970.0804   18938967.7404
      1535.8864
 04  9 10 16 26 14.9940000  0  6G 1G20G11G14G23G25
 -19779304.53549 -15396814.95746  18912464.9864   18912463.4084
      2374.8214
 -16313905.70749 -12675390.78945  20173216.1584   20173214.1234
      4094.3634
 -13124190.91049 -10212856.20345  19649903.9714   19649901.1114
       522.9374
   4419922.71148   3440608.81642  21589203.9164   21589202.6394
     -1252.6084
  -8067406.09448  -6273816.91044  21402384.6274   21402382.0924
      4240.1444
 -18343499.12549 -14279805.84847  18934611.9324   18934609.7724
      1526.8114
 04  9 10 16 26 29.9940000  0  6G 1G20G11G14G23G25
 -19814848.46949 -15424511.53146  18905701.5654   18905699.9634
      2369.5964
 -16375273.75848 -12723210.04745  20161538.0884   20161536.2484
      4091.2034
 -13131902.72349 -10218865.41046  19648436.5254   19648434.2174
       514.1214
   4438726.54347   3455261.12942  21592782.5724   21592781.0804
     -1253.5894
  -8130963.34447  -6323342.02743  21390289.7054   21390286.0024
      4237.1504
 -18366265.07849 -14297545.55547  18930279.6974   18930277.7094
      1517.7304
 04  9 10 16 26 44.9940000  0  6G 1G20G11G14G23G25
 -19850316.72349 -15452149.12146  18898952.3074   18898950.7254
      2364.5504
 -16436596.77349 -12770994.20745  20149868.8074   20149867.4404
      4088.2014
 -13139485.12149 -10224773.78945  19646993.7444   19646991.3894
       505.4934
   4457542.29748   3469922.70742  21596363.0724   21596362.0454
     -1254.3844
  -8194478.24647  -6372834.12543  21378203.1974   21378199.4754
      4234.3274
 -18388897.54749 -14315181.23447  18925972.6114   18925970.7094
      1508.8314
 04  9 10 16 26 59.9940000  0  6G 1G20G11G14G23G25
 -19885709.25849 -15479727.71546  18892217.2364   18892215.6974
      2359.5024
 -16497874.37949 -12818742.98044  20138208.2054   20138206.2294
      4085.1744
 -13146938.09049 -10230581.32445  19645575.2834   19645572.9754
       496.8654
   4476369.85948   3484593.49243  21599945.2834   21599944.7174
     -1255.1714
  -8257950.52747  -6422293.02043  21366125.0184   21366120.8854
      4231.4854
 -18411396.42249 -14332712.83247  18921691.5724   18921689.0804
      1499.9254
 04  9 10 16 27 14.9940000  0  6G 1G20G11G14G23G25
 -19921024.52349 -15507246.10546  18885497.1044   18885494.8854
      2354.3514
 -16559104.78548 -12866455.00444  20126556.4794   20126553.6974
      4082.0274
 -13154260.17649 -10236286.86345  19644182.0104   19644180.1154
       488.1394
   4495210.73847   3499274.65643  21603530.8694   21603530.6004
     -1256.0594
  -8321378.59447  -6471717.48043  21354054.6044   21354052.7134
      4228.5384
 -18433760.24649 -14350139.18747  18917436.0884   18917433.3654
      1490.9224
 04  9 10 16 27 29.9940000  0  6G 1G20G11G14G23G25
 -19956262.72749 -15534704.45346  18878791.4794   18878789.4004
      2349.2144
 -16620288.09849 -12914130.29344  20114913.5654   20114911.4434
      4078.8874
 -13161451.59849 -10241890.59045  19642813.3614   19642811.5924
       479.4284
   4514064.69947   3513966.03143  21607118.7444   21607118.4124
     -1256.9314
  -8384762.48448  -6521107.48443  21341993.5104   21341991.0224
      4225.5934
 -18455989.20749 -14367460.46546  18913205.9864   18913203.6934
      1481.9314
 04  9 10 16 27 44.9940000  0  6G 1G20G11G14G23G25
 -19991424.67249 -15562103.36746  18872100.0884   18872098.7604
      2344.1304
 -16681424.56249 -12961769.10545  20103279.9944   20103277.5454
      4075.7644
 -13168513.38349 -10247393.30145  19641469.8154   19641466.7294
       470.7864
   4532930.94548   3528666.95343  21610709.1824   21610708.5294
     -1257.7504
  -8448102.82048  -6570463.59043  21329940.4714   21329936.4864
      4222.6894
 -18478084.12549 -14384677.28946  18909001.2754   18908999.1504
      1472.9954
 04  9 10 16 27 59.9940000  0  6G 1G20G11G14G23G25
 -20026509.25849 -15589442.00847  18865423.8464   18865422.5454
      2338.9724
 -16742512.96148 -13009370.43744  20091654.8154   20091652.7794
      4072.5604
 -13175444.62549 -10252794.27345  19640150.6044   19640148.7834
       462.0834
   4551810.43448   3543378.18843  21614301.6504   21614300.8934
     -1258.6334
  -8511398.35948  -6619784.80943  21317895.4004   21317891.8574
      4219.7034
 -18500043.89149 -14401788.78947  18904822.3154   18904820.2404
      1463.9844
 04  9 10 16 28 14.9940000  0  6G 1G20G11G14G23G25
 -20061515.36349 -15616719.49247  18858762.6434   18858761.1544
      2333.7404
 -16803551.75849 -13056933.12145  20080039.4474   20080037.5654
      4069.2534
 -13182244.17649 -10258092.64545  19638856.4004   19638855.2754
       453.3034
   4570704.28948   3558100.64543  21617897.2364   21617896.3384
     -1259.5904
  -8574647.94148  -6669070.19543  21305859.8154   21305856.6624
      4216.6394
 -18521867.26649 -14418794.02047  18900669.6664   18900667.5844
      1454.8924
 04  9 10 16 28 29.9940000  0  6G 1G20G11G14G23G25
 -20096444.91849 -15643937.32446  18852115.5184   18852113.8224
      2328.6374
 -16864542.67649 -13104458.52745  20068433.8544   20068430.9794
      4066.0614
 -13188914.03148 -10263289.95345  19637587.7214   19637584.9714
       444.6574
   4589610.54348   3572832.73043  21621495.1904   21621493.8734
     -1260.4174
  -8637853.39548  -6718321.18043  21293832.1354   21293828.8654
      4213.6974
 -18543556.41849 -14435694.65647  18896541.8384   18896539.8774
      1445.9434
 04  9 10 16 28 44.9940000  0  6G 1G20G11G14G23G25
 -20131299.16049 -15671096.48046  18845483.2364   18845481.5064
      2323.6164
 -16925486.77349 -13151947.43045  20056836.0964   20056834.3154
      4062.9404
 -13195455.44949 -10268387.18445  19636342.1114   19636340.7524
       436.0954
   4608527.64548   3587573.30543  21625095.1354   21625094.1234
     -1261.1404
  -8701015.89847  -6767538.70343  21281812.0184   21281808.6234
      4210.8344
 -18565112.45749 -14452491.57047  18892440.3774   18892437.8654
      1437.0694
 04  9 10 16 28 59.9940000  0  6G 1G20G11G14G23G25
 -20166076.84449 -15698195.96946  18838865.1044   18838863.2834
      2318.5124
 -16986382.50049 -13199398.62144  20045247.9324   20045246.4364
      4059.7154
 -13201867.39549 -10273383.52745  19635122.2834   19635120.5924
       427.4634
   4627456.94548   3602323.35543  21628696.7134   21628695.9944
     -1261.9534
  -8764134.06647  -6816721.69143  21269801.1434   21269797.0144
      4207.8784
 -18586534.23049 -14469183.85947  18888364.3304   18888361.3734
      1428.1184
 04  9 10 16 29 14.9940000  0  6G 1G20G11G14G23G25
 -20200778.54349 -15725236.25847  18832261.3074   18832259.6154
      2313.4474
 -17047230.00049 -13246812.25044  20033669.2834   20033667.1074
      4056.5004
 -13208150.62949 -10278279.55945  19633926.9944   19633924.6234
       418.8824
   4646397.85947   3617082.49643  21632301.0184   21632300.8654
     -1262.7284
  -8827208.34447  -6865870.46143  21257798.8304   21257795.5254
      4204.9524
 -18607822.30949 -14485771.98047  18884312.6744   18884310.7014
      1419.2054
 04  9 10 16 29 29.9940000  0  6G 1G20G11G14G23G25
 -20235402.62549 -15752216.06647  18825672.9404   18825671.1584
      2308.2724
 -17108027.53949 -13294186.95344  20022099.6824   20022097.1744
      4053.1694
 -13214303.66449 -10283074.16845  19632755.9324   19632753.6784
       410.2024
   4665352.03547   3631851.93443  21635908.2364   21635908.1474
     -1263.6124
  -8890237.02348  -6914983.70743  21245804.2994   21245801.0024
      4201.9124
 -18628975.18049 -14502254.73047  18880287.7294   18880285.6434
      1410.1914
 04  9 10 16 29 44.9940000  0  6G 1G20G11G14G23G25
 -20269951.41049 -15779137.20347  18819098.2444   18819096.5294
      2303.2524
 -17168777.07849 -13341524.27345  20010539.8224   20010536.5614
      4049.9694
 -13220328.80549 -10287769.07845  19631609.7134   19631606.8974
       401.6764
   4684316.98047   3646629.75843  21639517.1744   21639517.1074
     -1264.3304
  -8953222.27048  -6964063.08643  21233818.9084   21233814.8974
      4199.0164
 -18649995.05549 -14518633.86347  18876287.5184   18876285.6584
      1401.3254
 04  9 10 16 29 59.9940000  0  6G 1G20G11G14G23G25
 -20304423.73049 -15805998.73846  18812538.6274   18812536.9514
      2298.1554
 -17229477.15248 -13388823.04345  19998988.5964   19998986.4514
      4046.6724
 -13226224.96549 -10292363.50445  19630487.9634   19630485.2214
       393.0774
   4703293.97348   3661416.98442  21643128.9554   21643128.0454
     -1265.1334
  -9016162.78948  -7013107.61343  21221841.9004   21221838.1504
      4196.0354
 -18670880.79349 -14534908.46547  18872313.3774   18872310.9824
      1392.3834
 04  9 10 16 30 14.9940000  0  6G 1G20G11G14G23G25
 -20338817.23049 -15832798.87146  18805993.6114   18805991.4984
      2292.9004
 -17290125.23049 -13436081.25845  19987447.8304   19987445.6864
      4043.2054
 -13231990.09449 -10296855.80945  19629390.3154   19629388.5724
       384.3424
   4722285.11747   3676215.23842  21646742.1274   21646741.2644
     -1266.0764
  -9079056.19148  -7062115.44143  21209873.6824   21209870.8464
      4192.8934
 -18691630.13749 -14551076.78947  18868364.8614   18868362.7834
      1383.2904
 04  9 10 16 30 29.9940000  0  6G 1G20G11G14G23G25
 -20373134.32449 -15859539.47346  18799463.3384   18799461.5374
      2287.8064
 -17350723.43749 -13483300.63345  19975916.3854   19975914.6154
      4039.8804
 -13237626.64149 -10301247.95745  19628317.5334   19628315.7014
       375.7704
   4741288.15647   3691022.74642  21650358.8154   21650357.5334
     -1266.8694
  -9141904.77748  -7111088.34043  21197913.7604   21197911.0374
      4189.9064
 -18712245.49249 -14567140.70347  18864442.3694   18864439.9084
      1374.3574
 04  9 10 16 30 44.9940000  0  6G 1G20G11G14G23G25
 -20407374.69949 -15886220.28146  18792947.6584   18792946.4124
      2282.6924
 -17411271.10249 -13530480.63345  19964394.5964   19964392.2054
      4036.5114
 -13243134.40249 -10305539.73045  19627269.7524   19627267.3654
       367.1844
   4760303.24647   3705839.65642  21653976.7294   21653976.9244
     -1267.6734
  -9204708.03948  -7160025.93743  21185962.7604   21185959.7754
      4186.8844
 -18732726.44149 -14583099.88347  18860544.5804   18860542.1044
      1365.3974
 04  9 10 16 30 59.9940000  0  6G 1G20G11G14G23G25
 -20441538.30549 -15912841.26647  18786446.6584   18786445.3654
      2277.5744
 -17471767.88749 -13577620.97745  19952882.3464   19952878.7134
      4033.1194
 -13248513.34849 -10309731.14845  19626246.6114   19626244.4004
       358.5964
   4779330.37547   3720665.96142  21657597.6744   21657596.8614
     -1268.4754
  -9267465.98448  -7208928.20343  21174020.3694   21174017.2214
      4183.8634
 -18753072.93749 -14598954.30947  18856672.6114   18856670.6974
      1356.4334
 04  9 10 16 31 14.9940000  0  6G 1G20G11G14G23G25
 -20475625.44549 -15939402.66446  18779960.0184   18779958.6474
      2272.4764
 -17532213.86749 -13624721.76245  19941380.0104   19941377.0844
      4029.7324
 -13253764.02749 -10313822.60545  19625247.7134   19625244.8264
       350.0454
   4798369.06647   3735501.25442  21661220.5104   21661219.8384
     -1269.2464
  -9330178.61748  -7257795.19143  21162086.3614   21162082.6004
      4180.8424
 -18773285.50449 -14614704.35947  18852825.7364   18852823.8074
      1347.5044
 04  9 10 16 31 29.9940000  0  6G 1G20G11G14G23G25
 -20509636.37949 -15965904.69947  18773487.7834   18773486.6474
      2267.3964
 -17592608.89549 -13671782.80545  19929887.2294   19929885.5804
      4026.3354
 -13258886.79749 -10317814.39145  19624272.4864   19624270.5254
       341.5184
   4817419.14547   3750345.42642  21664845.4404   21664844.7794
     -1270.0054
  -9392846.14548  -7306627.03143  21150161.4084   21150155.9514
      4177.8354
 -18793364.39849 -14630350.25847  18849005.6664   18849003.1074
      1338.5934
 04  9 10 16 31 44.9940000  0  6G 1G20G11G14G23G25
 -20543570.66849 -15992346.99646  18767030.4164   18767028.8464
      2262.2864
 -17652952.35549 -13718803.66845  19918403.8614   19918402.2054
      4022.8974
 -13263881.32449 -10321706.24645  19623322.1664   19623320.6664
       332.9684
   4836481.09447   3765198.85242  21668473.8154   21668472.4904
     -1270.7974
  -9455467.91448  -7355423.24643  21138244.8154   21138240.0614
      4174.7854
 -18813309.18049 -14645891.64547  18845210.0334   18845207.7724
      1329.6524
 04  9 10 16 31 59.9940000  0  6G 1G20G11G14G23G25
 -20577426.92248 -16018728.49246  18760587.5654   18760586.0254
      2257.0844
 -17713242.40249 -13765782.94145  19906931.2054   19906928.9324
      4019.3364
 -13268746.18449 -10325497.05145  19622396.3774   19622394.2604
       324.3244
   4855556.21547   3780062.55142  21672103.5804   21672102.6044
     -1271.6754
  -9518042.49248  -7404182.64843  21126337.7754   21126333.2294
      4171.6394
 -18833118.32449 -14661327.34047  18841440.7214   18841438.4634
      1320.6104
 04  9 10 16 32 14.9940000  0  6G 1G20G11G14G23G25
 -20611206.29748 -16045050.09046  18754159.8074   18754158.0724
      2251.9584
 -17773480.09448 -13812721.37545  19895468.2524   19895466.4824
      4015.8464
 -13273482.85248 -10329187.96145  19621494.9164   19621492.5184
       315.7784
   4874643.27747   3794935.54342  21675735.3934   21675733.5764
     -1272.4714
  -9580571.00048  -7452906.14544  21114438.9864   21114434.7324
      4168.5674
 -18852793.02348 -14676658.27747  18837696.4004   18837694.2954
      1311.6474
 04  9 10 16 32 29.9940000  0  6G 1G20G11G14G23G25
 -20644909.32848 -16071312.19947  18747746.1664   18747744.5684
      2246.8694
 -17833665.62149 -13859619.19945  19884015.6974   19884013.8034
      4012.3684
 -13278091.69948 -10332779.28945  19620617.7054   19620615.6004
       307.2574
   4893741.68847   3809817.40642  21679369.1904   21679367.7324
     -1273.2274
  -9643053.86348  -7501594.07443  21102548.4634   21102544.1234
      4165.5244
 -18872334.10949 -14691885.10247  18833978.1274   18833976.2324
      1302.7394
 04  9 10 16 32 44.9940000  0  6G 1G20G11G14G23G25
 -20678535.77748 -16097514.62147  18741347.5184   18741345.9434
      2241.7634
 -17893798.48849 -13906475.98445  19872572.5964   19872570.5254
      4008.8584
 -13282572.98849 -10336271.22345  19619764.4944   19619762.4944
       298.7534
   4912851.65248   3824708.24642  21683006.0024   21683004.8574
     -1273.9984
  -9705490.72748  -7550246.13743  21090667.1114   21090663.2134
      4162.4584
 -18891741.18048 -14707007.50047  18830285.1504   18830282.7254
      1293.8054
 04  9 10 16 32 59.9940000  0  6G 1G20G11G14G23G25
 -20712084.68449 -16123656.62146  18734963.3774   18734961.8574
      2236.5944
 -17953877.49249 -13953290.77344  19861139.5104   19861137.6704
      4005.2674
 -13286925.77048 -10339663.01245  19618936.1974   19618934.3344
       290.1854
   4931974.07047   3839608.77742  21686645.3304   21686644.2324
     -1274.8284
  -9767880.56648  -7598861.56643  21078794.3304   21078791.3814
      4159.3234
 -18911013.42649 -14722024.83647  18826617.7524   18826615.5534
      1284.8164
 04  9 10 16 33 14.9940000  0  6G 1G20G11G14G23G25
 -20745557.00049 -16149738.96547  18728593.8934   18728591.9124
      2231.4884
 -18013903.20749 -14000064.04345  19849717.0964   19849715.7874
      4001.7144
 -13291151.14548 -10342955.52745  19618133.0024   19618131.0724
       281.6924
   4951107.96948   3854518.25442  21690285.7524   21690284.6974
     -1275.5934
  -9830224.09847  -7647440.92243  21066930.7444   21066927.6004
      4156.2354
 -18930151.83249 -14736937.88747  18822975.9634   18822973.9984
      1275.8944
 04  9 10 16 33 29.9940000  0  6G 1G20G11G14G23G25
 -20778952.85248 -16175761.70347  18722238.7994   18722236.6904
      2226.3904
 -18073875.40649 -14046795.62945  19838305.5024   19838302.6974
      3998.1474
 -13295249.23048 -10346148.85546  19617352.7444   19617351.3154
       273.2064
   4970253.14847   3869436.53142  21693928.9794   21693928.2484
     -1276.3454
  -9892521.38347  -7695984.25443  21055075.9164   21055072.6274
      4153.1524
 -18949156.46149 -14751746.69147  18819359.4794   18819357.2644
      1266.9754
 04  9 10 16 33 44.9940000  0  6G 1G20G11G14G23G25
 -20812272.57448 -16201725.11747  18715898.0184   18715896.7724
      2221.3154
 -18133794.26249 -14093485.66845  19826903.1824   19826900.0684
      3994.5904
 -13299220.59049 -10349243.45345  19616597.5334   19616595.6824
       264.7574
   4989409.16448   3884363.26242  21697575.3074   21697574.1314
     -1277.0684
  -9954772.67247  -7744491.71943  21043230.2054   21043226.6394
      4150.0864
 -18968027.69948 -14766451.55947  18815768.0184   18815765.8384
      1258.0834
 04  9 10 16 33 59.9940000  0  6G 1G20G11G14G23G25
 -20845516.28148 -16227629.30147  18709572.0494   18709570.5574
      2216.2474
 -18193659.58249 -14140133.96945  19815510.9944   19815509.0294
      3991.0214
 -13303065.41449 -10352239.42245  19615865.9794   19615863.9044
       256.3224
   5008575.98048   3899298.39542  21701222.4474   21701221.5724
     -1277.7884
 -10016977.92247  -7792963.31643  21031392.2994   21031389.5104
      4147.0174
 -18986765.59848 -14781052.52747  18812202.5964   18812200.1154
      1249.1934
 04  9 10 16 34 14.9940000  0  6G 1G20G11G14G23G25
 -20878684.90648 -16253474.98446  18703260.4714   18703258.6044
      2211.2424
 -18253471.94149 -14186740.98045  19804129.1664   19804127.0064
      3987.4914
 -13306784.77348 -10355137.64545  19615157.8694   19615155.3574
       247.9574
   5027752.72347   3914241.25442  21704871.8694   21704869.2914
     -1278.4494
 -10079137.93047  -7841399.65643  21019564.1354   21019560.6934
      4144.0014
 -19005371.33249 -14795550.50447  18808661.9244   18808660.2604
      1240.3824
 04  9 10 16 34 29.9940000  0  6G 1G20G11G14G23G25
 -20911778.73848 -16279262.38746  18696962.6044   18696961.1824
      2206.2554
 -18313231.46149 -14233306.84845  19792757.1904   19792754.9554
      3983.9684
 -13310379.06649 -10357938.40245  19614473.3154   19614471.1864
       239.6204
   5046938.86747   3929191.46942  21708522.0654   21708521.3224
     -1279.0764
 -10141252.90647  -7889800.93044  21007743.4944   21007741.2644
      4140.9984
 -19023845.19549 -14809945.73047  18805146.4084   18805144.4674
      1231.5914
 04  9 10 16 34 44.9940000  0  6G 1G20G11G14G23G25
 -20944796.78548 -16304990.74247  18690679.2054   18690677.9244
      2201.2034
 -18372936.80949 -14279830.49645  19781395.4084   19781393.1824
      3980.3574
 -13313847.51648 -10360641.10245  19613813.7364   19613811.7294
       231.2304
   5066135.43048   3944149.77042  21712175.2754   21712175.2604
     -1279.7714
 -10203321.80547  -7938166.27343  20995931.9324   20995929.4824
      4137.9274
 -19042186.22749 -14824237.44947  18801656.1434   18801653.9124
      1222.7354
 04  9 10 16 34 59.9940000  0  6G 1G20G11G14G23G25
 -20977739.25448 -16330660.18746  18684410.9404   18684408.7644
      2196.1654
 -18432587.80549 -14326311.78545  19770044.0184   19770042.4984
      3976.7334
 -13317190.42248 -10363245.97745  19613177.6664   19613175.4404
       222.8604
   5085342.19548   3959116.03942  21715830.8854   21715830.0064
     -1280.4514
 -10265344.61347  -7986495.69543  20984129.9404   20984127.1504
      4134.8544
 -19060394.58249 -14838425.78147  18798191.4864   18798189.4634
      1213.8904
 04  9 10 16 35 14.9940000  0  6G 1G20G11G14G23G25
 -21010606.12549 -16356270.74646  18678156.4714   18678154.6584
      2191.1254
 -18492184.30549 -14372750.60245  19758703.1274   19758701.2644
      3973.1004
 -13320407.86749 -10365753.08245  19612565.2604   19612563.4244
       214.4964
   5104559.04748   3974090.21542  21719487.1274   21719485.7794
     -1281.1234
 -10327321.25847  -8034789.19544  20972336.8384   20972333.1504
      4131.7764
 -19078470.28149 -14852510.74247  18794751.8074   18794749.3544
      1205.0474
 04  9 10 16 35 29.9940000  0  6G 1G20G11G14G23G25
 -21043398.48049 -16381823.23046  18671916.4084   18671914.8034
      2186.1574
 -18551726.87149 -14419147.40245  19747373.0964   19747370.2684
      3969.5044
 -13323501.10548 -10368163.41045  19611976.2994   19611974.1864
       206.2164
   5123785.03947   3989071.44942  21723145.8544   21723143.0764
     -1281.7334
 -10389252.69947  -8083047.46143  20960551.7524   20960547.5224
      4128.7634
 -19096414.41049 -14866493.18747  18791337.2054   18791334.5534
      1196.2754
 04  9 10 16 35 44.9940000  0  6G 1G20G11G14G23G25
 -21076115.47749 -16407317.00047  18665690.6504   18665689.1004
      2181.1334
 -18611214.58249 -14465501.48045  19736053.3774   19736050.4794
      3965.8474
 -13326469.67248 -10370476.60245  19611411.9794   19611410.0654
       197.9044
   5143020.81648   4004060.34442  21726806.2054   21726804.1044
     -1282.3854
 -10451138.00846  -8131269.75843  20948775.0494   20948771.2724
      4125.6874
 -19114226.28549 -14880372.57447  18787947.1744   18787945.1824
      1187.4584
 04  9 10 16 35 59.9940000  0  6G 1G20G11G14G23G25
 -21108757.78549 -16432752.55546  18659478.8694   18659477.4084
      2176.1544
 -18670647.75049 -14511813.03945  19724742.7604   19724740.2724
      3962.2114
 -13329314.00048 -10372692.98045  19610870.7524   19610868.8154
       189.6224
   5162265.82848   4019056.40642  21730468.9554   21730466.8464
     -1283.0014
 -10512977.66447  -8179456.50043  20937007.1354   20937003.6474
      4122.6444
 -19131906.54349 -14894149.39547  18784583.4324   18784580.5574
      1178.6844
 04  9 10 16 36 14.9940000  0  6G 1G20G11G14G23G25
 -21141325.52349 -16458130.02747  18653281.5184   18653279.7524
      2171.1834
 -18730026.10549 -14558081.87545  19713443.4554   19713441.4244
      3958.5574
 -13332034.36348 -10374812.75845  19610352.6434   19610350.7054
       181.3584
   5181519.86347   4034059.48042  21734132.5024   21734130.4634
     -1283.6024
 -10574771.75447  -8227607.75443  20925247.9864   20925244.7874
      4119.6064
 -19149455.39149 -14907823.83246  18781243.5654   18781241.5574
      1169.9234
 04  9 10 16 36 29.9940000  0  6G 1G20G11G14G23G25
 -21173818.71949 -16483449.39846  18647098.2054   18647096.1704
      2166.2134
 -18789349.44549 -14604307.84446  19702154.7994   19702153.4244
      3954.8894
 -13334630.99248 -10376836.12945  19609859.0334   19609856.5064
       173.1094
   5200782.80947   4049069.52742  21737798.5024   21737796.5494
     -1284.1964
 -10636520.14847  -8275723.35543  20913497.3854   20913494.0534
      4116.5604
 -19166872.91049 -14921395.94547  18777929.4794   18777927.0104
      1161.1684
 04  9 10 16 36 44.9930000  0  6G 1G20G11G14G23G25
 -21206235.16449 -16508708.96147  18640929.5754   18640927.9464
      2161.0964
 -18848613.39849 -14650487.52745  19690877.1384   19690875.5484
      3950.9304
 -13337103.84449 -10378763.03145  19609388.5214   19609386.3764
       164.8574
   5220053.47747   4064085.59442  21741465.9744   21741463.6574
     -1284.7114
 -10698218.56246  -8323800.00843  20901756.8334   20901752.8024
      4113.2284
 -19184157.99649 -14934864.84447  18774639.9354   18774637.6774
      1152.3394
 04  9 10 16 36 59.9930000  0  6G 1G20G11G14G23G25
 -21238578.37949 -16533911.47347  18634774.8494   18634772.9034
      2156.2144
 -18907824.92249 -14696626.39145  19679609.8414   19679606.8214
      3947.4354
 -13339452.77048 -10380593.36345  19608941.6774   19608940.0174
       156.5954
   5239335.10247   4079110.19142  21745134.6144   21745133.1694
     -1285.4424
 -10759874.42647  -8371843.53144  20890024.2004   20890020.9784
      4110.3914
 -19201312.16449 -14948231.72747  18771375.4504   18771373.7284
      1143.6114
 04  9 10 16 37 14.9930000  0  6G 1G20G11G14G23G25
 -21270845.88749 -16559054.99247  18628634.5364   18628633.1574
      2151.1674
 -18966979.35549 -14742720.75445  19668353.2474   19668350.6774
      3943.6294
 -13341677.21148 -10382326.71145  19608518.2164   19608516.3454
       148.2964
   5258626.80947   4094142.63742  21748805.0134   21748804.4894
     -1286.1144
 -10821483.15646  -8419850.31243  20878300.3334   20878296.8764
      4107.2494
 -19218333.91449 -14961495.42647  18768136.6534   18768134.2634
      1134.7834
 04  9 10 16 37 29.9930000  0  6G 1G20G11G14G23G25
 -21303038.78549 -16584140.35946  18622508.5754   18622507.0174
      2146.1934
 -19026077.43049 -14788771.19945  19657107.0834   19657105.4824
      3939.8724
 -13343778.42648 -10383964.02745  19608118.1304   19608116.1464
       140.0814
   5277927.34047   4109181.98842  21752478.1224   21752477.4744
     -1286.7024
 -10883045.77047  -8467821.15643  20866585.0524   20866581.9464
      4104.1744
 -19235224.26249 -14974656.74646  18764922.4274   18764919.9974
      1126.0234
 04  9 10 16 37 44.9930000  0  6G 1G20G11G14G23G25
 -21335156.13348 -16609166.87547  18616396.5674   18616394.5994
      2141.1574
 -19085117.98849 -14834776.81245  19645872.1614   19645870.3454
      3936.0374
 -13345755.59048 -10385504.68745  19607741.6694   19607740.1924
       131.8114
   5297237.69947   4124229.00842  21756153.4274   21756152.2634
     -1287.3574
 -10944561.02047  -8515755.12944  20854879.8104   20854875.6184
      4101.0174
 -19251982.48048 -14987715.10547  18761733.4034   18761731.1854
      1117.2154
 04  9 10 16 37 59.9930000  0  6G 1G20G11G14G23G25
 -21367197.67248 -16634134.30946  18610299.2784   18610297.7084
      2136.1034
 -19144100.46149 -14880737.17245  19634647.9034   19634645.8254
      3932.1654
 -13347608.64148 -10386948.64845  19607389.0364   19607387.8174
       123.5374
   5316558.11347   4139283.85542  21759830.0524   21759828.3644
     -1288.0284
 -11006028.69147  -8563652.03144  20843182.7474   20843178.5364
      4097.8454
 -19268608.39549 -15000670.36747  18758569.7784   18758567.0914
      1108.3944
 04  9 10 16 38 14.9930000  0  6G 1G20G11G14G23G25
 -21399161.46548 -16659041.16847  18604217.1534   18604215.6224
      2130.9204
 -19203022.67249 -14926650.58245  19623435.1304   19623433.2554
      3928.1474
 -13349335.82448 -10388294.52345  19607060.9894   19607058.9114
       115.1464
   5335890.53147   4154348.03542  21763508.2084   21763507.0094
     -1288.8284
 -11067446.76647  -8611510.27044  20831495.4194   20831491.3644
      4094.5384
 -19285100.07848 -15013521.04347  18755431.4354   18755429.1814
      1099.4464
 04  9 10 16 38 29.9930000  0  6G 1G20G11G14G23G25
 -21431050.89548 -16683890.07047  18598148.4824   18598147.0604
      2125.9624
 -19261887.70349 -14972519.43745  19612233.6854   19612230.8024
      3924.3354
 -13350940.61748 -10389545.01645  19606755.2864   19606753.4894
       106.9864
   5355231.56646   4169418.89542  21767188.4824   21767187.7004
     -1289.4024
 -11128818.42647  -8659332.34044  20819816.2474   20819812.8804
      4091.4444
 -19301460.96948 -15026269.78547  18752317.8884   18752315.6894
      1090.7264
 04  9 10 16 38 44.9930000  0  6G 1G20G11G14G23G25
 -21462865.43748 -16708680.62546  18592094.8334   18592092.8454
      2120.9704
 -19320694.62149 -15018343.02045  19601043.1534   19601041.6304
      3920.4614
 -13352422.72348 -10390699.92245  19606473.5054   19606471.6384
        98.8074
   5374581.50446   4184496.74242  21770870.9034   21770870.2474
     -1289.9964
 -11190143.01647  -8707117.72344  20808146.9504   20808143.3724
      4088.3064
 -19317690.53948 -15038916.21146  18749229.6854   18749227.1464
      1081.9714
 04  9 10 16 38 59.9930000  0  6G 1G20G11G14G23G25
 -21494605.39849 -16733413.06647  18586054.6304   18586052.8924
      2115.9974
 -19379443.53949 -15064121.35545  19589863.6614   19589861.9704
      3916.5954
 -13353782.49248 -10391759.50045  19606214.8334   19606212.7714
        90.6514
   5393940.20746   4199581.39542  21774555.3804   21774554.2944
     -1290.5804
 -11251420.90646  -8754866.69143  20796485.3804   20796483.0794
      4085.1934
 -19333789.32449 -15051460.71947  18746166.0444   18746164.0094
      1073.2524
 04  9 10 16 39 14.9930000  0  6G 1G20G11G14G23G25
 -21526270.75048 -16758087.36747  18580028.7944   18580027.0954
      2111.0234
 -19438134.03149 -15109854.22345  19578695.6614   19578692.6534
      3912.6994
 -13355020.18048 -10392723.93045  19605979.5604   19605976.7824
        82.5134
   5413307.52746   4214672.75842  21778238.8724   21778239.9034
     -1291.1554
 -11312651.78546  -8802579.06643  20784833.7634   20784830.9784
      4082.0594
 -19349757.39548 -15063903.37947  18743127.4894   18743125.5244
      1064.5384
 04  9 10 16 39 29.9930000  0  6G 1G20G11G14G23G25
 -21557860.38349 -16782702.66446  18574017.6304   18574016.1384
      2105.9764
 -19496764.74649 -15155540.49245  19567538.0444   19567536.3454
      3908.7144
 -13356134.75848 -10393592.43745  19605767.1854   19605764.5054
        74.3054
   5432684.59446   4229771.74642  21781928.0834   21781927.9704
     -1291.8044
 -11373834.53146  -8850253.91443  20773191.3254   20773187.4744
      4078.8504
 -19365593.60549 -15076243.28947  18740113.8334   18740111.9744
      1055.7474
 04  9 10 16 39 44.9930000  0  6G 1G20G11G14G23G25
 -21589375.48848 -16807259.88346  18568020.5754   18568018.8994
      2101.0074
 -19555336.60249 -15201180.89845  19556392.1224   19556389.3804
      3904.7904
 -13357127.45348 -10394365.96145  19605578.1304   19605575.4854
        66.1804
   5452070.21146   4244877.34842  21785616.4034   21785616.9624
     -1292.3744
 -11434970.23846  -8897892.10244  20761557.2784   20761553.9784
      4075.7144
 -19381299.22748 -15088481.44547  18737125.4584   18737123.3644
      1047.0414
 04  9 10 16 39 59.9930000  0  6G 1G20G11G14G23G25
 -21620817.01648 -16831759.78146  18562037.3104   18562035.8294
      2096.1024
 -19613850.33649 -15246776.00845  19545257.5914   19545254.7284
      3900.9164
 -13357999.54748 -10395045.54345  19605412.0754   19605410.0324
        58.1404
   5471463.41446   4259988.89142  21789306.3644   21789307.9504
     -1292.8804
 -11496059.69547  -8945494.26244  20749932.3804   20749929.0954
      4072.6304
 -19396875.24249 -15100618.60547  18734161.3574   18734158.8574
      1038.4014
 04  9 10 16 40 14.9930000  0  6G 1G20G11G14G23G25
 -21652183.55549 -16856201.23847  18556068.4504   18556066.9784
      2091.1034
 -19672304.18049 -15292324.44945  19534134.3574   19534131.7864
      3896.9234
 -13358749.68748 -10395630.09445  19605269.6384   19605267.6424
        50.0094
   5490865.47746   4275107.32842  21793000.1224   21792999.6264
     -1293.4714
 -11557101.31247  -8993059.13344  20738316.9744   20738313.7784
      4069.4414
 -19412320.36349 -15112653.77347  18731221.9504   18731219.8414
      1029.6754
 04  9 10 16 40 29.9930000  0  6G 1G20G11G14G23G25
 -21683474.96949 -16880584.16047  18550113.7784   18550112.3684
      2086.0944
 -19730697.69549 -15337825.89545  19523022.2554   19523018.9854
      3892.9014
 -13359377.86348 -10396119.59045  19605149.8644   19605148.6344
        41.8784
   5510276.59846   4290232.80942  21796693.0524   21796693.5564
     -1294.0754
 -11618094.89547  -9040586.58244  20726710.5524   20726707.1304
      4066.2394
 -19427634.42249 -15124586.80547  18728307.9584   18728306.1184
      1020.9374
 04  9 10 16 40 44.9930000  0  6G 1G20G11G14G23G25
 -21714694.10549 -16904910.75847  18544173.1074   18544171.4274
      2081.2764
 -19789033.28548 -15383282.19145  19511920.8644   19511919.2004
      3889.0394
 -13359887.23048 -10396516.51645  19605053.0284   19605051.2354
        33.9584
   5529693.95346   4305363.14142  21800388.1774   21800388.4854
     -1294.4904
 -11679043.21547  -9088078.77344  20715111.9894   20715108.6424
      4063.2214
 -19442820.25048 -15136419.93047  18725418.2084   18725415.8534
      1012.3894
 04  9 10 16 40 59.9930000  0  6G 1G20G11G14G23G25
 -21745838.17649 -16929178.86346  18538246.3334   18538244.6424
      2076.2714
 -19847307.93049 -15428691.00045  19500831.8334   19500829.9894
      3884.9764
 -13360274.99648 -10396818.68045  19604978.5364   19604977.1964
        25.8514
   5549120.33646   4320500.50442  21804085.3334   21804084.9394
     -1295.0924
 -11739943.37547  -9135533.45744  20703523.7634   20703518.9274
      4060.0114
 -19457875.12549 -15148151.00847  18722553.6304   18722551.2554
      1003.6584
 04  9 10 16 41 14.9930000  0  6G 1G20G11G14G23G25
 -21776908.33648 -16953389.37546  18532333.7164   18532332.1264
      2071.3444
 -19905522.50849 -15474053.00045  19489754.2244   19489752.5954
      3880.9724
 -13360542.51648 -10397027.15645  19604928.2324   19604926.6104
        17.8354
   5568554.48447   4335643.94542  21807783.3724   21807782.8414
     -1295.6104
 -11800796.32047  -9182951.34044  20691943.4194   20691939.4704
      4056.8634
 -19472800.32849 -15159781.03947  18719713.5524   18719711.0954
       995.0144
 04  9 10 16 41 29.9930000  0  6G 1G20G11G14G23G25
 -21807903.62949 -16977541.56246  18526435.8964   18526434.1464
      2066.3534
 -19963675.68449 -15519367.16445  19478688.1694   19478686.2514
      3876.8784
 -13360688.97348 -10397141.30545  19604900.4974   19604898.7944
         9.7644
   5587997.34847   4350794.19542  21811483.7554   21811483.2124
     -1296.1914
 -11861601.05547  -9230331.63744  20680372.3804   20680369.4154
      4053.6494
 -19487594.93449 -15171309.30147  18716897.8494   18716896.1344
       986.3074
 04  9 10 16 41 44.9930000  0  6G 1G20G11G14G23G25
 -21838826.92249 -17001637.62947  18520551.3724   18520549.6814
      2061.5534
 -20021770.09849 -15564635.52345  19467632.8804   19467630.4154
      3872.9614
 -13360717.44148 -10397163.50445  19604895.0604   19604892.9274
         1.8984
   5607446.10947   4365949.03142  21815184.5134   21815184.1384
     -1296.5844
 -11922360.32447  -9277676.50444  20668810.3644   20668806.7324
      4050.6184
 -19502261.95349 -15182738.15247  18714106.6854   18714105.0444
       977.8014
 04  9 10 16 41 59.9930000  0  6G 1G20G11G14G23G25
 -21869677.28549 -17025676.87947  18514680.5604   18514678.9074
      2056.6914
 -20079804.51249 -15609857.14545  19456589.0914   19456587.2434
      3868.9614
 -13360627.12548 -10397093.13345  19604911.9974   19604909.6924
        -6.0214
   5626901.57847   4381109.08642  21818886.7474   21818887.1264
     -1297.0314
 -11983073.09447  -9324985.15244  20657256.9194   20657253.2594
      4047.5184
 -19516800.48849 -15194066.89147  18711340.3724   18711338.2354
       969.2364
 04  9 10 16 42 14.9930000  0  6G 1G20G11G14G23G25
 -21900453.69949 -17049658.50447  18508824.1224   18508822.6264
      2051.7614
 -20137777.59849 -15655030.96945  19445557.3574   19445555.2354
      3864.8724
 -13360417.13748 -10396929.52745  19604952.3724   19604949.8104
       -13.9994
   5646364.85547   4396275.23043  21822590.1774   21822591.2004
     -1297.5524
 -12043738.20747  -9372256.63744  20645712.7244   20645709.8924
      4044.3414
 -19531209.64549 -15205294.80547  18708598.4504   18708595.9504
       960.6104
 04  9 10 16 42 29.9930000  0  6G 1G20G11G14G23G25
 -21931155.21549 -17073581.75847  18502982.0214   18502980.4074
      2046.7684
 -20195688.03949 -15700155.98045  19434537.1304   19434535.0644
      3860.6964
 -13360086.66048 -10396672.02345  19605015.5914   19605013.3844
       -22.0324
   5665836.85947   4411448.18843  21826295.2554   21826296.1924
     -1298.1344
 -12104354.64547  -9419490.20744  20634177.6144   20634174.9664
      4041.0964
 -19545488.58649 -15216421.26247  18705881.1384   18705879.1184
       951.9294
 04  9 10 16 42 44.9930000  0  6G 1G20G11G14G23G25
 -21961781.98849 -17097446.77747  18497153.7864   18497152.4784
      2041.7854
 -20253535.73049 -15745232.12145  19423529.5604   19423526.6734
      3856.5134
 -13359636.20348 -10396321.02345  19605101.0284   19605098.9234
       -30.0304
   5685317.32847   4426627.71543  21830002.6924   21830002.2204
     -1298.6984
 -12164922.42648  -9466685.87144  20622652.7784   20622648.7474
      4037.8524
 -19559637.45348 -15227446.35547  18703188.7004   18703186.4974
       943.2584
 04  9 10 16 42 59.9930000  0  6G 1G20G11G14G23G25
 -21992335.08249 -17121254.38347  18491339.3964   18491338.4314
      2036.8734
 -20311321.46549 -15790259.96145  19412532.9504   19412530.7864
      3852.3824
 -13359066.82048 -10395877.37945  19605209.0364   19605206.7714
       -37.9594
   5704805.27048   4441813.07043  21833711.5994   21833711.0324
     -1299.1964
 -12225442.55948  -9513844.42644  20611136.1074   20611132.2284
      4034.6764
 -19573657.34049 -15238370.94547  18700520.8494   18700518.5914
       934.6594
 04  9 10 16 43 14.9930000  0  6G 1G20G11G14G23G25
 -22022813.88749 -17145004.11346  18485539.7554   18485538.2744
      2031.9204
 -20369044.34049 -15835238.81645  19401548.7084   19401547.3884
      3848.1924
 -13358378.23048 -10395340.83245  19605340.1534   19605337.9934
       -45.9064
   5724301.09447   4457004.62542  21837421.5754   21837421.3254
     -1299.7224
 -12285914.36348  -9560965.32044  20599628.4504   20599624.9194
      4031.4544
 -19587547.82049 -15249194.70347  18697877.4194   18697875.3374
       926.0324
 04  9 10 16 43 29.9930000  0  6G 1G20G11G14G23G25
 -22053218.87549 -17168696.30547  18479753.4974   18479751.9784
      2026.9994
 -20426704.49649 -15880168.80145  19390576.6464   19390574.2784
      3844.0104
 -13357570.91048 -10394711.76245  19605493.8494   19605492.2514
       -53.8214
   5743804.41048   4472201.94543  21841133.0214   21841132.8294
     -1300.2214
 -12346338.10947  -9608048.75043  20588130.6224   20588125.6734
      4028.2504
 -19601309.28949 -15259917.93047  18695258.9824   18695256.7434
       917.4314
 04  9 10 16 43 44.9930000  0  6G 1G20G11G14G23G25
 -22083550.61749 -17192331.43746  18473982.1384   18473980.3804
      2022.1164
 -20484302.17249 -15925050.10245  19379616.2634   19379613.3214
      3839.8454
 -13356645.65248 -10393990.81245  19605669.8644   19605668.9194
       -61.6844
   5763314.68448   4487404.71143  21844846.0604   21844845.4194
     -1300.6854
 -12406714.21147  -9655095.03943  20576640.6074   20576636.6574
      4025.0734
 -19614942.43749 -15270541.16447  18692664.4504   18692662.4034
       908.8774
 04  9 10 16 43 59.9930000  0  6G 1G20G11G14G23G25
 -22113808.35949 -17215908.89547  18468224.2714   18468222.4704
      2017.1834
 -20541836.30148 -15969881.88345  19368667.1074   19368665.3644
      3835.6094
 -13355601.80548 -10393177.45345  19605868.7244   19605866.8964
       -69.5904
   5782832.63348   4502613.45743  21848559.7864   21848559.9034
     -1301.1974
 -12467041.89548  -9702103.62543  20565161.1774   20565156.7744
      4021.8464
 -19628446.71149 -15281063.98046  18690094.6304   18690092.7594
       900.2854
 04  9 10 16 44 14.9930000  0  6G 1G20G11G14G23G25
 -22143993.71149 -17239429.94147  18462479.7554   18462478.6654
      2012.3574
 -20599308.16048 -16014665.14545  19357730.9504   19357729.0714
      3831.4574
 -13354441.29749 -10392273.17645  19606089.5214   19606087.4854
       -77.3674
   5802356.66848   4517826.94143  21852275.1144   21852275.6534
     -1301.6024
 -12527322.68747  -9749075.64843  20553689.2084   20553685.0714
      4018.7204
 -19641823.65249 -15291487.57447  18687548.9664   18687547.1384
       891.7964
 04  9 10 16 44 29.9930000  0  6G 1G20G11G14G23G25
 -22174106.35249 -17262894.35247  18456749.7474   18456748.2124
      2007.5094
 -20656717.06248 -16059399.35946  19346806.8174   19346804.5244
      3827.2604
 -13353163.90248 -10391277.82045  19606332.8964   19606331.0014
       -85.1604
   5821887.03548   4533045.34442  21855991.4974   21855991.6734
     -1302.0244
 -12587556.11747  -9796010.77743  20542226.8414   20542223.8104
      4015.5624
 -19655072.96948 -15301811.72347  18685027.9354   18685026.2634
       883.2884
 04  9 10 16 44 44.9930000  0  6G 1G20G11G14G23G25
 -22204147.57049 -17286303.08647  18451033.2084   18451031.4784
      2002.7484
 -20714064.02748 -16104085.30945  19335893.8104   19335891.2554
      3823.1314
 -13351771.02048 -10390192.46945  19606597.5604   19606595.8494
       -92.8594
   5841422.59848   4548267.84042  21859708.6224   21859709.4784
     -1302.3714
 -12647743.21547  -9842909.80944  20530774.3174   20530771.5954
      4012.4734
 -19668196.07048 -15312037.52047  18682530.6614   18682528.3604
       874.8734
 04  9 10 16 44 59.9930000  0  6G 1G20G11G14G23G25
 -22234116.84449 -17309655.76647  18445330.1854   18445328.3334
      1997.9524
 -20771348.35248 -16148722.42245  19324992.7164   19324990.4194
      3818.9554
 -13350262.32848 -10389016.86345  19606884.7864   19606881.8214
      -100.5794
   5860963.77048   4563494.68442  21863427.3334   21863427.9114
     -1302.7454
 -12707883.49248  -9889772.34444  20519329.7634   20519327.1614
      4009.3524
 -19681192.60248 -15322164.69147  18680057.6304   18680055.4424
       866.4354
 04  9 10 16 45 14.9930000  0  6G 1G20G11G14G23G25
 -22264013.70749 -17332952.02347  18439641.1304   18439639.0714
      1993.1244
 -20828569.15648 -16193310.05545  19314103.9584   19314101.5524
      3814.7204
 -13348637.60948 -10387750.84445  19607194.0364   19607191.8144
      -108.3154
   5880510.94947   4578726.25442  21867146.8644   21867148.0284
     -1303.1454
 -12767976.36348  -9936597.94944  20507895.0524   20507891.8804
      4006.1914
 -19694062.12548 -15332192.89847  18677608.2864   18677606.3534
       857.9684
 04  9 10 16 45 29.9930000  0  6G 1G20G11G14G23G25
 -22293839.47349 -17356192.88747  18433965.2864   18433963.4744
      1988.3844
 -20885727.48849 -16237849.01646  19303227.3174   19303224.5674
      3810.5554
 -13346898.10248 -10386395.40245  19607524.8724   19607523.8604
      -115.9674
   5900062.73447   4593961.36742  21870867.9894   21870868.7514
     -1303.4524
 -12828023.02748  -9983387.53544  20496468.5834   20496464.8724
      4003.1114
 -19706806.01649 -15342123.20747  18675183.4824   18675181.4424
       849.5934
 04  9 10 16 45 44.9930000  0  6G 1G20G11G14G23G25
 -22323594.67249 -17379378.75447  18428303.2164   18428301.4784
      1983.6804
 -20942823.56648 -16282339.46545  19292362.1464   19292359.9354
      3806.4054
 -13345044.71948 -10384951.24245  19607877.5054   19607876.3764
      -123.5594
   5919618.62947   4609199.68442  21874588.6304   21874590.2164
     -1303.7264
 -12888023.85548 -10030141.42644  20485051.0284   20485047.1734
      4000.0554
 -19719424.95748 -15351956.16447  18672782.0364   18672780.0444
       841.2634
 04  9 10 16 45 59.9930000  0  6G 1G20G11G14G23G25
 -22353280.78949 -17402510.80147  18422654.1614   18422652.4504
      1979.0744
 -20999858.55148 -16326782.30545  19281508.8104   19281506.5094
      3802.3324
 -13343079.12148 -10383419.61345  19608251.4354   19608249.5284
      -131.0404
   5939177.23046   4624440.12142  21878310.7474   21878311.0794
     -1303.9074
 -12947980.26248 -10076860.69944  20473641.7164   20473637.7164
      3997.0944
 -19731920.44548 -15361692.91447  18670404.2164   18670401.9464
       833.0334
 04  9 10 16 46 14.9930000  0  6G 1G20G11G14G23G25
 -22382895.06649 -17425586.86347  18417018.7324   18417017.1034
      1974.2854
 -21056829.34048 -16371175.12946  19270667.7554   19270665.6384
      3798.0534
 -13340998.72748 -10381798.55145  19608647.2864   19608645.3494
      -138.6934
   5958741.20347   4639684.69542  21882034.3804   21882033.1924
     -1304.2654
 -13007889.32848 -10123543.08644  20462240.9354   20462237.3174
      3993.9384
 -19744289.80948 -15371331.37547  18668050.6774   18668048.0874
       824.6244
 04  9 10 16 46 29.9930000  0  6G 1G20G11G14G23G25
 -22412439.63749 -17448608.61346  18411396.5054   18411395.1534
      1969.6384
 -21113737.76248 -16415519.34045  19259838.4664   19259835.9274
      3793.8954
 -13338805.82848 -10380089.80545  19609064.8024   19609063.2514
      -146.1934
   5978308.41447   4654931.81641  21885757.4744   21885756.5564
     -1304.4814
 -13067753.21148 -10170190.24644  20450850.0214   20450845.5644
      3990.9264
 -19756535.35948 -15380873.36347  18665720.1464   18665718.1384
       816.3704
 04  9 10 16 46 44.9930000  0  6G 1G20G11G14G23G25
 -22441913.18449 -17471575.01247  18405787.8804   18405786.5444
      1964.9034
 -21170582.17648 -16459813.70345  19249021.3024   19249018.2674
      3789.6284
 -13336499.25448 -10378292.49645  19609504.2004   19609501.9114
      -153.7724
   5997880.15646   4670182.47341  21889482.0284   21889480.0054
     -1304.7834
 -13127570.39848 -10216801.03544  20439466.8964   20439462.9354
      3987.8134
 -19768655.82048 -15390317.89847  18663414.1144   18663411.5214
       808.0314
 04  9 10 16 46 59.9930000  0  6G 1G20G11G14G23G25
 -22471314.21949 -17494484.91047  18400192.7554   18400191.3024
      1960.0694
 -21227360.98448 -16504056.92645  19238216.2554   19238214.8104
      3785.2544
 -13334077.84448 -10376405.70345  19609964.6464   19609962.5754
      -161.4274
   6017457.90646   4685437.87541  21893208.3414   21893206.0954
     -1305.1834
 -13187339.33248 -10263374.21544  20428093.0674   20428089.1424
      3984.5964
 -19780649.76649 -15399663.82847  18661131.3964   18661129.2284
       799.5964
 04  9 10 16 47 14.9930000  0  6G 1G20G11G14G23G25
 -22500644.52749 -17517339.69947  18394611.7164   18394610.0714
      1955.3544
 -21284075.51248 -16548250.05545  19227424.0134   19227422.2394
      3780.9684
 -13331543.50048 -10374430.89545  19610447.0834   19610444.9584
      -168.9564
   6037039.87146   4700696.50441  21896934.1384   21896933.8414
     -1305.4644
 -13247061.75048 -10309911.14544  20416727.7394   20416724.2124
      3981.4954
 -19792519.14149 -15408912.69547  18658872.9894   18658870.7004
       791.2924
 04  9 10 16 47 29.9930000  0  6G 1G20G11G14G23G25
 -22529905.13349 -17540140.18046  18389043.5754   18389042.5324
      1950.7074
 -21340726.37948 -16592393.58246  19216643.7164   19216641.3804
      3776.7244
 -13328897.34848 -10372368.97345  19610950.7084   19610948.1304
      -176.4104
   6056625.07046   4715957.66841  21900661.2394   21900661.6574
     -1305.6804
 -13306738.46948 -10356412.47344  20405371.3334   20405368.0754
      3978.4484
 -19804264.96549 -15418065.28947  18656637.8414   18656635.5994
       783.0554
 04  9 10 16 47 44.9930000  0  6G 1G20G11G14G23G25
 -22559094.94549 -17562885.48847  18383489.0364   18383487.0524
      1945.9884
 -21397312.27748 -16636486.49646  19205876.1854   19205874.0714
      3772.3934
 -13326138.48448 -10370219.21945  19611475.3334   19611473.4314
      -183.9244
   6076214.65245   4731222.27341  21904388.6144   21904389.0214
     -1305.9724
 -13366368.19948 -10402877.18444  20394024.3964   20394020.6224
      3975.3154
 -19815886.21949 -15427120.82447  18654426.3174   18654424.4784
       774.7504
 04  9 10 16 47 59.9930000  0  6G 1G20G11G14G23G25
 -22588213.87949 -17585575.57047  18377947.7474   18377946.5324
      1941.2624
 -21453832.82048 -16680528.47345  19195120.2944   19195118.2674
      3768.0364
 -13323267.05548 -10367981.77045  19612021.4354   19612019.5324
      -191.4294
   6095808.64545   4746490.28541  21908117.0914   21908116.8684
     -1306.2664
 -13425950.93447 -10449305.26244  20382686.5754   20382682.7674
      3972.1824
 -19827382.92649 -15436079.29347  18652238.5284   18652236.9664
       766.4474
 04  9 10 16 48 14.9930000  0  6G 1G20G11G14G23G25
 -22617262.09049 -17608210.53947  18372420.2474   18372418.6144
      1936.5474
 -21510287.72348 -16724519.29346  19184377.1924   19184374.9394
      3763.6604
 -13320283.30148 -10365656.78145  19612589.2004   19612587.3884
      -198.9174
   6115406.96945   4761761.63341  21911845.9274   21911846.5564
     -1306.5554
 -13485486.49248 -10495696.59444  20371357.1464   20371353.5604
      3969.0374
 -19838755.21949 -15444940.82847  18650074.3024   18650072.5834
       758.1534
 04  9 10 16 48 29.9930000  0  6G 1G20G11G14G23G25
 -22646239.21149 -17630790.12147  18366905.9894   18366904.4504
      1931.8084
 -21566676.41448 -16768458.52346  19173647.0134   19173645.8334
      3759.2464
 -13317187.10548 -10363244.17645  19613178.7784   19613176.6074
      -206.4134
   6135009.71145   4777036.46941  21915576.3254   21915577.1694
     -1306.8494
 -13544974.50848 -10542050.90244  20360037.6854   20360032.7394
      3965.8684
 -19850003.06249 -15453705.38747  18647934.0134   18647932.0564
       749.8564
 04  9 10 16 48 44.9930000  0  6G 1G20G11G14G23G25
 -22675146.69949 -17653315.43747  18361404.7164   18361403.6614
      1927.1664
 -21623000.07848 -16812347.10246  19162929.0754   19162927.3104
      3754.9114
 -13313980.03148 -10360745.16845  19613789.2714   19613787.4154
      -213.8054
   6154615.56645   4792313.72341  21919308.8804   21919308.1424
     -1307.0574
 -13604416.35948 -10588369.21144  20348725.8884   20348721.0014
      3962.7904
 -19861128.05949 -15462374.21146  18645816.7714   18645814.9544
       741.6664
 04  9 10 16 48 59.9930000  0  6G 1G20G11G14G23G25
 -22703983.97749 -17675786.05146  18355917.4034   18355915.9394
      1922.4854
 -21679257.80948 -16856184.28146  19152223.5604   19152221.3104
      3750.5154
 -13310661.92648 -10358159.66045  19614420.4664   19614419.1074
      -221.2074
   6174225.08645   4807593.75042  21923039.3334   21923040.1464
     -1307.3014
 -13663811.34048 -10634651.00444  20337423.1694   20337418.8454
      3959.6654
 -19872129.56249 -15470946.82046  18643723.6464   18643721.5524
       733.4344
 04  9 10 16 49 14.9930000  0  6G 1G20G11G14G23G25
 -22732750.03549 -17698201.15647  18350443.4584   18350442.0014
      1917.7374
 -21735448.14848 -16899968.94946  19141530.9194   19141528.6384
      3746.0234
 -13307231.78148 -10355486.84445  19615073.3574   19615071.5604
      -228.6764
   6193839.14144   4822877.41042  21926771.1774   21926772.0244
     -1307.6044
 -13723158.34848 -10680895.41844  20326129.6464   20326125.6264
      3956.4674
 -19883006.66448 -15479422.49247  18641653.7784   18641651.7824
       725.1404
 04  9 10 16 49 29.9930000  0  6G 1G20G11G14G23G25
 -22761447.31249 -17720562.67246  18344982.7084   18344980.9504
      1913.1524
 -21791573.34848 -16943702.88346  19130850.6464   19130848.2004
      3741.6804
 -13303692.21948 -10352728.75444  19615746.5834   19615745.0754
      -235.9714
   6213455.50445   4838162.84442  21930504.7714   21930505.7784
     -1307.7584
 -13782459.79347 -10727104.31243  20314844.3334   20314840.4354
      3953.4304
 -19893761.91049 -15487803.21147  18639606.8644   18639605.2514
       717.0164
 04  9 10 16 49 44.9930000  0  6G 1G20G11G14G23G25
 -22790074.48449 -17742869.56647  18339534.9194   18339533.2674
      1908.4784
 -21847631.74648 -16987384.73846  19120182.9974   19120180.8214
      3737.2274
 -13300042.01648 -10349884.47744  19616441.7554   19616440.1424
      -243.3474
   6233075.39545   4853451.01642  21934238.2324   21934239.5714
     -1307.9934
 -13841714.16048 -10773276.55543  20303568.9584   20303565.0014
      3950.2914
 -19904394.02349 -15496087.98447  18637583.6774   18637581.5484
       708.8084
 04  9 10 16 49 59.9930000  0  6G 1G20G11G14G23G25
 -22818631.24249 -17765121.58647  18334100.5524   18334099.6654
      1903.7844
 -21903622.72348 -17031014.07446  19109528.1144   19109525.8104
      3732.7324
 -13296281.27048 -10346954.03545  19617157.1694   19617155.2004
      -250.7164
   6252699.13346   4868742.16442  21937973.0754   21937973.4354
     -1308.2494
 -13900921.03547 -10819411.77343  20292302.1614   20292298.6074
      3947.1254
 -19914902.87948 -15504276.69947  18635584.0834   18635581.9074
       700.5904
 04  9 10 16 50 14.9930000  0  6G 1G20G11G14G23G25
 -22847118.21549 -17787319.22347  18328679.8574   18328678.3724
      1899.1324
 -21959546.62948 -17074591.12546  19098886.0674   19098884.4464
      3728.2604
 -13292410.75848 -10343938.05945  19617893.9114   19617891.6924
      -258.0344
   6272325.99245   4884035.76642  21941707.8964   21941707.7204
     -1308.4574
 -13960080.93448 -10865510.39544  20281044.7324   20281040.9664
      3943.9934
 -19925289.18748 -15512369.93447  18633607.5214   18633605.6224
       692.4214
 04  9 10 16 50 29.9930000  0  6G 1G20G11G14G23G25
 -22875535.19949 -17809462.34847  18323272.1304   18323270.7744
      1894.4664
 -22015402.92648 -17118115.50046  19088257.0674   19088254.5284
      3723.7534
 -13288430.48848 -10340836.56645  19618650.7784   19618649.1574
      -265.3514
   6291956.30945   4899332.07442  21945443.8884   21945443.4354
     -1308.6884
 -14019193.49648 -10911572.11344  20269796.0284   20269792.1074
      3940.8384
 -19935552.77748 -15520367.55147  18631654.3644   18631652.7324
       684.2394
 04  9 10 16 50 44.9930000  0  6G 1G20G11G14G23G25
 -22903881.35949 -17831550.25847  18317877.8494   18317876.6304
      1889.7444
 -22071190.39149 -17161586.26246  19077641.1534   19077638.6654
      3719.1644
 -13284339.59448 -10337648.89145  19619429.5134   19619428.0174
      -272.7264
   6311590.93045   4914631.76242  21949179.7324   21949180.1894
     -1308.9754
 -14078257.88748 -10957596.32044  20258556.4584   20258553.0444
      3937.6264
 -19945692.91048 -15528268.94546  18629724.9504   18629722.9234
       676.0094
 04  9 10 16 50 59.9930000  0  6G 1G20G11G14G23G25
 -22932157.31249 -17853583.47347  18312497.5214   18312496.0014
      1885.0644
 -22126909.28948 -17205003.59446  19067038.0364   19067037.0994
      3714.5934
 -13280139.14548 -10334375.82045  19620229.0054   19620226.4034
      -280.0304
   6331229.17245   4929934.23042  21952916.8724   21952916.8214
     -1309.2164
 -14137274.48448 -11003583.27744  20247325.7324   20247322.5834
      3934.4404
 -19955710.21548 -15536074.64547  18627818.7004   18627816.4354
       667.8204
 04  9 10 16 51 14.9930000  0  6G 1G20G11G14G23G25
 -22960363.43049 -17875562.26247  18307130.1534   18307128.5134
      1880.4084
 -22182559.76248 -17248367.57846  19056448.0444   19056446.2594
      3710.0324
 -13275829.57448 -10331017.70745  19621049.3174   19621047.0524
      -287.3054
   6350870.76245   4945239.29742  21956654.7004   21956654.9314
     -1309.4394
 -14196243.64548 -11049533.27044  20236104.8104   20236101.0404
      3931.2774
 -19965605.41848 -15543785.19547  18625935.6304   18625933.2674
       659.6804
 04  9 10 16 51 29.9930000  0  6G 1G20G11G14G23G25
 -22988500.93449 -17897487.60547  18301775.8724   18301773.6814
      1875.8344
 -22238142.69149 -17291678.95746  19045871.0834   19045868.9744
      3705.5294
 -13271412.32449 -10327575.71145  19621889.5214   19621888.5244
      -294.4834
   6370514.29746   4960545.92242  21960392.8724   21960393.1694
     -1309.5694
 -14255166.48048 -11095447.15244  20224891.9114   20224888.3644
      3928.1894
 -19975379.69149 -15551401.51647  18624075.5994   18624073.5214
       651.6184
 04  9 10 16 51 44.9930000  0  6G 1G20G11G14G23G25
 -23016569.72349 -17919359.39147  18296434.4744   18296433.0094
      1871.2534
 -22293657.72748 -17334937.43745  19035306.9274   19035304.7244
      3701.0024
 -13266887.48848 -10324049.90245  19622750.6854   19622749.5364
      -301.6564
   6390159.90246   4975854.14542  21964131.7164   21964132.0914
     -1309.7074
 -14314042.76247 -11141324.75044  20213688.2864   20213684.8024
      3925.0854
 -19985033.15649 -15558923.71547  18622238.5914   18622236.6924
       643.5644
 04  9 10 16 51 59.9930000  0  6G 1G20G11G14G23G25
 -23044568.91449 -17941176.95347  18291106.2784   18291104.8144
      1866.6134
 -22349103.66848 -17378142.03945  19024755.7864   19024753.9664
      3696.3964
 -13262254.39848 -10320439.72745  19623632.2944   19623630.7514
      -308.8734
   6409808.50846   4991164.71542  21967870.7324   21967870.5874
     -1309.9074
 -14372871.57048 -11187165.38344  20202492.9504   20202488.9854
      3921.9214
 -19994565.02349 -15566351.14547  18620424.6534   18620422.6344
       635.4584
 04  9 10 16 52 14.9930000  0  6G 1G20G11G14G23G25
 -23072498.26649 -17962940.08647  18285791.5444   18285789.7474
      1861.9574
 -22404479.93449 -17421292.37546  19014217.9664   19014215.7284
      3691.7514
 -13257512.84848 -10316745.02745  19624534.7244   19624532.9114
      -316.1034
   6429460.43845   5006477.87142  21971610.4894   21971609.7284
     -1310.1294
 -14431652.41848 -11232968.62944  20191307.1614   20191302.8604
      3918.7234
 -20003975.11749 -15573683.69547  18618634.0364   18618631.9744
       627.3404
 04  9 10 16 52 29.9930000  0  6G 1G20G11G14G23G25
 -23100358.70749 -17984649.52747  18280489.9744   18280488.4504
      1857.3634
 -22459787.08649 -17464388.85946  19003693.7164   19003691.0324
      3687.1434
 -13252664.15648 -10312966.84845  19625457.5054   19625456.3064
      -323.2464
   6449114.65246   5021792.80142  21975349.9974   21975350.6854
     -1310.2814
 -14490386.26648 -11278735.25044  20180130.9504   20180126.5284
      3915.5904
 -20013264.49249 -15580922.16447  18616866.4034   18616864.3884
       619.2924
 04  9 10 16 52 44.9930000  0  6G 1G20G11G14G23G25
 -23128150.86749 -18006305.76247  18275201.0444   18275199.7004
      1852.8114
 -22515025.41448 -17507431.71946  18993182.0054   18993179.3574
      3682.5554
 -13247709.12548 -10309105.80545  19626400.1144   19626398.6574
      -330.3354
   6468770.62945   5037109.09442  21979090.3574   21979091.1464
     -1310.3984
 -14549073.49648 -11324465.55544  20168963.4194   20168959.3764
      3912.4824
 -20022433.75049 -15588067.05147  18615121.3724   18615119.6694
       611.2844
 04  9 10 16 52 59.9930000  0  6G 1G20G11G14G23G25
 -23155873.49649 -18027907.81247  18269925.9894   18269924.2944
      1848.1754
 -22570193.41848 -17550419.76246  18982684.2474   18982681.9784
      3677.8674
 -13242646.78548 -10305161.14145  19627363.8254   19627362.1104
      -337.4894
   6488429.48845   5052427.62942  21982831.4504   21982831.0134
     -1310.5914
 -14607712.88748 -11370158.57044  20157804.6924   20157800.5674
      3909.2934
 -20031482.00049 -15595117.64547  18613399.6224   18613397.7164
       603.2174
 04  9 10 16 53 14.9930000  0  6G 1G20G11G14G23G25
 -23183527.68749 -18049456.53547  18264663.3574   18264661.7634
      1843.6134
 -22625291.87948 -17593353.62946  18972198.6924   18972197.2674
      3673.2314
 -13237478.33248 -10301133.78945  19628347.5054   19628345.5794
      -344.5644
   6508090.29345   5067747.67642  21986573.0834   21986572.1694
     -1310.7204
 -14666305.31248 -11415814.98044  20146654.5054   20146650.6344
      3906.1624
 -20040410.28948 -15602074.76647  18611700.7324   18611698.5214
       595.2194
 04  9 10 16 53 29.9930000  0  5G 1G20G11G23G25
 -23211113.37949 -18070951.88747  18259414.1854   18259412.7044
      1839.0464
 -22680320.39149 -17636232.98446  18961727.4824   18961725.1614
      3668.5674
 -13232203.90648 -10297023.86745  19629351.1614   19629349.5914
      -351.6284
 -14724850.66848 -11461434.73444  20135514.3024   20135509.8684
      3903.0244
 -20049218.61749 -15608938.39147  18610024.7714   18610022.7204
       587.2224
 04  9 10 16 53 44.9920000  0  5G 1G20G11G23G25
 -23238628.73049 -18092392.42247  18254178.0784   18254176.5784
      1834.3574
 -22735275.00049 -17679054.76646  18951270.0554   18951267.2344
      3663.6414
 -13226824.03148 -10292831.77345  19630374.4774   19630372.7154
      -358.6584
 -14783344.93748 -11507014.65644  20124382.7814   20124379.4454
      3899.6184
 -20057906.48049 -15615708.16847  18608371.2114   18608369.0864
       579.1914
 04  9 10 16 53 59.9920000  0  5G 1G20G11G23G25
 -23266075.14149 -18113779.23047  18248955.0314   18248953.9414
      1829.7614
 -22790160.41848 -17721822.61346  18940825.5554   18940823.6844
      3659.0284
 -13221335.90648 -10288555.33644  19631418.9774   19631417.1374
      -365.8754
 -14841793.53948 -11552558.98044  20113259.7114   20113257.1024
      3896.5734
 -20066472.96549 -15622383.35947  18606741.3284   18606739.1564
       571.0994
 04  9 10 16 54 14.9920000  0  5G 1G20G11G23G25
 -23293447.70749 -18135108.51647  18243746.4924   18243744.6884
      1824.8384
 -22844969.62548 -17764531.07846  18930395.9304   18930393.3524
      3653.9474
 -13215737.14148 -10284192.66445  19632484.9304   19632482.1254
      -373.2514
 -14900189.40648 -11598062.24244  20102147.6804   20102144.3244
      3893.0584
 -20074914.65649 -15628961.31246  18605134.5784   18605132.7854
       562.7794
 04  9 10 16 54 29.9920000  0  5G 1G20G11G23G25
 -23320748.70749 -18156382.03147  18238551.1334   18238549.9494
      1820.0674
 -22899704.52349 -17807181.65246  18919980.5314   18919977.8714
      3648.9934
 -13210030.16848 -10279745.69945  19633570.6494   19633568.3054
      -380.4654
 -14958534.64148 -11643526.05544  20091045.4224   20091041.8244
      3889.6824
 -20083233.71149 -15635443.69546  18603551.6954   18603549.6684
       554.6044
 04  9 10 16 54 44.9920000  0  5G 1G20G11G23G25
 -23347979.77749 -18177601.05547  18233369.0634   18233368.0474
      1815.4054
 -22954366.51249 -17849775.39846  18909577.9694   18909576.5824
      3644.1334
 -13204216.86748 -10275215.86745  19634677.2114   19634675.0354
      -387.5534
 -15016830.85548 -11688951.68044  20079951.9534   20079947.9964
      3886.4144
 -20091432.04749 -15641832.00846  18601991.9694   18601989.3834
       546.5564
 04  9 10 16 54 59.9920000  0  5G 1G20G11G23G25
 -23375141.59849 -18198766.10947  18228200.5164   18228199.4344
      1810.7884
 -23008955.90248 -17892312.57446  18899190.2814   18899188.3404
      3639.2934
 -13198298.07848 -10270603.83645  19635802.9694   19635801.6994
      -394.5864
 -15075078.60548 -11734339.54744  20068867.6414   20068864.1094
      3883.1834
 -20099510.39549 -15648126.84847  18600454.5394   18600452.5824
       538.5574
 04  9 10 16 55 14.9920000  0  5G 1G20G11G23G25
 -23402231.33649 -18219874.99647  18223045.6954   18223044.4964
      1805.9834
 -23063469.49248 -17934790.70746  18888816.7034   18888814.2814
      3634.2394
 -13192271.24248 -10265907.64845  19636949.9614   19636948.6334
      -401.7894
 -15133274.92648 -11779687.31244  20057793.2814   20057789.1174
      3879.7554
 -20107466.08649 -15654326.09447  18598940.5004   18598938.2384
       530.3794
 04  9 10 16 55 29.9920000  0  5G 1G20G11G23G25
 -23429250.25449 -18240928.71547  18217903.8754   18217902.6454
      1801.2614
 -23117908.32849 -17977210.57046  18878456.9924   18878455.0594
      3629.2564
 -13186137.79348 -10261128.34845  19638117.3524   19638115.1334
      -408.8974
 -15191421.01648 -11824995.93044  20046727.7894   20046724.1214
      3876.4064
 -20115300.50449 -15660430.84047  18597449.9304   18597448.0594
       522.2954
 04  9 10 16 55 44.9920000  0  5G 1G20G11G23G25
 -23456197.91849 -18261926.89847  18212775.9614   18212774.5164
      1796.5114
 -23172271.61349 -18019571.57046  18868112.3444   18868110.4104
      3624.2194
 -13179897.30548 -10256265.64844  19639304.3834   19639302.7544
      -416.0334
 -15249516.27048 -11870264.95344  20035673.0864   20035669.1174
      3873.0174
 -20123013.27049 -15666440.79747  18595981.9534   18595979.8204
       514.1844
 04  9 10 16 55 59.9920000  0  5G 1G20G11G23G25
 -23483076.65249 -18282871.37547  18207660.9774   18207659.8954
      1791.9164
 -23226561.19549 -18061875.13346  18857781.2424   18857779.2114
      3619.3054
 -13173552.49248 -10251321.66844  19640512.2664   19640510.1064
      -422.9874
 -15307562.87948 -11915496.06244  20024627.1724   20024623.7814
      3869.7744
 -20130606.81649 -15672357.85947  18594537.1804   18594534.7034
       506.2364
 04  9 10 16 56 14.9920000  0  5G 1G20G11G23G25
 -23509887.25849 -18303762.75846  18202559.1414   18202557.6454
      1787.3744
 -23280777.71149 -18104121.77346  18847464.1954   18847461.7664
      3614.4344
 -13167104.40248 -10246297.20745  19641739.9454   19641737.1494
      -429.8734
 -15365561.55548 -11960689.81644  20013590.4774   20013587.2464
      3866.5784
 -20138082.06249 -15678182.73046  18593114.4614   18593112.2774
       498.3504
 04  9 10 16 56 29.9920000  0  5G 1G20G11G23G25
 -23536629.36749 -18324600.77047  18197470.4144   18197468.9024
      1782.8074
 -23334920.51248 -18146310.96946  18837161.0474   18837158.8134
      3609.5204
 -13160552.87548 -10241192.11744  19642985.9774   19642983.3994
      -436.7684
 -15423511.98448 -12005845.96944  20002562.8994   20002559.7814
      3863.3624
 -20145438.83249 -15683915.28947  18591714.8594   18591712.7774
       490.4514
 04  9 10 16 56 44.9920000  0  5G 1G20G11G23G25
 -23563302.20349 -18345384.80546  18192394.4064   18192393.2504
      1778.1894
 -23388988.40649 -18188441.78546  18826872.1094   18826870.8634
      3604.5264
 -13153897.34448 -10236005.99244  19644252.1954   19644249.7624
      -443.7024
 -15481413.12948 -12050963.75444  19991544.6494   19991540.8794
      3860.0764
 -20152676.49249 -15689555.03947  18590337.3284   18590335.7704
       482.5114
 04  9 10 16 56 59.9920000  0  5G 1G20G11G23G25
 -23589910.07049 -18366118.20747  18187331.1644   18187329.5864
      1773.8584
 -23442985.38348 -18230517.35546  18816597.1644   18816594.5434
      3599.7984
 -13147142.27048 -10230742.30544  19645537.5314   19645536.3564
      -450.3384
 -15539269.17648 -12096046.38344  19980534.9064   19980530.8874
      3857.0704
 -20159799.41849 -15695105.37147  18588981.9384   18588980.0434
       474.8624
 04  9 10 16 57 14.9920000  0  5G 1G20G11G23G25
 -23616449.86749 -18386798.57047  18182281.1724   18182279.8404
      1769.3204
 -23496908.22349 -18272535.14846  18806336.0084   18806334.1954
      3594.8564
 -13140284.75048 -10225398.82844  19646842.7034   19646841.5864
      -457.1684
 -15597077.04348 -12141091.45344  19969534.4454   19969530.4024
      3853.8584
 -20166804.53949 -15700563.92646  18587648.6494   18587646.8874
       467.0084
 04  9 10 16 57 29.9920000  0  5G 1G20G11G23G25
 -23642921.47749 -18407425.80947  18177243.6954   18177242.2704
      1764.7744
 -23550756.30949 -18314494.68746  18796088.9534   18796086.8914
      3589.8724
 -13133324.75048 -10219975.47744  19648167.1804   19648165.8244
      -464.0004
 -15654836.34448 -12186098.68744  19958543.1094   19958539.5434
      3850.6204
 -20173691.99649 -15705930.78146  18586338.2424   18586336.2934
       459.1644
 04  9 10 16 57 44.9920000  0  5G 1G20G11G23G25
 -23669324.82049 -18427999.84847  18172219.1804   18172217.5044
      1760.2234
 -23604529.26248 -18356395.68446  18785856.3364   18785854.7234
      3584.8644
 -13126262.68448 -10214472.59044  19649511.7664   19649509.4024
      -470.8044
 -15712547.05948 -12231068.08244  19947561.6724   19947557.4534
      3847.3814
 -20180461.80549 -15711205.96947  18585050.0084   18585047.4384
       451.3214
 04  9 10 16 57 59.9920000  0  5G 1G20G11G23G25
 -23695661.53549 -18448521.97346  18167207.7744   18167206.0354
      1755.7814
 -23658228.45748 -18398239.20346  18775637.6724   18775635.2744
      3579.9464
 -13119100.31248 -10208891.54745  19650874.4304   19650872.3054
      -477.4914
 -15770210.75448 -12276000.81244  19936587.6724   19936584.9614
      3844.2464
 -20187115.75449 -15716390.87147  18583783.8594   18583781.5904
       443.5974
 04  9 10 16 58 14.9920000  0  5G 1G20G11G23G25
 -23721931.47349 -18468992.05547  18162208.5864   18162207.1884
      1751.3294
 -23711853.37549 -18440024.86746  18765433.4774   18765431.0864
      3574.9954
 -13111837.81248 -10203232.46145  19652256.4064   19652254.3564
      -484.1674
 -15827827.10948 -12320896.64544  19925623.9224   19925620.7894
      3841.0904
 -20193653.85249 -15721485.50047  18582539.3204   18582537.4774
       435.8734
 04  9 10 16 58 29.9920000  0  5G 1G20G11G23G25
 -23748132.85249 -18489408.71547  18157222.7424   18157221.1094
      1746.7594
 -23765401.85549 -18481750.94146  18755243.2034   18755241.2074
      3569.8994
 -13104473.40248 -10197493.98845  19653657.6024   19653656.1094
      -490.9614
 -15885394.03948 -12365753.97344  19914669.1174   19914665.2114
      3837.7954
 -20200074.39549 -15726488.53547  18581317.7504   18581316.0274
       428.0364
 04  9 10 16 58 44.9920000  0  5G 1G20G11G23G25
 -23774267.82849 -18509773.63747  18152249.5394   18152247.5784
      1742.3324
 -23818875.76649 -18523418.92246  18745067.5784   18745065.7424
      3564.9274
 -13097009.55948 -10191678.02345  19655077.9774   19655076.2774
      -497.5904
 -15942913.64848 -12410574.45744  19903724.0784   19903719.5044
      3834.6414
 -20206379.63749 -15731401.73447  18580117.8674   18580116.1884
       420.3494
 04  9 10 16 58 59.9920000  0  5G 1G20G11G23G25
 -23800335.31249 -18530085.96947  18147288.7814   18147287.2464
      1737.8324
 -23872273.70749 -18565027.69946  18734906.1804   18734903.6524
      3559.8634
 -13089445.43448 -10185783.92644  19656517.0634   19656515.6494
      -504.2754
 -16000384.87548 -12455357.21544  19892787.4144   19892783.0984
      3831.4154
 -20212568.55949 -15736224.28547  18578940.2344   18578938.3094
       412.5954
 04  9 10 16 59 14.9920000  0  5G 1G20G11G23G25
 -23826334.23449 -18550344.87147  18142341.3364   18142339.8564
      1733.2614
 -23925594.27049 -18606576.19546  18724759.6334   18724757.0744
      3554.7044
 -13081780.11348 -10179810.96544  19657976.1414   19657973.6064
      -511.0214
 -16057806.45348 -12500101.28944  19881860.4064   19881856.5164
      3828.1054
 -20218640.39149 -15740955.59047  18577784.8054   18577782.9574
       404.7894
 04  9 10 16 59 29.9920000  0  5G 1G20G11G23G25
 -23852267.15249 -18570552.34047  18137406.7424   18137405.1564
      1728.8614
 -23978839.73049 -18648066.16046  18714627.5004   18714625.5354
      3549.6974
 -13074016.39548 -10173761.32444  19659453.2034   19659451.0394
      -517.5814
 -16115180.93748 -12544808.66044  19870942.5704   19870939.0594
      3824.9664
 -20224597.66849 -15745597.65246  18576651.3054   18576648.6134
       397.1524
 04  9 10 16 59 44.9920000  0  5G 1G20G11G23G25
 -23878132.16449 -18590706.90247  18132484.6884   18132483.2504
      1724.3344
 -24032007.85949 -18689495.85946  18704509.7584   18704507.5594
      3544.5424
 -13066152.64148 -10167633.73444  19660949.4924   19660947.7934
      -524.2504
 -16172506.27048 -12589477.72744  19860033.9304   19860030.1374
      3821.6894
 -20230438.60949 -15750149.03946  18575539.8204   18575537.8284
       389.3964
 04  9 10 16 59 59.9920000  0  5G 1G20G11G23G25
 -23903928.83249 -18610808.20347  18127575.7274   18127573.7934
      1719.7784
 -24085097.85549 -18730864.68446  18694407.0944   18694404.5904
      3539.3334
 -13058188.54748 -10161427.98044  19662465.2744   19662463.7194
      -530.9404
 -16229781.82048 -12634108.00445  19849134.6094   19849131.1024
      3818.3704
 -20236162.98449 -15754609.60246  18574450.7504   18574448.6644
       381.6254
 04  9 10 17  0 14.9920000  0  5G 1G20G11G23G25
 -23929659.05149 -18630857.73447  18122679.2344   18122677.7034
      1715.3484
 -24138111.41449 -18772173.94146  18684318.6564   18684316.4534
      3534.2374
 -13050126.39848 -10155145.80544  19663999.3834   19663997.8484
      -537.4774
 -16287009.51248 -12678700.98844  19838244.6644   19838240.6724
      3815.1794
 -20241772.79749 -15758980.89846  18573382.7744   18573381.4494
       373.9884
 04  9 10 17  0 29.9920000  0  5G 1G20G11G23G25
 -23955322.63749 -18650855.33247  18117795.6724   18117794.0124
      1710.9064
 -24191047.93449 -18813423.17646  18674245.3914   18674243.0474
      3529.1014
 -13041966.05948 -10148787.12544  19665552.0704   19665550.9734
      -544.0234
 -16344188.97348 -12723256.41444  19827363.5474   19827359.8914
      3811.9644
 -20247268.01649 -15763262.90247  18572336.9924   18572335.7034
       366.3484
 04  9 10 17  0 44.9920000  0  5G 1G20G11G23G25
 -23980920.17649 -18670801.48047  18112925.0164   18112923.2314
      1706.5034
 -24243907.76649 -18854612.66846  18664186.6414   18664184.0704
      3523.9894
 -13033708.43448 -10142352.64144  19667123.9064   19667122.3714
      -550.5084
 -16401320.77048 -12767774.69145  19816491.7114   19816488.4264
      3808.7864
 -20252649.35949 -15767456.16447  18571313.2424   18571311.8324
       358.7564
 04  9 10 17  0 59.9920000  0  5G 1G20G11G23G25
 -24006450.05149 -18690694.89547  18108066.5084   18108064.9384
      1701.9924
 -24296688.90249 -18895740.81646  18654142.6564   18654140.3524
      3518.7424
 -13025352.08648 -10135841.20744  19668714.3914   19668712.2424
      -557.0904
 -16458403.11748 -12812254.43745  19805630.1254   19805626.2154
      3805.4904
 -20257915.32049 -15771559.53146  18570311.1414   18570308.9574
       351.0644
 04  9 10 17  1 14.9920000  0  5G 1G20G11G23G25
 -24031911.88349 -18710535.28147  18103221.1954   18103220.0474
      1697.4554
 -24349390.61349 -18936807.08646  18644113.9774   18644111.8404
      3513.4474
 -13016896.92648 -10129252.78544  19670323.2034   19670321.0634
      -563.6774
 -16515435.63348 -12856695.33645  19794776.2894   19794772.9694
      3802.1684
 -20263065.71949 -15775572.83646  18569331.2504   18569328.8284
       343.3604
 04  9 10 17  1 29.9920000  0  5G 1G20G11G23G25
 -24057307.23449 -18730323.86347  18098388.6024   18098387.1254
      1693.0234
 -24402014.21549 -18977812.48846  18634099.8594   18634097.7464
      3508.2404
 -13008344.75048 -10122588.77044  19671950.5554   19671949.0164
      -570.1454
 -16572419.68048 -12901098.45745  19783931.9064   19783929.5394
      3798.9364
 -20268102.16049 -15779497.34846  18568372.9454   18568370.5274
       335.7634
 04  9 10 17  1 44.9920000  0  5G 1G20G11G23G25
 -24082634.85249 -18750059.67647  18093568.9224   18093567.4144
      1688.5084
 -24454558.08249 -19018755.75846  18624101.3284   18624099.0084
      3502.9244
 -12999694.48449 -10115848.32445  19673596.9064   19673594.5984
      -576.6844
 -16629353.91448 -12945462.77344  19773098.2194   19773094.7234
      3795.6164
 -20273023.44949 -15783332.12146  18567436.2584   18567434.2894
       328.0864
 04  9 10 17  1 59.9920000  0  5G 1G20G11G23G25
 -24107896.77749 -18769744.29347  18088761.6954   18088760.3134
      1684.1284
 -24507023.97749 -19059638.27346  18614117.1644   18614115.0204
      3497.7264
 -12990948.46949 -10109033.25444  19675260.9304   19675259.2344
      -583.0684
 -16686240.25048 -12989789.76245  19762273.0554   19762269.8994
      3792.4224
 -20277831.96949 -15787079.03947  18566521.4924   18566519.5274
       320.5684
 04  9 10 17  2 14.9920000  0  5G 1G20G11G23G25
 -24133092.41449 -18789377.27047  18083967.3524   18083965.8204
      1679.7094
 -24559410.89849 -19100459.25046  18604148.3524   18604146.0204
      3492.4614
 -12982106.08648 -10102143.11344  19676943.7664   19676941.7544
      -589.4924
 -16743077.88748 -13034078.81245  19751457.4304   19751454.3834
      3789.1764
 -20282527.18749 -15790737.66847  18565627.9384   18565625.9654
       313.0154
 04  9 10 17  2 29.9920000  0  5G 1G20G11G23G25
 -24158222.71149 -18808959.31647  18079185.0084   18079183.3994
      1675.3534
 -24611719.56249 -19141219.24246  18594194.3994   18594192.0704
      3487.2444
 -12973168.63348 -10095178.88744  19678644.3204   19678642.5474
      -595.8304
 -16799867.70748 -13078330.61344  19740650.7814   19740646.8054
      3785.9884
 -20287110.26649 -15794308.90646  18564755.7034   18564753.4814
       305.5394
 04  9 10 17  2 44.9920000  0  5G 1G20G11G23G25
 -24183284.78149 -18828488.20747  18074416.1954   18074414.4884
      1670.8054
 -24663946.75849 -19181915.75446  18584255.8994   18584254.0164
      3481.8134
 -12964133.59048 -10088138.62144  19680363.2424   19680361.5904
      -602.3364
 -16856606.99248 -13122543.04744  19729853.8284   19729849.6024
      3782.6194
 -20291578.43049 -15797790.60546  18563905.5084   18563903.5084
       297.8784
 04  9 10 17  2 59.9920000  0  5G 1G20G11G23G25
 -24208281.22749 -18847965.95347  18069658.9844   18069657.4844
      1666.4304
 -24716094.80549 -19222550.59446  18574332.4924   18574329.8244
      3476.5364
 -12955003.73848 -10081024.48844  19682100.9454   19682099.2774
      -608.6574
 -16913298.07048 -13166717.87944  19719065.2194   19719062.0394
      3779.4054
 -20295934.28149 -15801184.78146  18563076.2584   18563074.1564
       290.3904
 04  9 10 17  3 14.9920000  0  5G 1G20G11G23G25
 -24233211.58649 -18867392.23047  18064915.3594   18064913.5984
      1662.0244
 -24768162.87549 -19263123.11346  18564424.1494   18564421.7774
      3471.2054
 -12945778.98449 -10073836.37144  19683856.4924   19683854.6374
      -614.9844
 -16969940.42249 -13210854.75444  19708286.6804   19708283.2194
      3776.1574
 -20300177.61349 -15804491.28146  18562269.0004   18562266.7274
       282.8894
 04  9 10 17  3 29.9920000  0  5G 1G20G11G23G25
 -24258075.71949 -18886766.87547  18060183.9304   18060182.3754
      1657.6094
 -24820150.45349 -19303632.90646  18554531.2974   18554528.6294
      3465.8394
 -12936459.25849 -10066574.26244  19685630.0244   19685628.5744
      -621.3154
 -17026533.73848 -13254953.43444  19697517.8994   19697513.2894
      3772.8884
 -20304308.34049 -15807710.04347  18561483.1494   18561480.7744
       275.3824
 04  9 10 17  3 44.9920000  0  5G 1G20G11G23G25
 -24282875.54349 -18906091.41447  18055464.3754   18055463.0394
      1653.3224
 -24872059.21549 -19344081.29346  18544653.2194   18544651.1804
      3460.5844
 -12927046.43049 -10059239.60544  19687421.7194   19687419.3794
      -627.5224
 -17083079.83648 -13299015.33244  19686757.2424   19686752.7194
      3769.7404
 -20308328.78149 -15810842.86746  18560717.7814   18560716.0904
       268.0294
 04  9 10 17  3 59.9920000  0  5G 1G20G11G23G25
 -24307611.69549 -18925366.34447  18050757.2114   18050756.0784
      1649.0774
 -24923889.36749 -19384468.43046  18534790.2274   18534787.9814
      3455.3434
 -12917541.84048 -10051833.44544  19689229.8054   19689227.2034
      -633.6394
 -17139579.25449 -13343040.84044  19676006.1884   19676002.2314
      3766.6284
 -20312239.53549 -15813890.21946  18559973.7894   18559971.5044
       260.7174
 04  9 10 17  4 14.9920000  0  5G 1G20G11G23G25
 -24332278.98849 -18944587.61747  18046063.3204   18046062.1494
      1644.4864
 -24975635.52049 -19424790.09446  18524943.6254   18524941.8634
      3449.7434
 -12907940.43748 -10044351.85544  19691057.0474   19691054.4494
      -640.0934
 -17196026.66848 -13387025.80145  19665264.1414   19665260.6374
      3763.1614
 -20316035.55949 -15816848.17246  18559251.2274   18559249.6914
       253.0684
 04  9 10 17  4 29.9920000  0  5G 1G20G11G23G25
 -24356881.46149 -18963758.38347  18041381.8054   18041380.1374
      1640.1654
 -25027301.34049 -19465049.16846  18515111.7344   18515109.4844
      3444.3884
 -12898246.41849 -10036798.08644  19692902.0004   19692900.1564
      -646.2684
 -17252425.96549 -13430973.30544  19654531.5164   19654527.4494
      3759.9534
 -20319721.01249 -15819719.95746  18558550.1414   18558548.2114
       245.6974
 04  9 10 17  4 44.9920000  0  5G 1G20G11G23G25
 -24381415.80149 -18982876.05147  18036713.0634   18036711.6454
      1635.6234
 -25078883.20349 -19505242.83246  18505296.0164   18505294.1684
      3438.7914
 -12888456.69148 -10029169.75044  19694763.9614   19694762.6064
      -652.6484
 -17308773.76648 -13474880.68044  19643808.7814   19643805.0164
      3756.5204
 -20323292.71549 -15822503.12946  18557870.4064   18557868.5944
       238.1144
 04  9 10 17  4 59.9920000  0  5G 1G20G11G23G25
 -24405884.81649 -19001942.82047  18032056.6724   18032055.5004
      1631.2684
 -25130383.58249 -19545372.98446  18495495.7584   18495493.1954
      3433.3594
 -12878574.32048 -10021469.23444  19696644.7584   19696643.3484
      -658.8254
 -17365072.82448 -13518750.05144  19633094.9774   19633092.5984
      3753.2714
 -20326753.66049 -15825199.97746  18557211.8054   18557209.8524
       230.7304
 04  9 10 17  5 14.9920000  0  5G 1G20G11G23G25
 -24430289.07049 -19020959.12147  18027412.5784   18027411.1494
      1626.9504
 -25181802.72349 -19585439.84846  18485711.0164   18485708.9734
      3427.9434
 -12868600.10549 -10013697.14544  19698543.8674   19698541.3204
      -664.9484
 -17421323.52348 -13562581.73844  19622391.0554   19622388.5044
      3750.0474
 -20330104.49649 -15827811.03546  18556574.4144   18556572.3054
       223.3894
 04  9 10 17  5 29.9920000  0  5G 1G20G11G23G25
 -24454627.13749 -19039923.85547  18022781.2584   18022780.0124
      1622.5384
 -25233138.86349 -19625442.03146  18475942.1174   18475939.6494
      3422.4094
 -12858532.87149 -10005852.54744  19700459.2034   19700457.1724
      -671.1494
 -17477524.42248 -13606374.62945  19611696.6884   19611693.0124
      3746.7274
 -20333344.09449 -15830335.40247  18555957.7034   18555956.0944
       215.9734
 04  9 10 17  5 44.9920000  0  5G 1G20G11G23G25
 -24478901.09049 -19058838.62547  18018162.2424   18018160.5474
      1618.2644
 -25284393.79749 -19665380.93046  18466188.6494   18466186.7344
      3416.9964
 -12848374.92249  -9997937.28144  19702391.9924   19702389.8714
      -677.1974
 -17533677.41049 -13650130.18745  19601011.4534   19601007.2544
      3743.5334
 -20336474.50449 -15832774.70747  18555362.3054   18555360.0354
       208.6944
 04  9 10 17  5 59.9920000  0  5G 1G20G11G23G25
 -24503110.62949 -19077703.20347  18013555.1644   18013553.3284
      1613.9694
 -25335566.81649 -19705256.02346  18456450.6804   18456448.6094
      3411.5354
 -12838126.02749  -9989951.15244  19704342.5474   19704340.3134
      -683.2604
 -17589782.21548 -13693848.21144  19590334.7814   19590330.7384
      3740.3204
 -20339495.65249 -15835128.84846  18554787.1414   18554785.4224
       201.4104
 04  9 10 17  6 14.9920000  0  5G 1G20G11G23G25
 -24527255.02049 -19096517.02047  18008960.8524   18008958.7744
      1609.6264
 -25386657.03949 -19745066.57046  18446728.6414   18446726.8714
      3406.0154
 -12827786.00449  -9981894.00044  19706310.1804   19706308.2774
      -689.3354
 -17645837.97349 -13737528.01244  19579668.0084   19579663.5084
      3737.0514
 -20342407.02049 -15837397.45747  18554233.0164   18554231.0784
       194.0914
 04  9 10 17  6 29.9920000  0  5G 1G20G11G23G25
 -24551336.03949 -19115281.45347  18004378.1414   18004376.8404
      1605.4014
 -25437665.70349 -19784813.57446  18437021.8284   18437019.6214
      3400.5784
 -12817356.66849  -9973767.26244  19708294.2814   19708292.7774
      -695.2894
 -17701846.26648 -13781170.82444  19569009.6094   19569005.5944
      3733.8864
 -20345210.39549 -15839581.92246  18553699.7974   18553697.4884
       186.8924
 04  9 10 17  6 44.9920000  0  5G 1G20G11G23G25
 -24575352.72749 -19133995.77046  17999808.3364   17999806.5124
      1601.1134
 -25488591.74249 -19824496.18746  18427330.8994   18427329.1604
      3395.0694
 -12806837.44148  -9965570.48444  19710296.3914   19710294.4884
      -701.2824
 -17757806.21548 -13824775.96544  19558360.5394   19558356.5594
      3730.6634
 -20347905.13749 -15841681.73846  18553186.9304   18553184.6884
       179.6494
 04  9 10 17  6 59.9920000  0  5G 1G20G11G23G25
 -24599304.07049 -19152659.15247  17995250.3054   17995248.3914
      1596.7564
 -25539433.73449 -19864113.33246  18417655.8914   18417653.7464
      3389.4664
 -12796227.58248  -9957303.08244  19712315.3204   19712314.3244
      -707.3244
 -17813716.49248 -13868342.41044  19547721.5704   19547717.5354
      3727.3524
 -20350490.30949 -15843696.15646  18552694.9144   18552693.1174
       172.3454
 04  9 10 17  7 14.9920000  0  5G 1G20G11G23G25
 -24623189.81249 -19171271.42247  17990704.8674   17990703.5594
      1592.3834
 -25590191.25449 -19903664.64546  18407997.3134   18407995.1804
      3383.8354
 -12785527.07048  -9948965.03944  19714351.1564   19714350.8954
      -713.3674
 -17869576.92648 -13911870.02045  19537091.6494   19537087.4924
      3724.0294
 -20352965.88749 -15845625.19146  18552224.0394   18552221.9184
       165.0394
 04  9 10 17  7 29.9920000  0  5G 1G20G11G23G25
 -24647011.80149 -19189834.02047  17986171.6494   17986170.1064
      1588.1334
 -25640865.62549 -19943151.16046  18398354.3444   18398352.3524
      3378.2914
 -12774737.76648  -9940557.82044  19716404.1644   19716403.3404
      -719.2874
 -17925389.14849 -13955360.04745  19526471.2114   19526466.7544
      3720.8154
 -20355333.85549 -15847470.37147  18551773.3134   18551771.9454
       157.8654
 04  9 10 17  7 44.9920000  0  5G 1G20G11G23G25
 -24670769.30949 -19208346.35946  17981650.9694   17981649.2504
      1583.8344
 -25691455.85549 -19982572.10946  18388727.3134   18388724.8094
      3372.6824
 -12763859.37148  -9932081.18444  19718474.3914   19718473.2154
      -725.2264
 -17981152.33649 -13998811.85545  19515859.5164   19515855.9884
      3717.5464
 -20357593.66449 -15849231.27347  18551343.1174   18551341.4774
       150.6544
 04  9 10 17  7 59.9920000  0  5G 1G20G11G23G25
 -24694463.28149 -19226809.21147  17977141.9924   17977140.6724
      1579.5984
 -25741962.58249 -20021928.00446  18379116.2034   18379114.2424
      3367.1154
 -12752893.05949  -9923536.02044  19720561.5474   19720559.9774
      -731.0874
 -18036867.35548 -14042226.14845  19505257.4384   19505254.3484
      3714.3354
 -20359746.30549 -15850908.66847  18550933.4064   18550931.5824
       143.5094
 04  9 10 17  8 14.9920000  0  5G 1G20G11G23G25
 -24718092.20349 -19245221.35547  17972645.6564   17972644.1684
      1575.2614
 -25792383.96149 -20061217.39146  18369520.9774   18369519.0044
      3361.4254
 -12741837.59048  -9914921.39844  19722665.1724   19722663.8634
      -737.0314
 -18092532.55548 -14085601.61345  19494664.8364   19494661.4184
      3711.0134
 -20361790.41049 -15852501.49246  18550544.6564   18550542.5594
       136.2744
 04  9 10 17  8 29.9920000  0  5G 1G20G11G23G25
 -24741657.56249 -19263583.98047  17968161.2424   17968159.1174
      1571.0244
 -25842721.16849 -20100441.17646  18359942.2744   18359940.0314
      3355.8144
 -12730694.57848  -9906238.55944  19724785.4774   19724784.0354
      -742.8674
 -18148149.37948 -14128939.37544  19484081.1024   19484076.7664
      3707.7884
 -20363727.78949 -15854011.14846  18550176.1174   18550174.3524
       129.1594
 04  9 10 17  8 44.9920000  0  5G 1G20G11G23G25
 -24765158.65249 -19281896.52747  17963688.9304   17963687.4694
      1566.7394
 -25892973.15649 -20139598.57446  18350379.7034   18350377.8634
      3350.1334
 -12719463.55548  -9897487.12944  19726923.2034   19726921.3284
      -748.7354
 -18203717.01248 -14172238.82445  19473506.9144   19473503.0704
      3704.5094
 -20365557.63349 -15855437.01246  18549827.7664   18549826.1844
       121.9904
 04  9 10 17  8 59.9920000  0  5G 1G20G11G23G25
 -24788598.00849 -19300160.95747  17959228.9694   17959227.3204
      1562.6244
 -25943142.14549 -20178691.28946  18340833.0314   18340831.0084
      3344.5994
 -12708147.41448  -9888669.36344  19729076.3444   19729074.7384
      -754.4094
 -18259237.84848 -14215501.80945  19462941.5634   19462938.3164
      3701.3894
 -20367282.84849 -15856781.34446  18549499.5554   18549497.6524
       115.0144
 04  9 10 17  9 14.9920000  0  5G 1G20G11G23G25
 -24811974.91049 -19318376.73847  17954780.3364   17954778.5744
      1558.4604
 -25993227.21949 -20217718.61346  18331302.2974   18331299.8634
      3339.0054
 -12696745.77048  -9879784.96544  19731246.6724   19731244.2314
      -760.1104
 -18314711.09448 -14258727.69145  19452385.4224   19452381.8364
      3698.2164
 -20368902.85249 -15858043.70346  18549191.1804   18549189.1094
       108.0004
 04  9 10 17  9 29.9920000  0  5G 1G20G11G23G25
 -24835286.89149 -19336541.92247  17950344.3674   17950342.5204
      1554.1324
 -26043225.42649 -20256678.26246  18321787.6804   18321785.5044
      3333.2144
 -12685256.21549  -9870832.09044  19733432.5784   19733430.9694
      -765.9704
 -18370134.08248 -14301914.40644  19441838.2194   19441835.2424
      3694.8664
 -20370415.30149 -15859222.24646  18548903.5314   18548901.5204
       100.8304
 04  9 10 17  9 44.9920000  0  5G 1G20G11G23G25
 -24858534.26649 -19354656.75847  17945920.1954   17945919.1954
      1549.8254
 -26093136.81649 -20295570.24646  18312289.8364   18312287.1844
      3327.4264
 -12673679.31248  -9861811.15244  19735635.2424   19735634.3094
      -771.7934
 -18425507.04348 -14345062.13744  19431301.3594   19431297.8284
      3691.5314
 -20371820.61749 -15860317.30946  18548635.9064   18548634.0394
        93.6884
 04  9 10 17  9 59.9920000  0  6G 1G20G11G16G23G25
 -24881718.54349 -19372722.43747  17941508.7504   17941507.1174
      1545.6184
 -26142962.63349 -20334395.55946  18302808.2424   18302806.3134
      3321.7214
 -12662017.02348  -9852723.67644  19737854.9844   19737852.9024
      -777.4864
   -201166.63756   -143697.64552  21560900.2274   21560900.5244

 -18480831.53149 -14388172.12145  19420773.5004   19420769.6024
      3688.2994
 -20373120.63749 -15861330.32446  18548388.7344   18548386.8674
        86.6684
